     2.11           OBSERVATION DATA    G (GPS)             RINEX VERSION / TYPE
teqc 2010Oct21 OPUS Account 20111027 19:15:27UTC            PGM / RUN BY / DATE
A 1526                                                      MARKER NAME
3035                                                        MARKER NUMBER
CSMIDDLETON NGS                                             OBSERVER / AGENCY
4619K01307 TRIMBLE NETR5 4.41                               REC # / TYPE / VERS
12668873 TRM41249.00 NONE                                   ANT # / TYPE
  -756650.7578 -5561538.3968  3019389.9446                  APPROX POSITION XYZ
        1.9990        0.0000        0.0000                  ANTENNA: DELTA H/E/N
     1     1                                                WAVELENGTH FACT L1/2
     5    L1    L2    C1    P1    P2                        # / TYPES OF OBSERV
    15                                                      LEAP SECONDS
  2011     8    19     0     0    0.0000000     GPS         TIME OF FIRST OBS
                                                            END OF HEADER
 11  8 19  0  0  0.0000000  0  7G12G09G10G05G17G04G02
 116129151.44018  90490291.79217  22098638.031                    22098646.742
 120740315.49816  94083421.23554  22976119.492                    22976130.469
 110539902.18218  86135097.17356  21035029.781                    21035039.238
 120223940.60717  93681062.04417  22877847.883                    22877858.770
 119399969.21817  93039020.85517  22721058.070                    22721067.328
 110493867.63718  86099235.54456  21026266.578                    21026276.059
 108738367.19018  84731325.30956  20692207.484                    20692214.047
 11  8 19  0  0 30.0000000  0  7G12G09G10G05G17G04G02
 116050958.610 7  90429362.350 7  22083758.234                    22083766.859
 120806149.684 7  94134720.52744  22988646.891                    22988658.289
 110510017.644 8  86111810.54746  21029343.016                    21029352.453
 120122817.701 7  93602265.095 6  22858604.375                    22858615.504
 119445461.359 7  93074469.241 7  22729714.789                    22729724.574
 110561371.016 8  86151835.55546  21039112.305                    21039121.602
 108722870.331 8  84719249.85846  20689258.625                    20689265.180
 11  8 19  0  1  0.0000000  0  7G12G09G10G05G17G04G02
 115973070.792 7  90368670.567 7  22068936.891                    22068945.344
 120872315.622 7  94186278.34644  23001238.648                    23001249.859
 110480716.929 8  86088978.85246  21023767.172                    21023776.770
 120021854.861 7  93523592.867 7  22839391.930                    22839402.906
 119491078.878 7  93110015.331 7  22738395.430                    22738405.371
 110629117.124 8  86204624.70946  21052003.742                    21052013.234
 108707710.516 8  84707437.03546  20686373.492                    20686380.410
 11  8 19  0  1 30.0000000  0  7G12G09G10G05G17G04G02
 115895490.887 8  90308218.714 7  22054173.758                    22054182.465
 120938809.971 7  94238092.07544  23013892.094                    23013903.070
 110452001.185 8  86066602.97346  21018302.977                    21018312.348
 119921054.546 7  93445047.271 7  22820210.313                    22820221.281
 119536821.986 7  93145659.265 7  22747100.492                    22747109.813
 110697103.276 8  86257600.90146  21064941.375                    21064950.941
 108692886.719 8  84695886.04746  20683552.656                    20683559.578
 11  8 19  0  2  0.0000000  0  7G12G09G10G05G17G04G02
 115818221.316 8  90248008.686 7  22039469.609                    22039478.188
 121005629.654 7  94290159.32544  23026607.305                    23026618.102
 110423872.466 8  86044684.52646  21012949.883                    21012959.410
 119820420.256 7  93366631.043 7  22801060.047                    22801071.441
 119582692.136 7  93181402.207 7  22755828.664                    22755838.434
 110765327.679 8  86310762.75146  21077924.289                    21077933.723
 108678398.790 8  84684596.77246  20680795.672                    20680801.949
 11  8 19  0  2 30.0000000  0  7G12G09G10G05G17G04G02
 115741264.922 8  90188042.687 7  22024825.563                    22024833.898
 121072771.413 7  94342477.53944  23039383.992                    23039394.820
 110396332.234 7  86023224.63446  21007709.117                    21007718.684
 119719955.145 7  93288346.661 7  22781942.367                    22781952.887
 119628689.611 7  93217244.369 7  22764582.445                    22764591.980
 110833788.050 8  86364108.47246  21090951.555                    21090960.855
 108664245.899 8  84673568.56546  20678102.391                    20678109.316
 11  8 19  0  3  0.0000000  0  7G12G09G10G05G17G04G02
 115664624.173 7  90128322.649 7  22010241.531                    22010250.047
 121140231.824 7  94395044.03844  23052221.164                    23052232.258
 110369381.961 8  86002224.46646  21002580.711                    21002590.461
 119619661.864 7  93210196.150 7  22762856.898                    22762867.520
 119674815.001 7  93253186.217 7  22773359.727                    22773369.445
 110902481.953 8  86417636.17046  21104023.406                    21104032.680
 108650426.875 8  84662800.51446  20675472.844                    20675479.266
 11  8 19  0  3 30.0000000  0  7G12G09G10G05G17G04G02
 115588301.868 7  90068850.744 7  21995717.648                    21995726.242
 121208007.750 7  94447856.41044  23065119.000                    23065129.762
 110343023.630 8  85981685.53846  20997564.422                    20997574.199
 119519543.467 7  93132181.924 7  22743805.172                    22743815.363
 119721069.212 7  93289228.444 7  22782161.586                    22782171.285
 110971407.361 8  86471344.26546  21117139.617                    21117149.105
 108636941.194 8  84652292.21546  20672906.555                    20672913.293
 11  8 19  0  4  0.0000000  0  7G12G09G10G05G17G04G02
 115512300.483 7  90009628.907 7  21981254.813                    21981263.703
 121276095.682 7  94500911.92244  23078075.602                    23078086.402
 110317258.567 8  85961608.90446  20992661.953                    20992671.680
 119419603.294 7  93054306.564 7  22724786.789                    22724797.746
 119767452.709 7  93325371.368 7  22790988.148                    22790997.566
 111040561.836 8  86525230.86746  21130299.531                    21130308.258
 108623787.808 8  84642042.84546  20670403.367                    20670410.340
 11  8 19  0  4 30.0000000  0  7G12G09G10G05G17G04G02
 115436622.490 8  89950659.074 7  21966853.867                    21966862.445
 121344492.152 7  94554207.80544  23091091.055                    23091101.527
 110292087.946 8  85941995.45846  20987872.453                    20987881.508
 119319844.119 7  92976572.248 7  22705803.281                    22705814.273
 119813966.141 7  93361615.549 7  22799839.320                    22799848.578
 111109942.911 8  86579294.03446  21143502.438                    21143511.691
 108610965.753 8  84632051.66246  20667963.641                    20667970.496
 11  8 19  0  5  0.0000000  0  7G12G09G10G05G17G04G02
 115361270.682 8  89891943.407 7  21952514.633                    21952523.410
 121413193.854 7  94607741.56244  23104164.320                    23104175.023
 110267513.438 8  85922846.52346  20983195.695                    20983204.941
 119220268.984 7  92898981.348 7  22686854.508                    22686865.125
 119860610.257 7  93397961.558 7  22808715.125                    22808725.184
 111179548.671 8  86633532.28846  21156747.813                    21156757.039
 108598474.264 8  84622318.05946  20665586.422                    20665593.316
 11  8 19  0  5 30.0000000  0  7G12G09G10G05G17G04G02
 115286247.369 7  89833483.700 7  21938238.063                    21938247.051
 121482197.535 7  94661510.59444  23117295.547                    23117306.633
 110243535.947 8  85904162.79146  20978633.266                    20978642.328
 119120880.468 7  92821535.860 7  22667941.398                    22667952.418
 119907385.378 7  93434409.661 7  22817616.359                    22817625.910
 111249376.216 8  86687943.35946  21170035.594                    21170044.980
 108586312.215 8  84612841.16046  20663272.094                    20663278.887
 11  8 19  0  6  0.0000000  0  7G12G09G10G05G17G04G02
 115211555.200 7  89775282.047 7  21924024.867                    21924033.754
 121551499.874 7  94715512.36744  23130483.117                    23130493.840
 110220157.503 8  85885945.83846  20974184.570                    20974193.492
 119021682.085 7  92744238.530 7  22649064.422                    22649075.359
 119954292.486 7  93470960.607 6  22826542.617                    22826551.906
 111319423.931 8  86742525.98846  21183365.320                    21183374.602
 108574478.958 8  84603620.45646  20661020.203                    20661027.113
 11  8 19  0  6 30.0000000  0  8G30G12G09G10G05G17G04G02
 128021520.53516                  24361694.367
 115137197.069 7  89717340.680 7  21909875.289                    21909884.141
 121621097.673 7  94769744.38244  23143727.414                    23143738.402
 110197379.478 8  85868196.74146  20969849.820                    20969858.988
 118922676.838 7  92667091.703 7  22630224.383                    22630235.168
 120001332.334 7  93507614.979 6  22835494.078                    22835503.344
 111389689.320 8  86797278.23546  21196736.039                    21196745.445
 108562973.933 8  84594655.51446  20658830.984                    20658837.844
 11  8 19  0  7  0.0000000  0  8G30G12G09G10G05G17G04G02
 127915981.363 6  99674867.10752  24341610.148                    24341621.297
 115063174.887 7  89659661.100 7  21895788.797                    21895797.621
 121690987.020 7  94824203.53044  23157026.773                    23157038.379
 110175202.446 8  85850915.96546  20965629.414                    20965639.121
 118823867.197 7  92590097.288 7  22611421.508                    22611432.020
 120048505.049 7  93544372.902 6  22844470.711                    22844480.324
 111460169.622 8  86852197.95446  21210148.227                    21210157.547
 108551795.409 8  84585945.00046  20656703.695                    20656710.492
 11  8 19  0  7 30.0000000  0  8G30G12G09G10G05G17G04G02
 127810609.498 6  99592759.14542  24321558.945                    24321570.145
 114989491.273 8  89602245.342 7  21881767.438                    21881776.117
 121761164.618 7  94878887.30944  23170381.164                    23170392.148
 110153627.975 8  85834104.70846  20961523.805                    20961533.625
 118725256.235 7  92513257.690 7  22592656.508                    22592667.188
 120095811.446 7  93581235.000 6  22853472.266                    22853481.691
 111530862.788 8  86907283.53246  21223600.406                    21223609.754
 108540942.669 8  84577488.33646  20654638.523                    20654645.063
 11  8 19  0  8  0.0000000  0  8G30G12G09G10G05G17G04G02
 127705407.769 6  99510783.79643  24301540.016                    24301550.629
 114916149.027 7  89545095.574 7  21867810.539                    21867820.027
 121831627.465 7  94933793.37744  23183790.219                    23183801.387
 110132657.554 8  85817764.15246  20957533.461                    20957542.750
 118626847.002 7  92436575.283 7  22573929.461                    22573940.367
 120143252.226 7  93618201.819 6  22862500.656                    22862510.105
 111601766.934 8  86962533.50046  21237093.211                    21237102.609
 108530414.928 8  84569284.91846  20652635.203                    20652642.066
 11  8 19  0  8 30.0000000  0  8G30G12G09G10G05G17G04G02
 127600378.928 6  99428943.16143  24281553.367                    24281564.430
 114843151.265 7  89488214.257 7  21853919.836                    21853928.539
 121902372.233 7  94988919.09644  23197252.766                    23197263.148
 110112292.222 8  85801895.08146  20953658.539                    20953667.551
 118528642.640 7  92360052.496 7  22555242.039                    22555252.426
 120190827.795 7  93655273.662 6  22871553.969                    22871563.242
 111672879.359 8  87017945.76846  21250625.719                    21250634.727
 108520211.231 8  84561333.99046  20650693.430                    20650700.383
 11  8 19  0  9  0.0000000  0  8G30G12G09G10G05G17G04G02
 127495525.782 6  99347239.49443  24261600.156                    24261611.539
 114770499.856 7  89431602.810 7  21840094.688                    21840103.320
 121973395.536 6  95044261.89144  23210767.375                    23210779.094
 110092533.068 8  85786498.36946  20949897.961                    20949907.402
 118430645.999 7  92283691.584 7  22536593.805                    22536604.262
 120238538.978 7  93692451.171 6  22880633.070                    22880642.039
 111744198.192 8  87073518.86345  21264197.039                    21264206.664
 108510330.664 8  84553634.87746  20648813.344                    20648819.992
 11  8 19  0  9 30.0000000  0  8G30G12G09G10G05G17G04G02
 127390851.400 6  99265675.10443  24241681.242                    24241692.926
 114698197.718 7  89375263.519 7  21826335.805                    21826344.828
 122044694.087 7  95099819.13044  23224335.516                    23224346.676
 110073381.745 8  85771575.28846  20946253.680                    20946263.063
 118332860.536 7  92207495.219 7  22517985.938                    22517996.234
 120286386.549 7  93729734.945 6  22889737.805                    22889747.582
 111815721.260 8  87129251.11146  21277807.461                    21277816.699
 108500772.766 8  84546187.16746  20646994.594                    20647001.254
 11  8 19  0 10  0.0000000  0  8G30G12G09G10G05G17G04G02
 127286358.210 6  99184251.93643  24221797.523                    24221808.016
 114626247.236 7  89319198.239 7  21812644.094                    21812652.973
 122116264.384 7  95155588.12244  23237954.953                    23237966.555
 110054839.560 8  85757126.85546  20942724.969                    20942734.977
 118235288.911 7  92131465.484 7  22499418.320                    22499428.453
 120334371.284 7  93767125.617 6  22898869.188                    22898878.863
 111887446.224 8  87185140.67846  21291456.133                    21291465.223
 108491536.294 8  84538989.93946  20645236.773                    20645243.684
 11  8 19  0 10 30.0000000  0  8G30G12G09G10G05G17G04G02
 127182048.710 6  99102971.85844  24201947.656                    24201958.316
 114554650.765 8  89263408.812 7  21799019.844                    21799028.691
 122188102.684 7  95211565.95344  23251625.250                    23251636.734
 110036906.928 8  85743153.41746  20939312.641                    20939322.305
 118137933.866 7  92055604.521 7  22480891.828                    22480902.598
 120382493.503 7  93804623.417 6  22908026.836                    22908036.273
 111959370.734 8  87241185.73446  21305142.781                    21305152.523
 108482619.675 8  84532041.93146  20643540.000                    20643546.719
 11  8 19  0 11  0.0000000  0  9G30G12G09G10G05G17G25G04G02
 127077926.048 6  99021837.42444  24182133.984                    24182144.699
 114483411.133 8  89207897.440 7  21785463.195                    21785472.230
 122260206.030 7  95267750.28544  23265346.617                    23265357.246
 110019585.451 8  85729656.19346  20936016.359                    20936025.484
 118040798.818 7  91979914.983 7  22462408.219                    22462418.117
 120430753.804 7  93842228.826 6  22917210.422                    22917219.781
 129663340.24316                  24674120.805
 112031492.609 8  87297384.58946  21318867.352                    21318877.000
 108474022.518 8  84525342.86546  20641903.859                    20641910.531
 11  8 19  0 11 30.0000000  0  9G30G12G09G10G05G17G25G04G02
 126973993.054 6  98940850.78243  24162355.406                    24162367.520
 114412531.459 8  89152666.563 7  21771975.422                    21771983.965
 122332570.850 7  95324138.40444  23279116.797                    23279127.945
 110002876.120 8  85716635.97546  20932836.813                    20932845.973
 117943886.600 7  91904399.085 7  22443966.148                    22443976.387
 120479153.202 7  93879942.591 6  22926420.344                    22926430.133
 129560029.343 6 100955919.94515  24654461.469                    24654474.102
 112103810.076 8  87353735.85946  21332629.055                    21332638.223
 108465744.150 8  84518892.19946  20640328.719                    20640335.488
 11  8 19  0 12  0.0000000  0  9G30G12G09G10G05G17G25G04G02
 126870252.122 6  98860013.75044  24142614.195                    24142625.445
 114342013.137 8  89097717.250 7  21758556.000                    21758564.992
 122405193.733 7  95380727.59444  23292936.023                    23292947.559
 109986779.693 8  85704093.33746  20929773.680                    20929782.859
 117847199.876 7  91829058.896 7  22425567.039                    22425576.984
 120527691.988 7  93917764.987 7  22935657.133                    22935667.176
 129456821.957 6 100875498.663 6  24634822.094                    24634835.039
 112176320.475 8  87410237.45146  21346427.227                    21346436.801
 108457782.824 8  84512688.58446  20638814.031                    20638820.121
 11  8 19  0 12 30.0000000  0  9G30G12G09G10G05G17G25G04G02
 126766706.295 6  98779328.79843  24122910.102                    24122922.055
 114271858.944 8  89043051.682 7  21745206.000                    21745214.863
 122478071.553 7  95437515.44544  23306804.789                    23306815.824
 109971297.563 8  85692029.37346  20926827.336                    20926836.926
 117750741.947 7  91753896.981 7  22407211.461                    22407221.691
 120576370.920 7  93955696.584 7  22944920.227                    22944930.355
 129353720.396 6 100795159.887 6  24615201.953                    24615215.730
 112249021.514 8  87466887.59446  21360261.859                    21360271.051
 108450138.100 8  84506731.66346  20637359.031                    20637365.824
 11  8 19  0 13  0.0000000  0  9G30G12G09G10G05G17G25G04G02
 126663358.233 6  98698797.88543  24103243.219                    24103255.023
 114202071.649 7  88988671.998 7  21731926.313                    21731934.719
 122551200.737 7  95494499.14544  23320720.633                    23320731.445
 109956430.580 8  85680444.73646  20923998.734                    20924007.984
 117654515.792 7  91678915.675 7  22388900.250                    22388910.074
 120625190.663 7  93993737.902 7  22954210.914                    22954220.203
 129250726.808 6 100714905.247 6  24595602.734                    24595617.195
 112321911.236 8  87523684.76946  21374132.289                    21374141.402
 108442808.777 8  84501020.51446  20635964.242                    20635970.859
 11  8 19  0 13 30.0000000  0  9G30G12G09G10G05G17G25G04G02
 126560211.074 6  98618423.57643  24083614.844                    24083626.840
 114132654.135 8  88934580.452 7  21718716.727                    21718724.820
 122624578.202 6  95551676.32844  23334684.219                    23334694.508
 109942179.989 8  85669340.39746  20921286.641                    20921296.047
 117558524.460 7  91604117.339 7  22370633.617                    22370643.777
 120674151.672 7  94031889.285 7  22963527.453                    22963537.465
 129147844.082 6 100634736.992 6  24576025.086                    24576038.645
 112394987.518 8  87580627.31546  21388038.344                    21388047.512
 108435794.150 8  84495554.58346  20634629.203                    20634635.699
 11  8 19  0 14  0.0000000  0  9G30G12G09G10G05G17G25G04G02
 126457267.256 6  98538207.66042  24064024.953                    24064037.324
 114063608.589 7  88880778.748 7  21705577.828                    21705586.184
 122698200.204 6  95609044.03944  23348694.188                    23348704.746
 109928546.595 8  85658716.99546  20918692.383                    20918701.527
 117462771.138 7  91529504.460 7  22352412.172                    22352422.703
 120723254.670 7  94070151.319 6  22972871.516                    22972881.449
 129045074.568 7 100554656.950 6  24556469.188                    24556482.770
 112468248.222 8  87637713.56445  21401979.180                    21401988.516
 108429092.990 8  84490332.91446  20633354.305                    20633360.594
 11  8 19  0 14 30.0000000  0  9G30G12G09G10G05G17G25G04G02
 126354529.532 6  98458152.32242  24044475.180                    24044486.660
 113994937.401 7  88827268.748 7  21692509.906                    21692518.523
 122772063.245 6  95666599.60144  23362749.383                    23362760.828
 109915531.087 8  85648575.06346  20916215.289                    20916224.980
 117367258.276 7  91455078.960 7  22334236.672                    22334247.145
 120772500.270 7  94108524.460 7  22982242.727                    22982253.184
 128942420.489 6 100474666.845 6  24536934.477                    24536947.691
 112541691.015 8  87694941.71445  21415954.914                    21415964.027
 108422704.049 8  84485354.52746  20632138.234                    20632145.230
 11  8 19  0 15  0.0000000  0  9G30G12G09G10G05G17G25G04G02
 126252000.676 6  98378259.69443  24024965.000                    24024975.930
 113926642.920 8  88774052.290 7  21679513.898                    21679521.914
 122846164.039 7  95724340.41844  23376850.945                    23376861.430
 109903134.037 8  85638915.03746  20913856.266                    20913865.766
 117271988.732 7  91380843.058 7  22316107.484                    22316117.691
 120821889.027 7  94147009.152 7  22991641.461                    22991651.473
 128839884.270 7 100394768.572 6  24517421.891                    24517435.844
 112615313.487 8  87752309.84445  21429964.852                    21429974.285
 108416626.191 8  84480618.54946  20630981.750                    20630988.492
 11  8 19  0 15 30.0000000  0  9G30G12G09G10G05G17G25G04G02
 126149683.776 6  98298532.24143  24005494.203                    24005504.961
 113858727.891 8  88721131.512 7  21666590.133                    21666598.480
 122920499.386 7  95782263.99944  23390995.992                    23391007.453
 109891356.817 8  85629737.99346  20911615.219                    20911624.324
 117176966.042 7  91306799.493 7  22298025.414                    22298035.129
 120871421.703 7  94185605.999 7  23001067.125                    23001076.906
 128737468.701 7 100314964.291 6  24497933.164                    24497946.617
 112689113.870 8  87809816.62446  21444008.844                    21444017.910
 108410859.025 8  84476124.66646  20629884.242                    20629891.012
 11  8 19  0 16  0.0000000  0  9G30G12G09G10G05G17G25G04G02
 126047581.713 6  98218972.21543  23986064.703                    23986075.660
 113791194.994 7  88668508.508 7  21653739.000                    21653747.348
 122995065.685 7  95840367.52444  23405185.992                    23405197.445
 109880200.384 8  85621044.69646  20909492.313                    20909501.379
 117082193.042 7  91232950.498 7  22279990.680                    22280000.863
 120921098.846 7  94224315.392 7  23010520.500                    23010530.574
 128635176.346 7 100235256.031 6  24478467.477                    24478480.617
 112763090.084 8  87867460.40845  21458085.570                    21458095.313
 108405401.325 8  84471871.92646  20628845.703                    20628852.375
 11  8 19  0 16 30.0000000  0  9G30G12G09G10G05G17G25G04G02
 125945697.003 6  98139581.52343  23966677.016                    23966687.762
 113724046.257 7  88616184.851 7  21640961.289                    21640969.418
 123069859.528 7  95898648.36144  23419418.781                    23419430.020
 109869665.032 8  85612835.34946  20907487.461                    20907496.703
 116987672.256 7  91159298.032 7  22262003.727                    22262013.563
 120970921.130 7  94263137.874 7  23020000.977                    23020011.277
 128533009.436 6 100155645.532 6  24459025.758                    24459038.691
 112837239.714 8  87925239.31545  21472196.297                    21472205.434
 108400251.825 8  84467859.33146  20627865.773                    20627872.719
 11  8 19  0 17  0.0000000  0  9G30G12G09G10G05G17G25G04G02
 125844032.595 6  98060362.52643  23947331.305                    23947341.715
 113657284.499 8  88564162.730 7  21628256.273                    21628264.809
 123144877.433 7  95957103.82144  23433694.070                    23433705.781
 109859751.584 8  85605110.59846  20905600.711                    20905609.945
 116893406.840 7  91085844.560 7  22244065.484                    22244075.422
 121020889.105 7  94302073.878 7  23029510.234                    23029519.664
 128430970.629 6 100076134.817 6  24439608.367                    24439622.172
 112911560.589 8  87983151.67245  21486339.055                    21486348.137
 108395409.515 8  84464086.11746  20626944.414                    20626950.824
 11  8 19  0 17 30.0000000  0  9G30G12G09G10G05G17G25G04G02
 125742591.341 6  97981317.42143  23928027.469                    23928037.941
 113590912.268 7  88512444.132 7  21615626.258                    21615635.031
 123220116.125 7  96015731.29144  23448011.578                    23448022.863
 109850461.059 8  85597871.24546  20903833.008                    20903841.844
 116799399.900 7  91012592.490 7  22226176.547                    22226186.883
 121071003.388 7  94341123.922 7  23039046.500                    23039056.629
 128329062.474 6  99996725.894 6  24420215.344                    24420229.449
 112986051.042 8  88041196.16445  21500513.984                    21500523.270
 108390873.637 8  84460551.68146  20626081.141                    20626087.969
 11  8 19  0 18  0.0000000  0  9G30G12G09G10G05G17G25G04G02
 125641376.093 7  97902448.41543  23908766.703                    23908777.559
 113524931.658 8  88461030.686 7  21603070.500                    21603079.074
 123295572.233 7  96074528.16844  23462370.672                    23462381.801
 109841794.314 8  85591117.94746  20902183.703                    20902193.156
 116705654.554 7  90939544.257 7  22208337.438                    22208347.180
 121121264.848 7  94380288.664 7  23048611.070                    23048620.629
 128227287.590 6  99917420.836 6  24400848.977                    24400861.680
 113060708.461 8  88099370.75445  21514720.445                    21514729.758
 108386643.229 8  84457255.27646  20625276.156                    20625282.676
 11  8 19  0 18 30.0000000  0  9G30G12G09G10G05G17G25G04G02
 125540389.473 6  97823757.57743  23889549.719                    23889560.410
 113459345.279 7  88409924.447 7  21590590.016                    21590598.547
 123371242.106 7  96133491.64244  23476770.352                    23476781.535
 109833751.747 8  85584851.03046  20900652.969                    20900662.617
 116612173.321 7  90866701.832 7  22190547.992                    22190558.598
 121171673.754 7  94419568.289 7  23058203.414                    23058213.273
 128125648.231 6  99838221.347 6  24381507.094                    24381520.715
 113135530.892 8  88157673.94145  21528958.648                    21528968.359
 108382716.563 8  84454195.54946  20624528.984                    20624535.766
 11  8 19  0 19  0.0000000  0  9G30G12G09G10G05G17G25G04G02
 125439634.489 6  97745247.21643  23870376.656                    23870387.109
 113394155.933 7  88359127.589 7  21578185.031                    21578193.664
 123447122.605 7  96192619.22044  23491209.063                    23491221.316
 109826333.695 7  85579070.74746  20899241.727                    20899250.891
 116518959.411 7  90794067.706 7  22172810.180                    22172820.473
 121222230.819 7  94458963.347 6  23067824.367                    23067833.910
 128024147.182 6  99759129.634 6  24362192.305                    24362205.992
 113210516.257 8  88216104.08345  21543228.313                    21543237.793
 108379093.097 8  84451372.09146  20623839.703                    20623846.012
 11  8 19  0 19 30.0000000  0  9G30G12G09G10G05G17G25G04G02
 125339113.799 6  97666919.44743  23851247.500                    23851258.746
 113329365.514 8  88308641.580 7  21565855.641                    21565864.082
 123523210.267 7  96251908.23044  23505689.070                    23505700.172
 109819540.864 7  85573777.64946  20897948.828                    20897958.336
 116426015.640 7  90721644.087 7  22155123.883                    22155133.891
 121272936.490 7  94498474.169 6  23077472.938                    23077482.504
 127922786.810 6  99680147.530 6  24342903.289                    24342917.422
 113285662.409 8  88274659.50345  21557528.234                    21557537.586
 108375771.291 8  84448783.68646  20623207.188                    20623214.121
 11  8 19  0 20  0.0000000  0  9G30G12G09G10G05G17G25G04G02
 125238830.504 6  97588776.66643  23832164.453                    23832175.488
 113264976.911 7  88258468.675 7  21553602.797                    21553611.367
 123599501.882 7  96311356.14944  23520206.594                    23520218.160
 109813373.902 7  85568972.24646  20896775.289                    20896784.797
 116333345.185 7  90649433.426 7  22137489.438                    22137498.848
 121323791.524 7  94538101.390 6  23087150.742                    23087160.762
 127821569.867 6  99601277.168 5  24323642.594                    24323655.957
 113360967.351 8  88333338.66145  21571857.977                    21571867.672
 108372750.776 8  84446430.04146  20622632.664                    20622639.281
 11  8 19  0 20 30.0000000  0  9G30G12G09G10G05G17G25G04G02
 125138786.948 6  97510820.67843  23813127.500                    23813138.195
 113200991.830 7  88208610.190 7  21541426.719                    21541435.230
 123675993.535 7  96370959.95344  23534762.664                    23534774.387
 109807833.266 8  85564654.88546  20895720.758                    20895730.156
 116240950.520 7  90577437.683 7  22119906.734                    22119916.340
 121374796.397 7  94577845.396 6  23096856.492                    23096866.555
 127720498.613 6  99522520.331 6  24304410.172                    24304422.895
 113436428.651 8  88392139.64245  21586217.969                    21586227.637
 108370029.693 8  84444309.73346  20622114.344                    20622120.879
 11  8 19  0 21  0.0000000  0  9G30G12G09G10G05G17G25G04G02
 125038986.065 6  97433053.80843  23794135.336                    23794146.508
 113137412.751 7  88159068.075 7  21529327.984                    21529336.590
 123752681.963 7  96430717.10144  23549356.055                    23549367.465
 109802919.593 8  85560826.07646  20894786.094                    20894795.371
 116148834.488 7  90505659.039 7  22102377.672                    22102387.047
 121425951.671 7  94617706.611 6  23106590.906                    23106601.137
 127619575.668 7  99443879.064 6  24285204.953                    24285218.484
 113512044.539 8  88451061.09645  21600607.164                    21600616.520
 108367607.076 8  84442421.99146  20621653.313                    20621660.195
 11  8 19  0 21 30.0000000  0  9G30G12G09G10G05G17G25G04G02
 124939430.906 6  97355478.39243  23775190.516                    23775201.637
 113074242.596 8  88109844.591 7  21517307.172                    21517315.836
 123829563.763 7  96490624.91244  23563986.055                    23563997.609
 109798633.383 7  85557486.19546  20893970.242                    20893979.480
 116057000.502 7  90434100.186 7  22084902.203                    22084912.297
 121477258.093 7  94657685.617 6  23116354.141                    23116364.582
 127518803.655 7  99365355.429 6  24266028.906                    24266041.629
 113587812.887 8  88510101.34045  21615025.742                    21615035.105
 108365481.923 8  84440766.04246  20621249.133                    20621255.945
 11  8 19  0 22  0.0000000  0  9G30G12G09G10G05G17G25G04G02
 124840124.267 6  97278096.65444  23756293.484                    23756303.855
 113011483.495 7  88060941.410 7  21505364.164                    21505373.113
 123906635.730 7  96550680.94644  23578653.039                    23578664.309
 109794975.151 7  85554635.65446  20893274.320                    20893283.531
 115965451.137 7  90362763.108 7  22067481.078                    22067491.277
 121528716.204 7  94697782.834 6  23126145.914                    23126156.348
 127418185.171 7  99286951.415 6  24246881.852                    24246894.457
 113663731.447 8  88569258.63545  21629472.039                    21629481.480
 108363653.331 8  84439341.17446  20620900.984                    20620907.824
 11  8 19  0 22 30.0000000  0  9G30G12G09G10G05G17G25G04G02
 124741069.097 7  97200910.85643  23737443.828                    23737454.117
 112949138.275 8  88012360.753 7  21493500.453                    21493509.039
 123983894.390 7  96610882.42244  23593354.625                    23593366.121
 109791945.562 8  85552274.96546  20892697.898                    20892706.969
 115874189.482 7  90291650.217 7  22050114.320                    22050123.840
 121580326.663 7  94737998.744 6  23135967.367                    23135977.453
 127317722.932 7  99208669.131 6  24227764.469                    24227777.266
 113739798.673 8  88628531.77645  21643947.438                    21643956.820
 108362120.221 8  84438146.55846  20620609.438                    20620616.414
 11  8 19  0 23  0.0000000  0  9G30G12G09G10G05G17G25G04G02
 124642268.100 7  97123923.08343  23718642.328                    23718652.430
 112887208.855 8  87964104.080 7  21481715.648                    21481724.266
 124061336.183 7  96671226.62244  23608091.266                    23608103.016
 109789544.413 8  85550403.95946  20892240.945                    20892250.035
 115783218.374 7  90220763.717 7  22032803.094                    22032812.422
 121632090.018 7  94778333.782 6  23145817.172                    23145827.418
 127217419.402 7  99130510.534 6  24208677.414                    24208690.305
 113816012.088 8  88687918.82545  21658450.367                    21658459.852
 108360881.409 8  84437181.25746  20620373.727                    20620380.215
 11  8 19  0 23 30.0000000  0  9G30G12G09G10G05G17G25G04G02
 124543724.381 7  97047135.82043  23699890.203                    23699900.176
 112825697.998 8  87916173.567 7  21470010.813                    21470018.738
 124138957.917 7  96731711.00644  23622862.383                    23622874.316
 109787772.811 7  85549023.51646  20891903.609                    20891912.516
 115692541.050 7  90150106.129 7  22015547.336                    22015557.445
 121684006.865 7  94818788.422 6  23155697.422                    23155706.984
 127117277.415 6  99052477.835 6  24189620.570                    24189634.137
 113892370.084 8  88747418.53445  21672980.773                    21672990.551
 108359936.204 8  84436444.74446  20620194.117                    20620200.566
 11  8 19  0 24  0.0000000  0  9G30G12G09G10G05G17G25G04G02
 124445440.402 7  96970550.93443  23681187.477                    23681197.766
 112764607.716 8  87868570.772 7  21458385.773                    21458394.301
 124216756.083 7  96792332.89544  23637666.727                    23637678.793
 109786630.385 8  85548133.33346  20891685.961                    20891695.527
 115602159.697 7  90079679.177 7  21998348.406                    21998358.695
 121736077.716 7  94859363.051 6  23165605.758                    23165615.949
 127017299.195 7  98974572.770 6  24170595.508                    24170608.613
 113968870.225 8  88807029.01045  21687538.750                    21687548.141
 108359282.686 8  84435935.52946  20620069.828                    20620076.023
 11  8 19  0 24 30.0000000  0  9G30G12G09G10G05G17G25G04G02
 124347419.345 7  96894170.95143  23662534.898                    23662544.863
 112703940.738 8  87821297.819 7  21446840.773                    21446849.738
 124294727.487 7  96853089.78544  23652504.336                    23652515.863
 109786118.055 8  85547734.14346  20891588.828                    20891597.930
 115512077.877 7  90009485.620 7  21981206.383                    21981216.496
 121788303.280 7  94900058.213 6  23175544.516                    23175554.059
 126917487.663 6  98896797.607 7  24151601.875                    24151615.320
 114045510.789 8  88866748.89545  21702122.695                    21702132.359
 108358920.428 8  84435653.26646  20620000.250                    20620006.996
 11  8 19  0 25  0.0000000  0  9G30G12G09G10G05G17G25G04G02
 124249663.723 7  96817997.80643  23643932.258                    23643942.504
 112643698.837 8  87774356.094 7  21435377.305                    21435386.113
 124372868.569 7  96913978.88044  23667374.297                    23667385.262
 109786235.735 8  85547825.86046  20891611.195                    20891620.086
 115422297.993 7  89939527.342 7  21964121.469                    21964131.363
 121840683.862 7  94940874.214 6  23185511.945                    23185521.762
 126817845.123 6  98819154.136 6  24132640.836                    24132654.023
 114122289.613 8  88926576.52245  21716733.156                    21716742.648
 108358847.740 8  84435596.64846  20619986.781                    20619993.754
 11  8 19  0 25 30.0000000  0  9G30G12G09G10G05G17G25G04G02
 124152176.441 7  96742033.78544  23625380.836                    23625391.719
 112583884.700 8  87727747.696 7  21423995.227                    21424003.605
 124451175.706 7  96974997.36644  23682275.867                    23682287.168
 109786983.522 8  85548408.57646  20891753.414                    20891762.504
 115332823.286 7  89869806.851 7  21947095.492                    21947104.977
 121893220.367 7  94981811.745 6  23195509.492                    23195519.277
 126718374.224 6  98741644.410 6  24113711.734                    24113725.074
 114199204.663 8  88986510.29445  21731369.922                    21731379.516
 108359063.654 8  84435764.90946  20620028.008                    20620034.402
 11  8 19  0 26  0.0000000  0  9G30G12G09G10G05G17G25G04G02
 124054960.501 7  96666281.20344  23606881.063                    23606892.266
 112524500.526 8  87681474.339 7  21412694.883                    21412703.211
 124529645.659 6  97036142.69644  23697207.930                    23697219.711
 109788361.953 7  85549482.69646  20892015.625                    20892024.887
 115243656.553 7  89800326.357 7  21930127.258                    21930137.559
 121945913.164 7  95022871.037 6  23205537.031                    23205546.945
 126619077.701 6  98664270.553 6  24094815.922                    24094829.730
 114276253.920 8  89046548.63645  21746031.633                    21746041.094
 108359567.092 8  84436157.20946  20620123.664                    20620130.164
 11  8 19  0 26 30.0000000  0  9G30G12G09G10G05G17G25G04G02
 123958018.791 6  96590742.30144  23588433.680                    23588444.438
 112465548.796 8  87635537.948 7  21401476.594                    21401484.945
 124608275.035 6  97097412.26243  23712170.281                    23712182.426
 109790371.117 8  85551048.28846  20892397.688                    20892406.898
 115154800.779 7  89731088.176 7  21913218.648                    21913228.309
 121998763.084 7  95064052.751 6  23215593.680                    23215604.113
 126519958.237 6  98587034.666 6  24075954.250                    24075967.609
 114353435.589 8  89106690.16045  21760718.844                    21760728.730
 108360357.335 8  84436772.99246  20620274.102                    20620280.539
 11  8 19  0 27  0.0000000  0  9G30G12G09G10G05G17G25G04G02
 123861354.046 6  96515419.25244  23570038.859                    23570050.035
 112407032.331 8  87589940.724 7  21390341.398                    21390349.543
 124687060.840 6  97158803.69044  23727162.531                    23727174.344
 109793011.066 7  85553105.40146  20892900.469                    20892909.168
 115066258.705 7  89662094.416 7  21896369.500                    21896379.105
 122051770.561 7  95105357.208 6  23225680.906                    23225691.371
 126421018.365 6  98509938.747 6  24057126.555                    24057140.066
 114430747.618 8  89166933.27245  21775431.289                    21775440.688
 108361432.889 8  84437611.09246  20620478.953                    20620485.473
 11  8 19  0 27 30.0000000  0  9G30G12G09G10G05G17G25G04G02
 123764969.053 7  96440314.15943  23551696.641                    23551708.289
 112348952.639 8  87544683.842 7  21379289.172                    21379297.441
 124765999.203 6  97220314.02744  23742184.031                    23742196.609
 109796282.246 7  85555654.38946  20893522.461                    20893531.594
 114978033.181 7  89593347.323 7  21879580.891                    21879590.813
 122104936.037 7  95146784.799 6  23235798.180                    23235808.371
 126322260.696 7  98432984.786 6  24038333.234                    24038347.133
 114508188.096 8  89227276.47045  21790167.227                    21790176.426
 108362792.483 8  84438670.53746  20620737.461                    20620744.133
 11  8 19  0 28  0.0000000  0  9G30G12G09G10G05G17G25G04G02
 123668866.802 6  96365429.40844  23533409.797                    23533420.961
 112291312.134 8  87499769.175 7  21368320.289                    21368328.969
 124845086.909 6  97281940.74344  23757234.383                    23757246.375
 109800184.694 8  85558695.27346  20894265.266                    20894274.398
 114890126.888 7  89524848.985 7  21862852.922                    21862862.074
 122158260.062 7  95188335.947 7  23245945.156                    23245955.238
 126223687.919 7  98356174.912 6  24019576.250                    24019588.840
 114585755.020 8  89287718.20745  21804928.289                    21804937.301
 108364435.286 8  84439950.64846  20621050.266                    20621056.453
 11  8 19  0 28 30.0000000  0  9G30G12G09G10G05G17G25G04G02
 123573050.081 6  96290767.14544  23515176.742                    23515186.801
 112234113.317 8  87455198.691 7  21357435.609                    21357444.227
 124924320.523 6  97343681.15043  23772311.984                    23772323.566
 109804718.493 8  85562228.11546  20895128.055                    20895137.086
 114802542.776 7  89456601.691 7  21846186.016                    21846195.539
 122211743.413 7  95230011.217 6  23256123.211                    23256133.090
 126125302.625 7  98279511.137 6  24000853.672                    24000866.922
 114663446.411 8  89348256.92045  21819712.086                    21819721.410
 108366359.956 8  84441450.39846  20621416.313                    20621422.746
 11  8 19  0 29  0.0000000  0  9G30G12G09G10G05G17G25G04G02
 123477521.275 6  96216329.24344  23496997.398                    23497008.008
 112177357.671 8  87410973.523 7  21346635.211                    21346643.684
 125003696.580 7  97405532.54343  23787417.055                    23787428.914
 109809883.233 7  85566252.60546  20896111.102                    20896119.734
 114715283.835 7  89388607.775 7  21829581.180                    21829590.832
 122265386.244 7  95271810.762 7  23266330.703                    23266340.832
 126027107.135 7  98202995.228 6  23982168.211                    23982180.027
 114741260.090 8  89408890.90845  21834519.531                    21834529.094
 108368565.054 8  84443168.67246  20621836.117                    20621842.547
 11  8 19  0 29 30.0000000  0  9G30G12G09G10G05G17G25G04G02
 123382283.818 7  96142118.35643  23478874.531                    23478885.355
 112121048.453 7  87367096.236 7  21335919.922                    21335928.629
 125083212.060 6  97467492.57844  23802548.625                    23802560.184
 109815679.306 7  85570769.06046  20897213.828                    20897222.945
 114628352.549 7  89320869.179 7  21813038.867                    21813048.406
 122319189.266 7  95313735.139 6  23276569.359                    23276579.305
 125929104.439 7  98126629.599 6  23963518.164                    23963530.965
 114819194.329 7  89469618.86545  21849350.117                    21849359.680
 108371049.759 8  84445104.81246  20622308.820                    20622315.457
 11  8 19  0 30  0.0000000  0  9G30G12G09G10G05G17G25G04G02
 123287340.308 6  96068136.51044  23460807.031                    23460817.914
 112065187.313 8  87323568.089 7  21325290.055                    21325298.441
 125162863.184 7  97529558.29743  23817704.906                    23817716.883
 109822106.580 7  85575777.33446  20898436.859                    20898446.125
 114541751.750 7  89253388.105 7  21796559.148                    21796568.508
 122373153.327 7  95355785.026 6  23286837.828                    23286848.535
 125831297.050 7  98050416.143 6  23944906.234                    23944919.129
 114897247.362 8  89530439.38245  21864203.203                    21864212.461
 108373812.915 8  84447257.93546  20622834.742                    20622840.926
 11  8 19  0 30 30.0000000  0  9G30G12G09G10G05G17G25G04G02
 123192693.459 7  95994385.82544  23442796.406                    23442806.801
 112009776.542 7  87280390.891 7  21314745.648                    21314753.754
 125242646.840 7  97591727.31843  23832887.820                    23832899.742
 109829164.846 7  85581277.30446  20899780.180                    20899788.879
 114455484.180 7  89186166.691 7  21780142.922                    21780152.379
 122427278.404 7  95397960.370 7  23297137.922                    23297148.262
 125733687.547 7  97974356.887 6  23926332.086                    23926343.918
 114975417.089 8  89591350.83545  21879078.492                    21879087.781
 108376852.969 8  84449626.81446  20623413.234                    20623419.289
 11  8 19  0 31  0.0000000  0  9G30G12G09G10G05G17G25G04G02
 123098346.351 7  95920868.67944  23424843.172                    23424853.059
 111954818.576 8  87237566.519 7  21304287.383                    21304295.813
 125322559.589 7  97653996.91143  23848095.070                    23848106.469
 109836854.408 8  85587269.17946  20901243.492                    20901252.586
 114369553.241 7  89119207.582 7  21763790.773                    21763800.297
 122481565.241 7  95440261.757 6  23307468.586                    23307478.773
 125636278.652 7  97898453.955 6  23907795.844                    23907807.582
 115053701.737 8  89652351.84245  21893975.320                    21893985.090
 108380169.217 8  84452210.91446  20624044.156                    20624050.816
 11  8 19  0 31 30.0000000  0  9G30G12G09G10G05G17G25G04G02
 123004301.604 7  95847587.13544  23406946.758                    23406956.777
 111900315.530 8  87195096.636 7  21293915.750                    21293924.105
 125402597.956 7  97716364.41744  23863326.398                    23863337.445
 109845174.941 8  85593752.71746  20902826.789                    20902835.766
 114283961.632 7  89052512.891 7  21747502.891                    21747512.738
 122536014.456 7  95482689.658 7  23317829.656                    23317839.988
 125539072.914 7  97822709.362 6  23889297.477                    23889310.797
 115132099.182 8  89713440.74045  21908893.648                    21908902.926
 108383760.091 8  84455009.00146  20624727.609                    20624733.691
 11  8 19  0 32  0.0000000  0  9G30G12G09G10G05G17G25G04G02
 122910562.282 7  95774543.56144  23389109.133                    23389118.594
 111846269.740 7  87152983.058 7  21283631.328                    21283639.703
 125482758.793 7  97778827.29843  23878580.195                    23878591.578
 109854126.349 8  85600727.84646  20904530.008                    20904539.059
 114198711.683 7  88986084.421 7  21731280.328                    21731289.867
 122590626.760 7  95525244.639 7  23328222.063                    23328232.297
 125442073.214 7  97747125.311 6  23870839.188                    23870851.887
 115210607.961 8  89774616.40445  21923833.617                    21923843.055
 108387624.889 8  84458020.53546  20625462.891                    20625469.430
 11  8 19  0 32 30.0000000  0  9G30G12G09G10G05G17G25G04G02
 122817131.160 7  95701740.15543  23371329.438                    23371339.289
 111792683.073 7  87111227.239 7  21273434.180                    21273442.570
 125563038.578 7  97841382.87244  23893856.977                    23893868.438
 109863708.587 8  85608194.53946  20906353.391                    20906362.324
 114113806.487 7  88919924.580 7  21715123.391                    21715133.121
 122645402.543 7  95567926.995 6  23338645.461                    23338656.152
 125345282.123 7  97671703.824 6  23852419.875                    23852433.301
 115289225.842 8  89835877.06945  21938794.133                    21938803.828
 108391762.317 8  84461244.50446  20626250.227                    20626256.770
 11  8 19  0 33  0.0000000  0  9G30G12G09G10G05G17G25G04G02
 122724010.960 6  95629178.99743  23353608.344                    23353618.918
 111739557.915 8  87069831.040 7  21263324.711                    21263332.949
 125643433.983 7  97904028.52744  23909156.078                    23909167.434
 109873921.118 8  85616152.36346  20908296.867                    20908305.969
 114029248.509 7  88854035.313 7  21699032.555                    21699042.000
 122700342.586 7  95610737.361 6  23349100.313                    23349110.375
 125248702.171 7  97596446.869 7  23834041.500                    23834054.570
 115367951.290 8  89897221.54945  21953775.539                    21953785.012
 108396171.165 8  84464679.97546  20627088.977                    20627095.449
 11  8 19  0 33 30.0000000  0  9G30G12G09G10G05G17G25G04G02
 122631204.618 7  95556862.42044  23335948.406                    23335958.641
 111686896.436 8  87028796.151 7  21253303.305                    21253311.625
 125723941.823 7  97966761.79344  23924476.094                    23924487.664
 109884764.199 8  85624601.53746  20910360.336                    20910369.453
 113945040.764 7  88788418.950 7  21683008.414                    21683018.402
 122755446.907 7  95653675.733 6  23359586.609                    23359597.172
 125152336.126 7  97521356.594 7  23815703.141                    23815716.734
 115446782.159 7  89958648.18045  21968776.367                    21968785.949
 108400850.082 8  84468325.88346  20627979.031                    20627985.879
 11  8 19  0 34  0.0000000  0  9G30G12G09G10G05G17G25G04G02
 122538714.852 6  95484792.51044  23318348.133                    23318358.480
 111634700.502 7  86988124.030 7  21243370.906                    21243379.109
 125804558.378 7  98029579.75344  23939816.438                    23939828.863
 109896237.361 8  85633541.67446  20912543.320                    20912552.652
 113861185.940 7  88723077.580 7  21667051.094                    21667060.785
 122810716.263 7  95696742.691 6  23370104.227                    23370114.613
 125056186.496 7  97446434.927 7  23797406.227                    23797419.734
 115525716.771 8  90020155.64345  21983797.039                    21983806.836
 108405797.855 8  84472181.29846  20628921.156                    20628927.711
 11  8 19  0 34 30.0000000  0  9G30G12G09G10G05G17G25G04G02
 122446544.711 6  95412971.66544  23300808.750                    23300819.809
 111582972.850 7  86947816.800 7  21233527.477                    21233535.949
 125885280.863 7  98092480.25744  23955177.695                    23955190.266
 109908340.454 8  85642972.67746  20914846.367                    20914855.781
 113777687.082 7  88658013.588 7  21651161.680                    21651171.070
 122866151.129 7  95739938.642 6  23380653.438                    23380663.332
 124960256.292 7  97371684.220 6  23779151.641                    23779164.379
 115604753.276 8  90081742.51845  21998836.859                    21998846.852
 108411013.727 8  84476245.61346  20629913.609                    20629920.297
 11  8 19  0 35  0.0000000  0  9G30G12G09G10G05G17G25G04G02
 122354696.900 6  95341401.98144  23283330.750                    23283340.855
 111531715.115 8  86907875.746 7  21223773.398                    21223781.707
 125966105.664 6  98155460.48844  23970557.766                    23970570.707
 109921072.829 8  85652894.01146  20917269.383                    20917278.613
 113694546.484 7  88593228.761 7  21635340.930                    21635350.051
 122921751.920 7  95783263.889 6  23391233.367                    23391243.695
 124864547.905 7  97297106.341 6  23760938.820                    23760951.758
 115683889.962 7  90143407.44945  22013896.227                    22013906.242
 108416496.295 8  84480517.74146  20630956.555                    20630963.277
 11  8 19  0 35 30.0000000  0  9G30G12G09G10G05G17G25G04G02
 122263173.982 7  95270085.43244  23265914.742                    23265925.219
 111480929.303 7  86868302.415 7  21214109.172                    21214117.477
 126047029.382 7  98218517.77944  23985957.453                    23985969.457
 109934434.053 8  85663305.36646  20919811.688                    20919821.199
 113611766.910 7  88528725.245 7  21619588.008                    21619597.723
 122977519.179 7  95826718.821 6  23401845.297                    23401855.844
 124769063.846 7  97222703.259 6  23742769.258                    23742781.617
 115763124.664 7  90205148.77645  22028974.469                    22028984.129
 108422244.121 8  84484996.57646  20632050.609                    20632057.180
 11  8 19  0 36  0.0000000  0  9G30G12G09G10G05G17G25G04G02
 122171979.015 7  95199024.45144  23248560.703                    23248571.199
 111430617.717 8  86829098.621 7  21204535.148                    21204543.531
 126128048.661 7  98281649.56844  24001375.633                    24001387.020
 109948424.347 8  85674206.90046  20922473.922                    20922483.219
 113529351.135 7  88464505.214 7  21603904.883                    21603914.445
 123033453.430 7  95870303.884 6  23412489.234                    23412499.488
 124673806.983 7  97148477.167 6  23724642.148                    23724654.902
 115842455.723 8  90266965.16645  22044070.336                    22044080.238
 108428256.089 8  84489681.23046  20633194.750                    20633201.262
 11  8 19  0 36 30.0000000  0  9G30G12G09G10G05G17G25G04G02
 122081114.626 7  95128221.06144  23231269.719                    23231280.020
 111380782.049 8  86790265.663 7  21195051.453                    21195059.848
 126209160.101 6  98344853.15844  24016810.383                    24016822.434
 109963042.847 8  85685597.95846  20925255.969                    20925265.160
 113447301.733 7  88400570.673 7  21588291.563                    21588300.645
 123089555.161 7  95914019.465 6  23423165.602                    23423175.176
 124578779.765 7  97074430.011 6  23706559.227                    23706571.297
 115921881.301 7  90328855.19645  22059184.844                    22059194.328
 108434530.932 8  84494570.72146  20634388.656                    20634395.207
 11  8 19  0 37  0.0000000  0  9G30G12G09G10G05G17G25G04G02
 121990583.838 7  95057677.62244  23214042.320                    23214052.645
 111331424.795 8  86751805.490 7  21185659.445                    21185667.578
 126290360.733 7  98408126.22643  24032262.516                    24032274.539
 109978289.406 8  85697478.40946  20928157.461                    20928166.172
 113365621.758 7  88336923.979 7  21572748.258                    21572757.668
 123145824.819 7  95957865.921 6  23433872.945                    23433883.207
 124483985.135 7  97000564.101 6  23688520.211                    23688532.723
 116001399.690 7  90390817.55945  22074316.766                    22074326.160
 108441067.719 8  84499664.31646  20635632.453                    20635639.117
 11  8 19  0 37 30.0000000  0  9G30G12G09G10G05G17G25G04G02
 121900389.218 7  94987396.14044  23196878.539                    23196889.055
 111282547.508 8  86713719.317 7  21176358.313                    21176366.633
 126371646.861 7  98471465.91244  24047730.836                    24047743.277
 109994163.066 8  85709847.51546  20931178.031                    20931186.930
 113284313.569 7  88273566.996 7  21557275.820                    21557285.168
 123202262.969 7  96001843.662 6  23444613.656                    23444623.012
 124389425.427 7  96926881.228 6  23670526.914                    23670538.348
 116081008.843 7  90452850.64245  22089465.711                    22089475.484
 108447864.840 8  84504960.76346  20636925.867                    20636932.488
 11  8 19  0 38  0.0000000  0  9G30G12G09G10G05G17G25G04G02
 121810533.897 7  94917379.04444  23179779.898                    23179790.102
 111234152.703 8  86676009.109 7  21167149.289                    21167157.789
 126453015.275 7  98534869.73144  24063214.773                    24063227.324
 110010663.362 8  85722704.90446  20934317.781                    20934326.941
 113203380.170 8  88210502.071 7  21541874.719                    21541884.059
 123258869.989 7  96045952.968 6  23455385.219                    23455395.531
 124295103.755 7  96853383.830 6  23652577.227                    23652589.426
 116160707.499 7  90514953.46845  22104631.758                    22104641.059
 108454921.706 8  84510459.61346  20638268.602                    20638275.223
 11  8 19  0 38 30.0000000  0  9G30G12G09G10G05G17G25G04G02
 121721020.636 7  94847628.50244  23162746.297                    23162756.660
 111186242.584 8  86638676.573 7  21158032.117                    21158040.477
 126534462.905 6  98598335.30643  24078714.227                    24078726.039
 110027790.140 8  85736050.46546  20937577.094                    20937586.000
 113122824.227 7  88147731.252 7  21526545.391                    21526554.480
 123315646.354 7  96090194.225 6  23466189.500                    23466199.152
 124201022.679 7  96780073.920 6  23634674.172                    23634686.566
 116240493.743 7  90577124.54745  22119814.773                    22119824.480
 108462236.855 8  84516159.72146  20639660.953                    20639667.574
 11  8 19  0 39  0.0000000  0  9G30G12G09G10G05G17G25G04G02
 121631852.082 7  94778146.56444  23145777.969                    23145787.938
 111138818.831 8  86601723.025 7  21149007.813                    21149015.613
 126615986.495 6  98661860.02743  24094227.711                    24094239.785
 110045542.841 8  85749883.76046  20940955.391                    20940964.574
 113042648.555 8  88085256.755 7  21511288.242                    21511297.680
 123372592.430 7  96134567.731 6  23477025.727                    23477036.402
 124107184.824 7  96706953.523 6  23616817.430                    23616829.676
 116320365.708 7  90639362.42345  22135013.695                    22135023.379
 108469808.999 8  84522060.08346  20641101.969                    20641108.543
 11  8 19  0 39 30.0000000  0  9G30G12G09G10G05G17G25G04G02
 121543031.016 7  94708935.39044  23128875.625                    23128886.086
 111091883.515 8  86565150.071 7  21140076.367                    21140084.430
 126697582.518 6  98725441.20843  24109754.625                    24109767.016
 110063920.669 8  85764204.16446  20944452.703                    20944461.484
 112962855.285 8  88023080.236 7  21496104.000                    21496113.730
 123429709.011 7  96179074.090 6  23487894.805                    23487904.984
 124013592.887 7  96634024.746 6  23599007.680                    23599020.141
 116400321.610 7  90701665.71645  22150229.125                    22150238.508
 108477637.009 8  84528159.83546  20642591.391                    20642598.023
 11  8 19  0 40  0.0000000  0  9G30G12G09G10G05G17G25G04G02
 121454560.258 7  94639997.18644  23112040.039                    23112050.465
 111045438.384 8  86528959.082 7  21131237.992                    21131246.648
 126779247.794 6  98789076.34943  24125294.813                    24125307.969
 110082923.176 8  85779011.33946  20948068.109                    20948077.523
 112883447.197 7  87961203.853 7  21480993.031                    21481002.684
 123486996.288 7  96223713.509 6  23498795.977                    23498806.699
 123920249.449 7  96561289.613 6  23581244.906                    23581257.563
 116480359.919 7  90764033.20445  22165459.523                    22165469.535
 108485719.579 8  84534457.93246  20644129.547                    20644135.906
 11  8 19  0 40 30.0000000  0  9G30G12G09G10G05G17G25G04G02
 121366442.463 7  94571334.01044  23095271.586                    23095281.813
 110999485.258 8  86493151.469 7  21122493.375                    21122501.879
 126860979.069 6  98852762.90343  24140847.969                    24140860.797
 110102549.712 8  85794304.75846  20951802.992                    20951812.199
 112804426.894 8  87899629.652 7  21465956.016                    21465965.488
 123544454.728 7  96268486.274 6  23509730.992                    23509740.836
 123827157.108 7  96488750.134 6  23563529.945                    23563542.750
 116560478.574 7  90826463.29345  22180706.211                    22180715.258
 108494055.503 8  84540953.45246  20645715.773                    20645722.305
 11  8 19  0 41  0.0000000  0  9G30G12G09G10G05G17G25G04G02
 121278680.622 7  94502948.21544  23078571.195                    23078581.344
 110954026.437 8  86457729.024 7  21113842.883                    21113851.535
 126942772.995 6  98916498.29343  24156412.938                    24156425.375
 110122799.777 8  85810084.04246  20955656.625                    20955665.645
 112725797.083 7  87838359.718 7  21450993.336                    21451002.793
 123602084.954 7  96313392.913 6  23520697.156                    23520707.773
 123734318.792 7  96416408.617 7  23545863.227                    23545875.684
 116640676.096 7  90888954.84045  22195967.305                    22195975.809
 108502643.761 8  84547645.60546  20647350.055                    20647356.703
 11  8 19  0 41 30.0000000  0  9G30G12G09G10G05G17G25G04G02
 121191277.333 7  94434841.80944  23061938.516                    23061948.398
 110909063.787 8  86422693.204 7  21105287.016                    21105295.230
 127024626.135 6  98980279.83143  24171989.258                    24172002.160
 110143672.581 8  85826348.57146  20959628.813                    20959637.953
 112647560.236 8  87777395.999 7  21436105.352                    21436114.801
 123659887.312 7  96358433.674 6  23531696.680                    23531706.906
 123641737.041 7  96344267.035 7  23528246.023                    23528258.824
 116720950.845 7  90951506.56345  22211242.844                    22211252.168
 108511482.834 8  84554533.19146  20649031.984                    20649038.574
 11  8 19  0 42  0.0000000  0  9G30G12G09G10G05G17G25G04G02
 121104235.682 7  94367017.20344  23045374.813                    23045385.469
 110864599.332 8  86388045.587 7  21096825.203                    21096833.645
 127106535.563 6  99044105.16343  24187576.055                    24187589.113
 110165167.602 8  85843097.95346  20963719.063                    20963728.176
 112569719.332 8  87716740.800 7  21421292.617                    21421302.270
 123717862.387 7  96403608.995 6  23542728.688                    23542739.512
 123549414.850 7  96272327.714 7  23510677.523                    23510690.250
 116801301.340 7  91014117.31645  22226532.547                    22226542.242
 108520572.220 8  84561615.84046  20650761.484                    20650768.148
 11  8 19  0 42 30.0000000  0  9G30G12G09G10G05G17G25G04G02
 121017558.099 7  94299476.26944  23028880.797                    23028890.887
 110820634.730 8  86353787.469 7  21088459.242                    21088467.699
 127188497.766 6  99107971.68343  24203173.125                    24203185.953
 110187283.697 8  85860331.28546  20967927.516                    20967936.832
 112492276.627 8  87656395.887 7  21406555.805                    21406565.070
 123776010.509 7  96448919.143 6  23553794.484                    23553804.504
 123457354.587 7  96200592.488 7  23493159.492                    23493171.449
 116881725.351 7  91076785.34245  22241837.195                    22241846.691
 108529910.055 8  84568892.08946  20652538.633                    20652545.180
 11  8 19  0 43  0.0000000  0  9G30G12G09G10G05G17G25G04G02
 120931247.256 7  94232221.11344  23012456.078                    23012466.730
 110777171.440 8  86319919.980 7  21080188.555                    21080196.656
 127270509.495 6  99171876.77343  24218779.859                    24218792.375
 110210020.306 8  85878048.13746  20972254.211                    20972263.340
 112415234.882 8  87596363.416 7  21391895.180                    21391904.359
 123834331.698 6  96494364.145 6  23564891.906                    23564902.859
 123365558.716 7  96129063.269 7  23475690.781                    23475703.102
 116962221.371 7  91139509.49045  22257155.375                    22257164.746
 108539494.766 8  84576360.70846  20654362.539                    20654369.203
 11  8 19  0 43 30.0000000  0  9G30G12G09G10G05G17G25G04G02
 120845306.105 7  94165254.03144  22996102.617                    22996112.828
 110734212.112 8  86286445.184 7  21072013.242                    21072021.750
 127352567.812 6  99235818.18443  24234395.273                    24234407.340
 110233376.768 8  85896247.99246  20976698.797                    20976707.641
 112338596.710 8  87536645.415 7  21377311.164                    21377320.457
 123892826.739 6  96539944.639 6  23576022.313                    23576034.402
 123274030.253 7  96057742.420 7  23458273.617                    23458286.160
 117042787.903 7  91202288.58045  22272486.508                    22272496.152
 108549325.796 8  84584021.27146  20656233.484                    20656239.754
 11  8 19  0 44  0.0000000  0  9G30G12G09G10G05G17G25G04G02
 120759737.367 7  94098577.14144  22979818.945                    22979829.875
 110691758.393 8  86253364.376 7  21063934.883                    21063943.152
 127434669.389 6  99299793.30743  24250018.375                    24250030.953
 110257351.857 8  85914929.89246  20981260.906                    20981269.945
 112262364.152 8  87477243.475 7  21362804.594                    21362813.676
 123951496.082 6  96585660.961 6  23587188.164                    23587198.441
 123182771.831 7  95986631.991 7  23440907.297                    23440920.176
 117123423.267 7  91265121.30545  22287830.930                    22287840.551
 108559401.925 8  84591872.80846  20658150.969                    20658157.520
 11  8 19  0 44 30.0000000  0  9G30G12G09G10G05G17G25G04G02
 120674543.656 7  94032192.45944  22963606.945                    22963617.633
 110649811.745 8  86220678.679 7  21055952.453                    21055960.543
 127516810.900 6  99363799.51843  24265650.078                    24265662.242
 110281944.881 8  85934093.29046  20985940.781                    20985949.848
 112186539.862 8  87418159.667 7  21348375.688                    21348385.141
 124010340.078 6  96631513.395 6  23598385.898                    23598395.938
 123091786.002 7  95915733.996 7  23423593.102                    23423606.387
 117204125.812 7  91328006.35145  22303187.852                    22303197.809
 108569721.671 8  84599914.17646  20660114.414                    20660121.246
 11  8 19  0 45  0.0000000  0  9G30G12G09G10G05G17G25G04G02
 120589728.067 7  93966102.42644  22947467.398                    22947477.723
 110608374.333 8  86188389.778 7  21048067.320                    21048075.164
 127598989.063 6  99427834.31143  24281288.109                    24281300.508
 110307155.031 8  85953737.58146  20990738.148                    20990747.168
 112111126.770 8  87359396.273 7  21334024.961                    21334034.031
 124069359.199 6  96677502.274 6  23609616.461                    23609627.531
 123001075.695 7  95845050.696 6  23406331.336                    23406344.246
 117284894.071 7  91390942.60545  22318557.695                    22318567.758
 108580284.222 8  84608144.73846  20662124.750                    20662131.301
 11  8 19  0 45 30.0000000  0  9G30G12G09G10G05G17G25G04G02
 120505292.901 7  93900308.81444  22931399.875                    22931410.168
 110567447.627 8  86156498.842 7  21040278.938                    21040287.211
 127681200.413 6  99491894.93843  24296932.203                    24296944.887
 110332981.477 8  85973862.09046  20995653.047                    20995661.523
 112036127.457 8  87300955.302 7  21319752.984                    21319762.336
 124128553.854 6  96723627.929 6  23620881.219                    23620891.563
 122910643.370 7  95774583.994 6  23389123.063                    23389135.250
 117365726.272 7  91453928.68445  22333940.133                    22333949.348
 108591087.834 8  84616563.14446  20664180.523                    20664186.547
 11  8 19  0 46  0.0000000  0  9G30G12G09G10G05G17G25G04G02
 120421241.175 7  93834814.00944  22915406.156                    22915415.746
 110527033.672 8  86125007.448 7  21032588.453                    21032597.281
 127763442.262 6  99555979.30843  24312582.070                    24312595.270
 110359423.357 8  85994466.16746  21000684.406                    21000693.816
 111961544.177 8  87242838.510 7  21305560.273                    21305569.398
 124187924.323 6  96769890.589 6  23632179.078                    23632189.090
 122820491.736 7  95704336.034 6  23371967.461                    23371980.027
 117446620.737 7  91516963.28944  22349333.758                    22349343.047
 108602131.595 8  84625168.68346  20666282.242                    20666288.324
 11  8 19  0 46 30.0000000  0  9G30G12G09G10G05G17G25G04G02
 120337575.352 7  93769619.89644  22899484.633                    22899494.750
 110487134.395 8  86093917.105 7  21024995.813                    21025004.387
 127845711.336 6  99620084.91243  24328237.289                    24328251.148
 110386479.030 8  86015548.52746  21005832.961                    21005842.027
 111887379.115 8  87185047.616 7  21291447.203                    21291456.691
 124247470.933 6  96816290.488 6  23643510.227                    23643521.328
 122730623.439 7  95634308.832 6  23354866.625                    23354878.484
 117527576.000 7  91580045.27145  22364738.656                    22364748.512
 108613414.021 8  84633960.19846  20668428.688                    20668435.344
 11  8 19  0 47  0.0000000  0  9G30G12G09G10G05G17G25G04G02
 120254298.343 7  93704728.76644  22883637.477                    22883647.496
 110447751.265 8  86063228.951 7  21017501.680                    21017510.195
 127928004.433 6  99684209.22343  24343898.336                    24343910.832
 110414147.996 8  86037108.77346  21011098.313                    21011107.219
 111813635.191 8  87127584.860 7  21277414.180                    21277423.148
 124307194.129 6  96862828.008 6  23654875.500                    23654885.859
 122641041.273 7  95564504.597 7  23337819.055                    23337831.906
 117608590.344 7  91643173.28945  22380154.977                    22380164.855
 108624934.319 8  84642937.05746  20670620.977                    20670627.664
 11  8 19  0 47 30.0000000  0  9G30G12G09G10G05G17G25G04G02
 120171412.672 7  93640142.57744  22867864.781                    22867875.184
 110408885.660 8  86032944.064 7  21010105.805                    21010113.887
 128010318.218 6  99748349.68043  24359561.344                    24359574.668
 110442429.184 8  86059146.06146  21016480.156                    21016488.766
 111740314.749 8  87070452.100 7  21263461.547                    21263471.039
 124367094.407 6  96909503.521 6  23666273.531                    23666284.613
 122551747.788 7  95494925.295 7  23320826.984                    23320839.871
 117689662.198 7  91706346.13445  22395582.625                    22395592.066
 108636691.115 8  84652098.19846  20672858.516                    20672864.840
 11  8 19  0 48  0.0000000  0  9G30G12G09G10G05G17G25G04G02
 120088921.279 7  93575863.60944  22852167.008                    22852177.051
 110370539.714 8  86003064.105 7  21002808.797                    21002817.105
 128092649.629 7  99812503.86343  24375228.828                    24375241.816
 110471321.760 8  86081659.76646  21021978.219                    21021986.750
 111667420.156 8  87013651.166 7  21249590.398                    21249599.730
 124427172.231 7  96956317.398 6  23677706.641                    23677716.668
 122462745.833 7  95425573.172 6  23303890.352                    23303902.758
 117770790.254 7  91769562.77244  22411021.281                    22411030.109
 108648683.523 8  84661442.93946  20675140.555                    20675147.125
 11  8 19  0 48 30.0000000  0  9G30G12G09G10G05G17G25G04G02
 120006826.586 7  93511893.76344  22836545.570                    22836555.141
 110332715.069 8  85973590.363 7  20995611.039                    20995619.492
 128174995.442 6  99876669.24843  24390899.336                    24390911.785
 110500824.404 8  86104648.82946  21027591.977                    21027601.445
 111594953.816 8  86957183.925 7  21235800.586                    21235809.531
 124487427.628 7  97003269.637 6  23689172.922                    23689183.137
 122374037.833 7  95356450.112 6  23287009.563                    23287021.984
 117851972.660 7  91832821.74844  22426469.383                    22426478.652
 108660909.618 8  84670969.77746  20677466.813                    20677473.613
 11  8 19  0 49  0.0000000  0  9G30G12G09G10G05G17G25G04G02
 119925131.404 7  93448235.22844  22820998.813                    22821008.746
 110295413.509 8  85944524.211 7  20988512.688                    20988521.012
 128257352.483 6  99940843.38343  24406570.969                    24406584.609
 110530936.500 8  86128112.78946  21033322.227                    21033331.605
 111522918.292 8  86901052.397 7  21222092.516                    21222101.715
 124547861.147 7  97050360.704 6  23700672.461                    23700683.438
 122285626.596 7  95287558.299 6  23270186.094                    23270198.195
 117933207.920 7  91896121.93244  22441927.883                    22441937.293
 108673368.411 8  84680677.93846  20679837.836                    20679844.105
 11  8 19  0 49 30.0000000  0  9G30G12G09G10G05G17G25G04G02
 119843838.437 7  93384890.10444  22805529.242                    22805539.336
 110258636.772 8  85915867.017 7  20981514.492                    20981522.523
 128339717.622 6 100005023.85243  24422244.875                    24422258.473
 110561656.559 8  86152050.48946  21039167.984                    21039177.082
 111451315.965 8  86845258.428 7  21208466.945                    21208476.145
 124608473.120 7  97097590.778 6  23712206.922                    23712216.746
 122197514.865 7  95218899.869 7  23253418.344                    23253431.492
 118014494.665 7  91959462.22444  22457396.383                    22457405.730
 108686058.945 8  84690566.67346  20682252.648                    20682259.504
 11  8 19  0 50  0.0000000  0  9G30G12G09G10G05G17G25G04G02
 119762950.315 7  93321860.45544  22790137.016                    22790146.430
 110222385.763 8  85887619.484 7  20974616.125                    20974624.453
 128422087.524 6 100069207.98743  24437919.484                    24437932.324
 110592983.252 8  86176460.90246  21045129.789                    21045138.688
 111380149.116 8  86789803.787 7  21194924.125                    21194933.496
 124669263.723 7  97144960.061 6  23723775.063                    23723785.359
 122109705.209 7  95150476.819 7  23236709.188                    23236721.195
 118095831.411 7  92022841.47644  22472874.438                    22472883.840
 108698979.946 8  84700634.99546  20684711.633                    20684718.016
 11  8 19  0 50 30.0000000  0  9G30G12G09G10G05G17G25G04G02
 119682469.745 7  93259148.38544  22774821.391                    22774831.973
 110186662.704 8  85859783.351 7  20967818.211                    20967826.289
 128504459.192 6 100133393.49943  24453594.781                    24453607.703
 110624915.490 7  86201343.16446  21051206.281                    21051214.949
 111309420.222 8  86734690.407 7  21181465.023                    21181474.656
 124730233.648 7  97192469.082 6  23735377.039                    23735386.961
 122022200.409 7  95082291.321 7  23220057.297                    23220069.355
 118177216.349 7  92086258.29344  22488361.109                    22488370.938
 108712130.352 8  84710882.07246  20687214.016                    20687220.148
 11  8 19  0 51  0.0000000  0  9G30G12G09G10G05G17G25G04G02
 119602399.185 7  93196755.81744  22759584.727                    22759594.535
 110151468.920 8  85832359.639 7  20961121.008                    20961129.145
 128586829.408 6 100197577.90343  24469268.953                    24469282.445
 110657451.939 7  86226696.24345  21057397.422                    21057406.465
 111239131.949 8  86679920.368 7  21168089.625                    21168098.688
 124791382.980 7  97240117.889 6  23747013.719                    23747024.008
 121935002.898 7  95014345.257 6  23203464.367                    23203476.273
 118258648.216 7  92149711.66744  22503857.094                    22503866.871
 108725508.575 8  84721306.66246  20689759.891                    20689766.055
 11  8 19  0 51 30.0000000  0  9G30G12G09G10G05G17G25G04G02
 119522741.405 7  93134684.84944  22744426.188                    22744436.340
 110116806.296 8  85805349.814 7  20954525.273                    20954533.441
 128669195.226 6 100261758.84543  24484943.234                    24484956.508
 110690591.582 8  86252519.34146  21063703.797                    21063712.848
 111169286.204 8  86625495.168 7  21154798.172                    21154807.215
 124852712.351 6  97287906.972 6  23758684.781                    23758694.500
 121848115.472 7  94946640.815 7  23186929.586                    23186941.465
 118340125.445 7  92213200.38945  22519361.734                    22519371.879
 108739113.847 8  84731908.17246  20692348.836                    20692355.434
 11  8 19  0 52  0.0000000  0  9G30G12G09G10G05G17G25G04G02
 119443498.878 7  93072937.49044  22729346.680                    22729356.637
 110082676.066 8  85778754.845 7  20948029.930                    20948038.395
 128751553.391 6 100325933.85842  24500614.875                    24500628.637
 110724333.184 8  86278811.48946  21070124.531                    21070133.715
 111099885.027 8  86571416.363 7  21141591.711                    21141600.844
 124914221.772 6  97335836.378 6  23770388.906                    23770398.891
 121761540.740 7  94879180.044 7  23170455.336                    23170467.445
 118421646.584 7  92276723.32445  22534874.617                    22534884.965
 108752944.401 8  84742685.23346  20694980.391                    20694986.871
 11  8 19  0 52 30.0000000  0  9G30G12G09G10G05G17G25G04G02
 119364674.314 7  93011515.80544  22714347.117                    22714356.465
 110049079.812 8  85752575.961 7  20941636.969                    20941645.219
 128833900.906 6 100390100.54842  24516285.430                    24516299.629
 110758675.205 8  86305571.51146  21076659.695                    21076668.434
 111030931.084 8  86517686.066 7  21128470.289                    21128479.605
 124975911.361 6  97383906.185 6  23782128.109                    23782138.902
 121675281.309 7  94811964.964 7  23154041.016                    23154052.953
 118503210.163 7  92340279.31944  22550395.906                    22550405.711
 108766999.195 8  84753637.01046  20697655.109                    20697661.977
 11  8 19  0 53  0.0000000  0  9G30G12G09G10G05G17G25G04G02
 119286270.368 7  92950421.88944  22699427.320                    22699437.082
 110016019.069 8  85726814.353 7  20935345.813                    20935354.078
 128916234.589 6 100454256.44042  24531952.938                    24531966.961
 110793616.498 8  86332798.49745  21083308.695                    21083317.695
 110962426.652 8  86464306.028 7  21115433.961                    21115443.422
 125037781.915 6  97432116.963 6  23793901.789                    23793912.758
 121589339.950 7  94744997.720 7  23137686.641                    23137699.086
 118584814.559 7  92403867.12944  22565924.711                    22565934.750
 108781277.253 8  84764762.76446  20700372.289                    20700378.473
 11  8 19  0 53 30.0000000  0  9G30G12G09G10G05G17G25G04G02
 119208289.677 7  92889657.75944  22684587.984                    22684597.383
 109983495.356 8  85701471.200 7  20929156.508                    20929164.797
 128998551.199 6 100518399.06642  24547617.977                    24547632.000
 110829155.722 8  86360491.39646  21090071.641                    21090080.266
 110894374.023 8  86411278.052 7  21102484.297                    21102493.410
 125099833.406 6  97480468.732 6  23805709.695                    23805720.496
 121503719.272 7  94678280.352 7  23121393.758                    23121405.379
 118666458.627 7  92467485.85544  22581461.000                    22581471.453
 108795777.367 8  84776061.55146  20703131.422                    20703137.844
 11  8 19  0 54  0.0000000  0  9G30G12G09G10G05G17G25G04G02
 119130734.677 7  92829225.35644  22669829.508                    22669839.355
 109951510.059 8  85676547.603 7  20923070.180                    20923078.082
 129080847.892 6 100582526.16842  24563278.953                    24563292.625
 110865291.565 8  86388649.19646  21096948.328                    21096957.180
 110826775.536 8  86358603.947 7  21089620.594                    21089629.891
 125162066.253 6  97528961.815 6  23817551.945                    23817562.746
 121418421.848 7  94611814.896 7  23105162.039                    23105174.352
 118748140.629 7  92531134.12544  22597004.359                    22597014.633
 108810498.079 8  84787532.24346  20705932.813                    20705939.488
 11  8 19  0 54 30.0000000  0  9G30G12G09G10G05G17G25G04G02
 119053608.158 7  92769126.83545  22655152.930                    22655162.770
 109920064.934 8  85652044.921 7  20917086.094                    20917094.379
 129163121.650 6 100646635.34542  24578935.648                    24578948.973
 110902022.759 8  86417270.90846  21103938.016                    21103946.578
 110759633.695 8  86306285.678 7  21076843.805                    21076853.125
 125224480.760 6  97577596.469 6  23829429.359                    23829440.031
 121333450.524 7  94545603.532 7  23088992.531                    23089004.207
 118829859.472 7  92594811.12844  22612555.531                    22612565.148
 108825438.849 8  84799174.39946  20708775.789                    20708782.219
 11  8 19  0 55  0.0000000  0  9G30G12G09G10G05G17G25G04G02
 118976912.296 7  92709363.87344  22640558.133                    22640568.285
 109889160.722 8  85627963.714 7  20911205.523                    20911213.504
 129245369.039 6 100710724.04742  24594586.195                    24594600.031
 110939347.457 8  86446355.10146  21111040.266                    21111048.801
 110692950.040 8  86254324.430 7  21064154.359                    21064163.332
 125287077.275 6  97626372.955 6  23841340.719                    23841351.980
 121248807.542 7  94479648.019 7  23072885.742                    23072897.098
 118911613.252 7  92658515.32844  22628113.063                    22628122.359
 108840597.555 8  84810986.36346  20711660.578                    20711667.098
 11  8 19  0 55 30.0000000  0  9G30G12G09G10G05G17G25G04G02
 118900649.989 7  92649938.77344  22626046.078                    22626055.891
 109858799.426 8  85604305.564 7  20905427.984                    20905436.027
 129327587.289 6 100774789.97942  24610232.016                    24610245.379
 110977264.863 8  86475901.13945  21118255.539                    21118264.871
 110626727.415 8  86202722.423 7  21051552.656                    21051561.508
 125349856.118 6  97675291.480 6  23853287.555                    23853298.156
 121164495.789 7  94413950.616 7  23056841.406                    23056853.246
 118993400.826 7  92722245.87345  22643676.313                    22643686.070
 108855973.610 8  84822967.69946  20714586.609                    20714593.125
 11  8 19  0 56  0.0000000  0  9G30G12G09G10G05G17G25G04G02
 118824823.695 7  92590853.42344  22611616.711                    22611626.672
 109828982.603 8  85581071.672 7  20899754.000                    20899762.316
 129409773.374 5 100838830.84342  24625873.016                    24625886.012
 111015773.078 8  86505907.55646  21125583.727                    21125593.172
 110560967.879 8  86151481.272 7  21039038.883                    21039048.211
 125412817.337 6  97724352.132 6  23865268.250                    23865279.391
 121080517.908 7  94348513.366 7  23040860.516                    23040872.863
 119075220.877 7  92786001.73144  22659246.117                    22659256.313
 108871565.558 8  84835117.26946  20717553.727                    20717560.234
 11  8 19  0 56 30.0000000  0  9G30G12G09G10G05G17G25G04G02
 118749435.856 7  92532109.71945  22597270.609                    22597280.965
 109799710.719 8  85558262.408 7  20894183.805                    20894191.902
 129491924.035 5 100902844.10942  24641505.055                    24641518.301
 111054870.464 8  86536373.07346  21133023.758                    21133032.926
 110495673.570 8  86100602.640 7  21026613.984                    21026623.188
 125475960.986 6  97773554.939 6  23877284.094                    23877295.367
 120996876.425 7  94283338.239 7  23024943.867                    23024956.199
 119157071.849 7  92849781.69644  22674821.805                    22674831.402
 108887372.036 8  84847434.00546  20720561.484                    20720567.941
 11  8 19  0 57  0.0000000  0  9G30G12G09G10G05G17G25G04G02
 118674489.179 7  92473709.77645  22583008.680                    22583019.164
 109770985.908 8  85535879.438 7  20888717.328                    20888725.492
 129574036.305 6 100966827.43142  24657130.484                    24657144.113
 111094555.975 8  86567296.85446  21140575.367                    21140584.406
 110430846.574 8  86050088.142 7  21014277.492                    21014286.793
 125539287.749 6  97822900.417 6  23889334.672                    23889346.063
 120913574.060 7  94218427.373 6  23009092.313                    23009104.242
 119238952.492 7  92913584.76444  22690403.328                    22690412.777
 108903392.105 8  84859917.17946  20723609.852                    20723616.414
 11  8 19  0 57 30.0000000  0  9G30G12G09G10G05G17G25G04G02
 118599986.068 7  92415655.47444  22568831.000                    22568841.496
 109742809.235 8  85513923.590 7  20883355.477                    20883363.848
 129656107.171 6 101030778.50142  24672747.867                    24672762.336
 111134827.942 8  86598677.62646  21148239.477                    21148248.070
 110366488.898 8  85999939.344 7  21002030.797                    21002039.973
 125602797.812 6  97872388.752 6  23901420.305                    23901432.023
 120830613.385 7  94153782.760 6  22993305.398                    22993317.148
 119320861.428 7  92977409.87444  22705989.859                    22705999.527
 108919624.641 8  84872565.91046  20726698.945                    20726705.391
 11  8 19  0 58  0.0000000  0  9G30G12G09G10G05G17G25G04G02
 118525928.971 7  92357948.72445  22554738.875                    22554748.848
 109715181.878 8  85492395.776 7  20878098.531                    20878106.551
 129738133.663 6 101094695.01943  24688357.734                    24688370.777
 111175684.539 8  86630513.94646  21156013.539                    21156022.742
 110302603.051 8  85950158.216 7  20989873.695                    20989882.879
 125666491.358 6  97922020.049 6  23913541.461                    23913552.844
 120747996.955 7  94089406.378 7  22977583.984                    22977595.750
 119402797.171 7  93041255.87044  22721582.094                    22721591.566
 108936068.364 8  84885379.18346  20729827.961                    20729834.406
 11  8 19  0 58 30.0000000  0  9G30G12G09G10G05G17G25G04G02
 118452320.430 7  92300591.48545  22540731.445                    22540741.004
 109688105.502 8  85471297.301 7  20872945.984                    20872954.230
 129820112.810 6 101158574.60142  24703957.938                    24703972.027
 111217124.303 8  86662804.68346  21163899.117                    21163908.328
 110239191.274 8  85900746.485 7  20977806.633                    20977815.930
 125730368.607 7  97971794.515 6  23925697.008                    23925708.039
 120665727.395 7  94025300.289 7  22961928.867                    22961940.633
 119484758.747 7  93105121.99444  22737178.891                    22737188.691
 108952722.165 8  84898356.15946  20732997.180                    20733003.520
 11  8 19  0 59  0.0000000  0  9G30G12G09G10G05G17G25G04G02
 118379162.854 7  92243585.64645  22526809.602                    22526819.926
 109661580.866 8  85450628.749 7  20867898.320                    20867906.992
 129902041.577 6 101222415.01142  24719547.969                    24719562.109
 111259145.589 8  86695548.54545  21171895.844                    21171904.898
 110176254.936 8  85851705.225 8  20965830.453                    20965839.613
 125794429.676 6  98021712.205 6  23937887.125                    23937897.984
 120583807.241 7  93961466.465 7  22946339.875                    22946351.168
 119566744.268 7  93169006.77244  22752780.297                    22752790.281
 108969584.489 8  84911495.61546  20736205.805                    20736212.246
 11  8 19  0 59 30.0000000  0  9G30G12G09G10G05G17G25G04G02
 118306458.545 7  92186933.00545  22512974.523                    22512984.719
 109635609.274 8  85430391.146 7  20862956.078                    20862964.543
 129983916.961 6 101286213.76243  24735129.227                    24735142.777
 111301746.611 8  86728744.14945  21180002.313                    21180011.621
 110113796.443 8  85803036.313 7  20953944.555                    20953953.906
 125858674.806 7  98071773.315 6  23950113.781                    23950123.266
 120502239.020 7  93897906.881 6  22930817.875                    22930829.086
 119648752.569 7  93232909.31144  22768385.383                    22768395.551
 108986654.194 8  84924796.67946  20739454.141                    20739460.785
 11  8 19  1  0  0.0000000  0  9G30G12G09G10G05G17G25G04G02
 118234210.436 7  92130635.83545  22499226.563                    22499235.977
 109610192.257 8  85410585.677 7  20858119.266                    20858127.664
 130065736.086 6 101349968.68043  24750698.797                    24750712.879
 111344926.333 8  86762390.68345  21188219.727                    21188228.809
 110051818.386 8  85754741.772 7  20942150.867                    20942159.789
 125923104.463 7  98121978.219 6  23962373.453                    23962384.203
 120421025.662 7  93834623.820 7  22915363.047                    22915374.848
 119730782.724 7  93296828.86744  22783995.500                    22784005.441
 109003930.794 8  84938258.96046  20742741.828                    20742748.367
 11  8 19  1  0 30.0000000  0  9G30G12G09G10G05G17G25G04G02
 118162420.649 7  92074695.80845  22485565.344                    22485574.648
 109585330.834 8  85391213.139 7  20853388.414                    20853396.664
 130147495.819 6 101413677.35343  24766257.617                    24766272.246
 111388682.778 8  86796486.62145  21196546.344                    21196555.109
 109990322.258 8  85706822.755 7  20930448.281                    20930457.242
 125987718.660 7  98172326.926 6  23974668.602                    23974679.805
 120340169.511 7  93771619.106 7  22899976.703                    22899988.574
 119812833.305 7  93360764.35744  22799609.250                    22799619.766
 109021412.585 8  84951881.12246  20746068.664                    20746075.211
 11  8 19  1  1  0.0000000  0  9G30G12G09G10G05G17G25G04G02
 118091091.637 7  92019114.81144  22471991.539                    22472001.313
 109561026.226 8  85372274.494 8  20848763.727                    20848771.898
 130229193.142 6 101477337.40343  24781804.703                    24781817.512
 111433014.194 8  86831030.57945  21204982.289                    21204991.164
 109929310.139 8  85659280.889 8  20918838.328                    20918847.086
 126052517.756 7  98222819.721 6  23987000.500                    23987010.598
 120259673.148 7  93708894.729 7  22884658.445                    22884670.504
 119894902.949 7  93424714.68844  22815226.734                    22815237.051
 109039098.555 8  84965662.39346  20749433.977                    20749440.496
 11  8 19  1  1 30.0000000  0  9G30G12G09G10G05G17G25G04G02
 118020225.830 7  91963894.75045  22458506.625                    22458515.949
 109537279.531 8  85353770.579 8  20844244.594                    20844252.867
 130310825.395 6 101540946.71043  24797338.797                    24797353.051
 111477918.760 7  86866021.15745  21213526.977                    21213536.152
 109868784.474 8  85612118.073 7  20907320.227                    20907329.172
 126117501.820 6  98273456.656 6  23999365.672                    23999376.492
 120179539.195 7  93646452.752 7  22869409.844                    22869421.477
 119976990.227 7  93488678.78644  22830847.539                    22830857.730
 109056987.465 8  84979601.79046  20752838.109                    20752844.988
 11  8 19  1  2  0.0000000  0  9G30G12G09G10G05G17G25G04G02
 117949825.678 7  91909037.54844  22445109.602                    22445119.035
 109514091.826 8  85335702.250 7  20839832.156                    20839840.445
 130392389.541 6 101604502.94942  24812859.078                    24812874.121
 111523394.815 7  86901457.05145  21222181.055                    21222190.016
 109808746.811 8  85565335.516 7  20895895.469                    20895904.344
 126182670.977 6  98324237.815 6  24011767.063                    24011777.781
 120099770.158 7  93584295.130 7  22854229.898                    22854242.434
 120059093.640 7  93552655.43044  22846471.352                    22846481.270
 109075078.011 8  84993698.31646  20756280.867                    20756287.676
 11  8 19  1  2 30.0000000  0  9G30G12G09G10G05G17G25G04G02
 117879893.570 7  91854545.02845  22431801.484                    22431811.461
 109491464.302 8  85318070.427 7  20835526.078                    20835534.656
 130473882.513 5 101668003.78643  24828367.133                    24828382.348
 111569440.872 7  86937337.10245  21230942.992                    21230952.496
 109749199.428 8  85518935.002 7  20884563.906                    20884573.094
 126248025.673 6  98375163.561 6  24024204.086                    24024214.555
 120020368.654 7  93522423.890 7  22839120.305                    22839131.793
 120141212.387 7  93616644.01444  22862098.070                    22862108.094
 109093369.150 8  85007951.14646  20759761.484                    20759768.004
 11  8 19  1  3  0.0000000  0  9G30G12G09G10G05G17G25G04G02
 117810431.845 7  91800419.04245  22418583.813                    22418593.137
 109469398.102 8  85300875.994 7  20831327.156                    20831335.660
 130555301.350 5 101731446.79942  24843860.414                    24843876.387
 111616054.978 8  86973659.78045  21239813.805                    21239822.551
 109690144.189 8  85472917.974 7  20873326.367                    20873335.465
 126313565.829 6  98426233.784 6  24036676.047                    24036686.164
 119941337.192 7  93460840.991 7  22824081.172                    22824093.063
 120223345.043 7  93680643.45844  22877727.000                    22877737.332
 109111859.597 8  85022359.28846  20763280.203                    20763286.953
 11  8 19  1  3 30.0000000  0  9G30G12G09G10G05G17G25G04G02
 117741442.866 7  91746661.42545  22405455.445                    22405464.691
 109447894.229 8  85284119.742 7  20827235.133                    20827243.281
 130636643.368 5 101794829.97542  24859340.125                    24859354.746
 111663235.078 7  87010423.50945  21248791.883                    21248800.645
 109631582.638 8  85427285.646 7  20862182.289                    20862191.043
 126379291.644 6  98477448.692 6  24049183.813                    24049193.992
 119862678.375 7  93399548.462 7  22809112.523                    22809124.895
 120305490.387 7  93744652.79444  22893358.664                    22893369.215
 109130548.478 8  85036922.05546  20766836.484                    20766842.516
 11  8 19  1  4  0.0000000  0  8G30G12G10G05G17G25G04G02
 117672929.747 7  91693274.61645  22392418.094                    22392427.664
 109426954.412 8  85267803.029 7  20823250.219                    20823258.434
 111710980.204 8  87047627.51146  21257877.281                    21257886.113
 109573517.826 8  85382040.382 7  20851132.773                    20851141.602
 126445203.990 6  98528808.975 6  24061725.180                    24061735.734
 119784395.394 7  93338548.784 7  22794216.250                    22794228.141
 120387648.125 7  93808671.80244  22908993.125                    22909003.363
 109149435.143 8  85051638.94446  20770430.250                    20770436.848
 11  8 19  1  4 30.0000000  0  8G30G12G10G05G17G25G04G02
 117604894.021 7  91640259.79345  22379470.695                    22379480.625
 109406578.794 8  85251925.936 8  20819373.188                    20819381.332
 111759287.862 8  87085269.85245  21267069.766                    21267078.750
 109515950.791 8  85337182.989 7  20840178.344                    20840186.953
 126511302.500 6  98580314.327 6  24074303.586                    24074314.227
 119706490.106 7  93277843.403 7  22779391.406                    22779402.875
 120469816.075 7  93872698.76244  22924629.398                    22924639.699
 109168517.733 8  85066508.48946  20774061.586                    20774068.285
 11  8 19  1  5  0.0000000  0  8G30G12G10G05G17G25G04G02
 117537338.047 7  91587618.79345  22366615.492                    22366625.301
 109386768.550 8  85236489.397 7  20815603.492                    20815611.809
 111808156.203 8  87123349.07445  21276369.492                    21276378.047
 109458883.426 8  85292714.949 7  20829318.453                    20829327.609
 126577587.293 6  98631964.854 6  24086916.883                    24086928.309
 119628964.969 7  93217434.242 7  22764638.750                    22764650.133
 120551993.093 7  93936732.80044  22940267.070                    22940277.199
 109187795.255 8  85081529.92946  20777729.781                    20777736.871
 11  8 19  1  5 30.0000000  0  8G30G12G10G05G17G25G04G02
 117470264.351 7  91535353.59445  22353851.727                    22353861.441
 109367524.947 8  85221494.408 8  20811941.313                    20811949.961
 111857583.694 8  87161864.01145  21285775.133                    21285784.172
 109402318.162 8  85248638.158 7  20818554.461                    20818563.387
 126644058.353 6  98683760.488 6  24099566.328                    24099577.465
 119551822.780 7  93157323.476 7  22749959.055                    22749970.957
 120634177.947 7  94000772.91644  22955906.578                    22955916.637
 109207266.791 8  85096702.55346  20781435.492                    20781441.973
 11  8 19  1  6  0.0000000  0  8G30G12G10G05G17G25G04G02
 117403674.729 7  91483465.60744  22341179.945                    22341189.598
 109348848.055 8  85206940.991 7  20808387.063                    20808395.574
 111907567.719 8  87200812.59246  21295286.922                    21295295.867
 109346256.051 8  85204953.433 7  20807886.211                    20807895.133
 126710715.594 6  98735701.192 6  24112250.992                    24112261.656
 119475065.556 7  93097512.667 7  22735352.633                    22735364.063
 120716369.348 6  94064818.12744  22971546.406                    22971556.996
 109226930.497 8  85112024.90546  20785177.281                    20785183.961
 11  8 19  1  6 30.0000000  0  8G30G12G10G05G17G25G04G02
 117337571.467 7  91431956.60145  22328600.852                    22328610.852
 109330739.273 8  85192830.262 7  20804941.297                    20804949.520
 111958106.323 8  87240193.31945  21304903.578                    21304912.824
 109290698.959 8  85161662.222 7  20797314.164                    20797322.891
 126777559.079 6  98787787.050 6  24124970.953                    24124981.750
 119398695.751 8  93038003.750 7  22720819.609                    22720831.434
 120798565.831 6  94128867.30144  22987188.156                    22987197.742
 109246784.853 8  85127495.83246  20788955.656                    20788962.035
 11  8 19  1  7  0.0000000  0  8G30G12G10G05G17G25G04G02
 117271957.147 7  91380828.58945  22316115.258                    22316125.141
 109313199.310 8  85179162.775 7  20801603.039                    20801611.422
 112009197.944 7  87280004.97245  21314626.141                    21314635.527
 109235649.008 8  85118766.197 7  20786838.641                    20786847.547
 126844589.120 6  98840018.276 6  24137726.336                    24137737.324
 119322716.293 7  92978799.006 7  22706361.352                    22706372.766
 120880766.762 6  94192919.93644  23002830.180                    23002840.547
 109266829.642 8  85143115.14446  20792769.516                    20792776.184
 11  8 19  1  7 30.0000000  0  8G30G12G10G05G17G25G04G02
 117206834.116 7  91330083.39945  22303722.055                    22303732.277
 109296229.274 8  85165939.376 7  20798374.234                    20798382.344
 112060840.655 7  87320246.05445  21324453.023                    21324462.496
 109181108.109 8  85076266.828 7  20776459.859                    20776468.164
 126911806.119 6  98892395.172 6  24150516.961                    24150527.875
 119247129.649 7  92919900.342 7  22691977.914                    22691989.324
 120962971.117 7  94256975.28344  23018473.273                    23018483.348
 109287063.924 8  85158882.11546  20796620.375                    20796627.375
 11  8 19  1  8  0.0000000  0  8G30G12G10G05G17G25G04G02
 117142204.332 7  91279722.56645  22291423.727                    22291434.055
 109279829.739 8  85153160.529 7  20795253.125                    20795261.691
 112113032.164 7  87360914.75545  21334384.906                    21334394.137
 109127077.501 8  85034165.097 8  20766177.992                    20766186.648
 126979210.088 6  98944917.757 6  24163343.398                    24163354.699
 119171938.052 8  92861309.502 7  22677669.148                    22677680.570
 121045177.324 7  94321032.04344  23034117.070                    23034126.352
 109307486.186 8  85174795.56346  20800506.555                    20800513.199
 11  8 19  1  8 30.0000000  0  8G30G12G10G05G17G25G04G02
 117078069.796 7  91229747.63445  22279218.977                    22279229.137
 109264001.594 8  85140826.920 7  20792241.477                    20792250.051
 112165770.139 7  87402009.28445  21344420.852                    21344429.938
 109073558.978 8  84992462.396 7  20755993.555                    20756002.688
 127046800.748 6  98997585.806 6  24176205.578                    24176216.664
 119097143.817 8  92803028.302 7  22663436.555                    22663447.813
 121127384.159 7  94385089.29944  23049760.281                    23049770.668
 109328094.599 8  85190854.05946  20804428.148                    20804434.789
 11  8 19  1  9  0.0000000  0  8G30G12G10G05G17G25G04G02
 117014433.050 7  91180160.58445  22267109.984                    22267119.430
 109248745.932 8  85128939.395 7  20789338.273                    20789346.617
 112219053.171 7  87443528.52445  21354560.102                    21354569.090
 109020554.704 8  84951160.406 7  20745907.406                    20745915.902
 127114578.269 7  99050399.462 6  24189103.563                    24189113.844
 119022749.694 7  92745058.885 7  22649279.359                    22649290.941
 121209590.870 7  94449146.47144  23065404.281                    23065413.703
 109348888.699 8  85207057.25546  20808385.195                    20808391.641
 11  8 19  1  9 30.0000000  0  8G30G12G10G05G17G25G04G02
 116951296.247 7  91130963.11145  22255094.828                    22255105.082
 109234063.134 8  85117498.261 7  20786544.531                    20786552.246
 112272879.099 7  87485470.79945  21364803.063                    21364812.059
 108968066.185 8  84910260.310 8  20735918.680                    20735927.609
 127182542.998 7  99103359.022 6  24202037.063                    24202047.469
 118948758.117 7  92687403.138 7  22635199.336                    22635211.160
 121291796.020 7  94513202.38444  23081047.273                    23081057.461
 109369867.389 8  85223404.29546  20812377.234                    20812383.906
 11  8 19  1 10  0.0000000  0  8G30G12G10G05G17G25G04G02
 116888661.636 7  91082156.95245  22243176.359                    22243186.035
 109219954.460 8  85106504.497 7  20783859.555                    20783867.953
 112327245.699 7  87527834.39145  21375148.422                    21375157.762
 108916095.071 8  84869763.374 7  20726029.344                    20726037.727
 127250694.605 6  99156464.175 6  24215005.688                    24215015.984
 118875171.525 8  92630062.972 7  22621196.586                    22621208.152
 121373998.740 7  94577256.41344  23096689.680                    23096700.098
 109391029.474 8  85239894.23146  20816404.422                    20816411.086
 11  8 19  1 10 30.0000000  0  8G30G12G10G05G17G25G04G02
 116826531.209 7  91033743.67045  22231353.234                    22231363.445
 109206420.075 8  85095958.232 7  20781284.055                    20781291.762
 112382151.041 7  87570617.77445  21385596.820                    21385605.609
 108864643.163 8  84829671.029 8  20716238.211                    20716246.934
 127319033.531 7  99209715.278 6  24228010.289                    24228020.883
 118801992.384 7  92573040.296 7  22607270.961                    22607282.730
 121456197.998 7  94641307.76744  23112331.703                    23112342.082
 109412373.953 8  85256526.29646  20820466.266                    20820472.402
 11  8 19  1 11  0.0000000  0  8G30G12G10G05G17G25G04G02
 116764907.250 7  90985725.03045  22219626.523                    22219636.340
 109193461.141 8  85085860.364 7  20778817.930                    20778826.262
 112437593.246 7  87613819.49645  21396147.258                    21396156.105
 108813712.191 8  84789984.592 8  20706546.219                    20706554.887
 127387559.696 6  99263112.295 6  24241050.039                    24241060.723
 118729223.209 7  92516337.080 7  22593423.289                    22593434.961
 121538392.660 7  94705355.52544  23127972.578                    23127983.117
 109433899.676 8  85273299.59446  20824562.266                    20824568.875
 11  8 19  1 11 30.0000000  0  8G30G12G10G05G17G25G04G02
 116703791.767 7  90938102.59745  22207996.891                    22208006.359
 109181077.912 8  85076211.104 7  20776461.547                    20776470.313
 112493569.997 7  87657437.74545  21406799.039                    21406808.301
 108763303.659 8  84750705.255 8  20696953.883                    20696962.598
 127456273.164 6  99316655.241 6  24254126.094                    24254136.621
 118656866.232 8  92459955.065 7  22579653.797                    22579665.809
 121620581.475 7  94769398.69244  23143613.156                    23143623.219
 109455605.461 8  85290213.20046  20828692.570                    20828699.230
 11  8 19  1 12  0.0000000  0  8G30G12G10G05G17G25G04G02
 116643186.568 7  90890877.81245  22196463.977                    22196473.965
 109169270.904 8  85067010.832 7  20774214.648                    20774223.008
 112550078.632 7  87701470.44745  21417552.414                    21417561.629
 108713418.876 8  84711834.040 8  20687461.117                    20687470.070
 127525173.910 6  99370344.163 6  24267237.516                    24267247.773
 118584923.536 7  92403895.857 7  22565963.508                    22565975.445
 121702763.224 7  94833436.39744  23159251.336                    23159261.332
 109477489.696 8  85307265.86646  20832856.781                    20832863.410
 11  8 19  1 12 30.0000000  0  8G30G12G10G05G17G25G04G02
 116583094.057 7  90844052.50645  22185028.609                    22185038.355
 109158041.122 8  85058260.357 7  20772077.648                    20772086.074
 112607117.316 7  87745916.16545  21428406.586                    21428414.988
 108664059.448 8  84673372.181 8  20678068.070                    20678076.773
 127594261.858 6  99424178.936 6  24280384.063                    24280394.938
 118513398.015 7  92348161.722 7  22552352.898                    22552364.703
 121784937.304 7  94897468.10444  23174889.406                    23174899.156
 109499551.880 8  85324457.18846  20837055.531                    20837061.852
 11  8 19  1 13  0.0000000  0  8G30G12G10G05G17G25G04G02
 116523516.369 7  90797628.36545  22173690.938                    22173700.609
 109147389.286 8  85049960.236 8  20770050.586                    20770058.941
 112664684.047 7  87790773.35745  21439361.039                    21439370.203
 108615227.138 8  84635321.070 7  20668775.484                    20668784.324
 127663537.280 6  99478159.793 6  24293566.695                    24293577.621
 118442291.941 7  92292754.445 7  22538821.797                    22538833.617
 121867102.497 6  94961492.88843  23190524.320                    23190534.742
 109521791.021 8  85341786.39846  20841287.508                    20841294.059
 11  8 19  1 13 30.0000000  0  9G30G12G29G10G05G17G25G04G02
 116464455.642 7  90751607.04645  22162452.617                    22162461.879
 109137315.952 8  85042110.874 8  20768134.047                    20768142.129
 129625009.53816                  24666824.758
 112722776.939 7  87836040.54945  21450415.461                    21450424.734
 108566923.740 8  84597682.106 8  20659583.992                    20659592.750
 127733000.314 6  99532286.890 6  24306784.695                    24306795.621
 118371607.877 7  92237675.985 7  22525371.367                    22525382.961
 121949257.946 6  95025510.09444  23206158.125                    23206167.715
 109544206.176 8  85359252.75846  20845552.969                    20845559.488
 11  8 19  1 14  0.0000000  0  9G30G12G29G10G05G17G25G04G02
 116405913.744 7  90705989.99845  22151312.203                    22151321.703
 109127821.386 8  85034712.512 7  20766326.984                    20766335.020
 129545611.284 6 100944677.46816  24651715.688                    24651726.250
 112781393.475 7  87881715.76545  21461570.094                    21461579.270
 108519150.868 8  84560456.528 8  20650492.906                    20650501.578
 127802650.907 6  99586560.108 6  24320039.133                    24320049.563
 118301347.929 7  92182928.016 7  22512001.109                    22512012.746
 122031402.555 6  95089518.81444  23221789.633                    23221800.051
 109566795.965 8  85376855.20646  20849851.547                    20849858.246
 11  8 19  1 14 30.0000000  0  9G30G12G29G10G05G17G25G04G02
 116347893.112 7  90660779.14545  22140271.078                    22140280.859
 109118906.913 8  85027766.169 7  20764631.000                    20764639.719
 129466135.507 6 100882748.334 6  24636592.281                    24636602.918
 112840531.844 7  87927797.61545  21472823.469                    21472832.598
 108471910.114 8  84523645.588 8  20641503.266                    20641511.988
 127872489.120 6  99640979.540 6  24333328.320                    24333339.328
 118231515.048 7  92128512.830 7  22498712.250                    22498724.309
 122113535.685 6  95153518.60643  23237419.094                    23237429.051
 109589559.781 8  85394593.25346  20854183.359                    20854189.855
 11  8 19  1 15  0.0000000  0  9G30G12G29G10G05G17G25G04G02
 116290395.119 7  90615975.54845  22129329.625                    22129339.102
 109110572.044 8  85021271.464 7  20763044.508                    20763053.020
 129386581.412 6 100820758.198 6  24621453.203                    24621464.555
 112900189.201 7  87974283.85345  21484176.375                    21484185.133
 108425202.191 8  84487249.846 8  20632614.883                    20632623.719
 127942514.654 6  99695544.941 6  24346653.672                    24346664.523
 118162110.841 7  92074431.658 7  22485505.180                    22485516.820
 122195655.783 7  95217508.25144  23253046.234                    23253056.188
 109612495.873 8  85412465.54446  20858547.844                    20858554.203
 11  8 19  1 15 30.0000000  0  9G30G12G29G10G05G17G25G04G02
 116233421.621 7  90571580.64345  22118488.086                    22118497.352
 109102817.416 8  85015228.889 7  20761569.398                    20761577.230
 129306949.502 6 100758707.449 6  24606299.211                    24606310.801
 112960363.056 7  88021172.57545  21495626.891                    21495635.773
 108379028.486 8  84451270.374 8  20623828.555                    20623837.168
 128012727.508 6  99750256.317 5  24360015.297                    24360025.602
 118093137.585 7  92020686.300 7  22472380.406                    22472391.047
 122277761.665 7  95281486.83744  23268669.844                    23268680.336
 109635602.899 8  85430471.02846  20862945.242                    20862951.523
 11  8 19  1 16  0.0000000  0  9G30G12G29G10G05G17G25G04G02
 116176974.965 7  90527596.25345  22107747.023                    22107755.918
 109095643.585 8  85009638.879 7  20760204.180                    20760211.988
 129227240.205 6 100696596.384 6  24591130.789                    24591142.113
 113021051.429 7  88068462.21445  21507175.672                    21507184.719
 108333391.048 8  84415708.772 8  20615143.953                    20615152.621
 128083127.722 6  99805113.710 6  24373411.672                    24373421.941
 118024597.868 7  91967278.757 7  22459337.188                    22459348.500
 122359852.788 7  95345453.89544  23284291.617                    23284302.262
 109658880.323 8  85448609.28346  20867374.508                    20867381.453
 11  8 19  1 16 30.0000000  0  9G30G12G29G10G05G17G25G04G02
 116121057.025 7  90484023.85645  22097105.617                    22097115.258
 109089051.112 8  85004501.880 7  20758949.352                    20758957.887
 129147454.374 6 100634425.734 5  24575948.172                    24575959.375
 113082252.248 7  88116151.16945  21518821.641                    21518830.602
 108288291.069 8  84380565.967 8  20606561.602                    20606570.910
 128153715.329 6  99860117.090 6  24386843.625                    24386855.242
 117956493.974 7  91914210.831 7  22446377.422                    22446389.066
 122441928.056 6  95409408.61643  23299910.109                    23299920.098
 109682327.036 8  85466879.45246  20871836.398                    20871842.738
 11  8 19  1 17  0.0000000  0  9G30G12G29G10G05G17G25G04G02
 116065669.792 7  90440864.98945  22086565.664                    22086575.570
 109083040.148 8  84999818.022 7  20757805.695                    20757813.949
 129067592.906 6 100572196.105 5  24560751.391                    24560762.164
 113143963.445 7  88164237.81745  21530564.789                    21530574.105
 108243729.884 8  84345843.000 8  20598081.898                    20598090.688
 128224490.226 6  99915266.444 5  24400312.438                    24400322.719
 117888828.414 7  91861484.432 7  22433501.281                    22433512.871
 122523986.681 7  95473350.37044  23315525.883                    23315535.590
 109705942.212 8  85485280.88946  20876330.344                    20876336.551
 11  8 19  1 17 30.0000000  0  9G30G12G29G10G05G17G25G04G02
 116010814.913 7  90398120.93745  22076127.172                    22076136.879
 109077610.978 8  84995587.492 7  20756772.406                    20756780.988
 128987655.855 6 100509907.532 6  24545540.148                    24545550.859
 113206182.034 7  88212719.83945  21542404.602                    21542413.594
 108199708.877 8  84311540.957 8  20589705.188                    20589713.664
 128295451.976 6  99970561.396 5  24413815.375                    24413826.828
 117821603.093 8  91809101.099 7  22420708.344                    22420720.051
 122606027.488 6  95537278.24644  23331137.375                    23331146.980
 109729724.209 8  85503812.31446  20880855.563                    20880862.199
 11  8 19  1 18  0.0000000  0  9G30G12G29G10G05G17G25G04G02
 115956494.263 7  90355793.17045  22065790.578                    22065800.016
 109072764.031 8  84991810.658 7  20755849.945                    20755858.469
 128907643.793 7 100447560.541 6  24530313.969                    24530325.098
 113268905.710 7  88261595.42645  21554340.523                    21554349.590
 108156229.373 8  84277660.864 8  20581430.984                    20581439.770
 128366600.921 6 100026002.187 6  24427354.531                    24427364.863
 117754820.300 7  91757062.589 7  22408000.102                    22408011.371
 122688049.224 6  95601191.25344  23346745.133                    23346755.691
 109753672.237 8  85522473.11846  20885413.039                    20885419.371
 11  8 19  1 18 30.0000000  0  9G30G12G29G10G05G17G25G04G02
 115902709.770 7  90313883.19545  22055555.031                    22055565.289
 109068499.953 8  84988488.003 7  20755038.789                    20755047.129
 128827557.440 7 100385155.643 6  24515074.633                    24515084.723
 113332132.280 7  88310862.87545  21566372.367                    21566381.383
 108113292.678 8  84244203.742 8  20573260.328                    20573269.086
 128437936.845 6 100081588.677 6  24440930.031                    24440940.211
 117688482.374 7  91705370.723 7  22395376.203                    22395388.016
 122770051.579 7  95665089.13944  23362350.867                    23362360.781
 109777785.276 8  85541262.49846  20890001.492                    20890007.965
 11  8 19  1 19  0.0000000  0  9G30G12G29G10G05G17G25G04G02
 115849463.462 7  90272392.58345  22045422.844                    22045432.543
 109064818.918 8  84985619.680 7  20754338.180                    20754346.313
 128747397.280 7 100322693.240 6  24499820.586                    24499831.273
 113395859.558 7  88360520.49145  21578499.391                    21578507.965
 108070900.040 8  84211170.553 8  20565193.250                    20565202.184
 128509459.898 6 100137321.000 6  24454539.781                    24454550.664
 117622591.773 7  91654027.425 7  22382837.906                    22382849.563
 122852033.410 6  95728971.07044  23377950.656                    23377961.152
 109802062.527 8  85560179.82846  20894621.414                    20894627.742
 11  8 19  1 19 30.0000000  0  9G30G12G29G10G05G17G25G04G02
 115796756.923 7  90231322.56345  22035393.578                    22035403.043
 109061721.016 8  84983205.735 7  20753748.742                    20753756.832
 128667163.916 7 100260173.816 6  24484552.398                    24484563.328
 113460084.843 7  88410566.16145  21590721.031                    21590729.984
 108029052.752 8  84178562.312 8  20557230.063                    20557238.500
 128581169.812 6 100193198.912 6  24468185.414                    24468196.453
 117557150.460 7  91603034.214 7  22370384.844                    22370396.461
 122933993.819 6  95792836.25344  23393547.820                    23393557.941
 109826502.555 8  85579224.01046  20899271.867                    20899278.504
 11  8 19  1 20  0.0000000  0  9G30G12G29G10G05G17G25G04G02
 115744591.972 7  90190674.56445  22025466.859                    22025476.133
 109059206.507 7  84981246.396 7  20753270.117                    20753278.504
 128586858.191 6 100197597.998 6  24469270.938                    24469281.410
 113524805.761 7  88460998.04645  21603036.789                    21603045.770
 107987751.916 8  84146379.881 8  20549370.828                    20549379.168
 128653066.471 6 100249222.352 6  24481867.172                    24481877.559
 117492160.709 7  91552392.858 7  22358017.516                    22358028.836
 123015931.796 6  95856684.00343  23409139.266                    23409149.898
 109851104.489 8  85598394.33946  20903953.805                    20903960.098
 11  8 19  1 20 30.0000000  0  9G30G12G29G10G05G17G25G04G02
 115692970.446 7  90150450.01445  22015643.164                    22015653.047
 109057275.410 8  84979741.666 7  20752902.789                    20752911.027
 128506480.566 6 100134966.139 6  24453974.906                    24453985.711
 113590019.850 7  88511814.20645  21615446.359                    21615455.750
 107946998.955 8  84114624.365 8  20541615.797                    20541624.547
 128725149.782 6 100305391.223 6  24495584.367                    24495594.492
 117427624.749 7  91502105.126 7  22345736.906                    22345748.523
 123097846.477 6  95920513.58944  23424727.492                    23424737.883
 109875867.276 8  85617690.01246  20908665.344                    20908671.941
 11  8 19  1 21  0.0000000  0  8G30G12G29G10G05G25G04G02
 115641894.907 7  90110650.91545  22005924.211                    22005933.328
 109055929.022 7  84978692.549 7  20752646.555                    20752654.914
 128426032.410 6 100072279.333 6  24438666.242                    24438677.277
 113655725.597 7  88563013.47945  21627949.914                    21627958.527
 107906795.789 8  84083297.261 8  20533965.703                    20533973.793
 117363545.623 7  91452173.373 7  22333542.852                    22333554.129
 123179737.825 6  95984324.97744  23440311.313                    23440321.555
 109900790.581 8  85637110.77046  20913408.422                    20913415.070
 11  8 19  1 21 30.0000000  0  8G30G12G29G10G05G25G04G02
 115591367.123 8  90071278.63245  21996309.094                    21996318.691
 109055167.634 8  84978099.282 7  20752501.469                    20752509.820
 128345514.536 6 100009538.177 6  24423344.031                    24423354.660
 113721920.737 7  88614594.10045  21640546.117                    21640555.648
 107867143.761 8  84052399.616 8  20526419.844                    20526428.313
 117299925.529 7  91402599.282 7  22321436.664                    22321448.164
 123261604.873 6  96048117.45344  23455889.781                    23455900.406
 109925873.762 8  85656656.10146  20918181.555                    20918188.363
 11  8 19  1 22  0.0000000  0  8G30G12G29G10G05G25G04G02
 115541387.702 7  90032333.65845  21986798.211                    21986807.438
 109054989.831 8  84977960.745 7  20752467.641                    20752476.008
 128264926.303 6  99946742.162 6  24408008.773                    24408018.598
 113788601.620 7  88666553.22445  21653235.156                    21653245.074
 107828042.544 8  84021931.170 8  20518978.992                    20518987.445
 117236765.490 7  91353383.700 7  22309417.461                    22309428.906
 123343445.870 6  96111889.59843  23471463.852                    23471473.855
 109951114.350 8  85676324.09346  20922984.828                    20922991.121
 11  8 19  1 22 30.0000000  0  8G30G12G29G10G05G25G04G02
 115491958.604 8  89993817.50545  21977392.328                    21977401.313
 109055396.439 8  84978277.608 7  20752544.891                    20752553.145
 128184268.759 6  99883892.129 5  24392660.547                    24392670.398
 113855766.048 7  88718889.12545  21666016.266                    21666025.648
 107789493.975 8  83991893.359 8  20511643.219                    20511651.840
 117174067.970 7  91304528.528 7  22297486.227                    22297498.320
 123425260.081 7  96175640.89143  23487032.727                    23487042.285
 109976511.885 8  85696114.37446  20927817.813                    20927824.020
 11  8 19  1 23  0.0000000  0  8G30G12G29G10G05G25G04G02
 115443081.043 7  89955731.11945  21968091.258                    21968100.363
 109056386.920 8  84979049.421 7  20752733.438                    20752741.566
 128103542.330 6  99820988.423 6  24377298.430                    24377308.277
 113923411.107 7  88771599.56045  21678889.047                    21678897.934
 107751498.427 8  83962286.469 8  20504412.898                    20504421.359
 117111834.625 7  91256035.029 7  22285643.727                    22285655.688
 123507046.436 7  96239370.50444  23502596.133                    23502605.816
 110002064.654 8  85716025.62746  20932680.375                    20932686.703
 11  8 19  1 23 30.0000000  0  8G30G12G29G10G05G25G04G02
 115394757.028 7  89918076.06945  21958895.164                    21958904.770
 109057961.677 8  84980276.528 7  20753033.383                    20753041.418
 128022747.965 6  99758031.797 5  24361923.430                    24361934.207
 113991534.540 7  88824682.76045  21691852.445                    21691861.465
 107714057.378 8  83933111.658 8  20497288.141                    20497296.887
 117050068.031 7  91207905.249 7  22273889.781                    22273901.613
 123588804.482 7  96303078.05244  23518153.984                    23518164.367
 110027772.228 8  85736057.51046  20937572.523                    20937578.801
 11  8 19  1 24  0.0000000  0  8G30G12G29G10G05G25G04G02
 115346988.672 8  89880854.00045  21949805.258                    21949814.699
 109060121.706 8  84981959.676 7  20753444.125                    20753452.168
 127941886.597 6  99695022.978 6  24346536.367                    24346546.301
 114060134.501 7  88878137.28545  21704906.453                    21704915.293
 107677172.274 8  83904370.046 8  20490269.391                    20490278.117
 116988770.663 7  91160141.093 7  22262225.750                    22262236.852
 123670533.553 7  96366763.01744  23533707.164                    23533716.652
 110053634.109 8  85756209.62846  20942493.617                    20942500.484
 11  8 19  1 24 30.0000000  0  8G30G12G29G10G05G25G04G02
 115299776.846 8  89844065.60445  21940821.117                    21940830.480
 109062865.251 8  84984097.527 7  20753966.156                    20753974.383
 127860958.298 6  99631962.014 5  24331136.328                    24331146.652
 114129207.583 7  88931960.46745  21718050.313                    21718059.824
 107640844.013 8  83876062.340 8  20483356.508                    20483364.902
 116927943.943 8  91112743.675 7  22250650.563                    22250661.754
 123752232.390 7  96430424.43544  23549253.523                    23549263.391
 110079648.540 8  85776480.61446  20947443.945                    20947450.668
 11  8 19  1 25  0.0000000  0  8G30G12G29G10G05G25G04G02
 115253123.579 7  89807712.43845  21931943.148                    21931952.535
 109066193.189 8  84986690.727 8  20754599.492                    20754607.863
 127779964.417 6  99568849.925 6  24315722.984                    24315734.113
 114198751.743 7  88986150.71745  21731284.250                    21731293.363
 107605073.481 8  83848189.228 8  20476549.227                    20476557.590
 116867590.420 8  91065714.992 7  22239165.711                    22239177.129
 123833900.425 7  96494061.83244  23564794.688                    23564804.316
 110105815.055 8  85796870.10946  20952423.461                    20952429.430
 11  8 19  1 25 30.0000000  0  8G30G12G29G10G05G25G04G02
 115207030.082 8  89771795.47645  21923171.773                    21923181.113
 109070105.143 8  84989739.014 7  20755344.203                    20755352.031
 127698905.227 6  99505686.980 6  24300298.109                    24300308.367
 114268763.659 7  89040705.46145  21744607.063                    21744616.395
 107569861.328 8  83820751.213 8  20469848.523                    20469857.098
 116807711.695 8  91019056.282 7  22227771.219                    22227782.391
 123915536.595 7  96557674.40243  23580329.672                    23580339.195
 110132132.037 8  85817376.85146  20957431.414                    20957437.734
 11  8 19  1 26  0.0000000  0  8G30G12G29G10G05G25G04G02
 115161498.042 8  89736316.00445  21914507.445                    21914516.652
 109074601.136 8  84993242.392 7  20756199.594                    20756207.543
 127617781.518 6  99442473.705 6  24284861.289                    24284870.578
 114339241.322 7  89095623.11845  21758018.633                    21758027.504
 107535208.701 8  83793749.202 8  20463254.203                    20463262.914
 116748310.090 8  90972769.350 7  22216467.242                    22216478.453
 123997140.431 7  96621261.79343  23595857.742                    23595868.012
 110158598.866 8  85838000.36946  20962467.883                    20962474.730
 11  8 19  1 26 30.0000000  0  8G30G12G29G10G05G25G04G02
 115116529.366 8  89701275.50545  21905950.359                    21905959.777
 109079681.688 8  84997201.269 7  20757166.430                    20757174.297
 127536594.323 6  99379211.026 6  24269411.172                    24269421.648
 114410182.606 7  89150902.04545  21771518.438                    21771527.273
 107501116.853 8  83767184.152 8  20456766.617                    20456775.453
 116689387.951 8  90926856.032 7  22205254.781                    22205266.414
 124078711.231 7  96684823.39443  23611380.320                    23611390.063
 110185214.919 8  85858740.14846  20967532.586                    20967538.813
 11  8 19  1 27  0.0000000  0  8G30G12G29G10G05G25G04G02
 115072125.158 8  89666674.85645  21897500.117                    21897509.586
 109085346.223 8  85001615.197 7  20758244.438                    20758252.434
 127455344.281 7  99315899.336 6  24253950.352                    24253960.641
 114481584.461 7  89206539.85345  21785105.953                    21785114.969
 107467586.472 8  83741056.607 8  20450386.266                    20450394.793
 116630946.985 7  90881317.642 7  22194133.820                    22194145.375
 124160248.102 7  96748358.58543  23626896.156                    23626906.504
 110211978.984 8  85879595.27446  20972625.734                    20972632.184
 11  8 19  1 27 30.0000000  0  8G30G12G29G10G05G25G04G02
 115028286.838 8  89632515.15645  21889158.125                    21889167.914
 109091594.459 8  85006483.951 7  20759433.352                    20759441.277
 127374032.024 6  99252539.174 6  24238476.500                    24238487.004
 114553444.234 7  89262534.47245  21798780.336                    21798789.422
 107434618.573 8  83715367.365 8  20444112.773                    20444120.977
 116572989.137 8  90836155.724 7  22183104.508                    22183116.402
 124241750.303 7  96811866.71543  23642405.273                    23642415.691
 110238890.086 8  85900564.96846  20977746.961                    20977752.965
 11  8 19  1 28  0.0000000  0  8G30G12G29G10G05G25G04G02
 114985016.420 8  89598797.97345  21880924.086                    21880933.543
 109098426.643 8  85011807.726 7  20760733.383                    20760741.680
 127292658.600 7  99189131.380 6  24222992.281                    24223002.316
 114625759.765 7  89318884.24145  21812541.250                    21812550.129
 107402214.296 8  83690117.317 8  20437946.313                    20437955.152
 116515516.933 7  90791372.212 7  22172168.117                    22172179.223
 124323217.299 7  96875347.42444  23657908.430                    23657918.324
 110265947.645 8  85921648.78746  20982895.633                    20982901.977
 11  8 19  1 28 30.0000000  0  8G30G12G29G10G05G25G04G02
 114942314.667 8  89565523.91045  21872797.977                    21872807.578
 109105842.067 8  85017585.967 7  20762144.539                    20762152.129
 127211224.523 7  99125676.304 6  24207495.500                    24207506.539
 114698527.765 7  89375586.57045  21826388.539                    21826397.574
 107370373.756 8  83665306.531 8  20431887.227                    20431895.734
 116458531.677 8  90746968.156 7  22161324.328                    22161335.535
 124404648.138 7  96938799.96643  23673404.133                    23673414.227
 110293150.143 8  85942845.54746  20988072.023                    20988078.480
 11  8 19  1 29  0.0000000  0  8G30G12G29G10G05G25G04G02
 114900183.366 8  89532694.35045  21864781.016                    21864790.184
 109113841.132 8  85023819.003 7  20763666.797                    20763674.945
 127129730.508 7  99062174.540 6  24191988.086                    24191998.238
 114771746.074 7  89432639.78145  21840321.258                    21840330.746
 107339098.201 8  83640936.002 8  20425935.766                    20425943.930
 116402035.672 8  90702945.328 7  22150573.086                    22150584.469
 124486042.207 7  97002223.88943  23688893.063                    23688903.199
 110320496.900 8  85964154.71746  20993275.602                    20993282.160
 11  8 19  1 29 30.0000000  0  8G30G12G29G10G05G25G04G02
 114858623.679 8  89500310.20045  21856872.344                    21856881.688
 109122422.954 8  85030506.127 7  20765299.672                    20765307.457
 127048177.422 7  98998626.737 6  24176468.281                    24176479.730
 114845411.733 7  89490041.58945  21854339.648                    21854348.848
 107308388.207 8  83617006.167 8  20420091.609                    20420100.055
 116346030.716 8  90659305.137 7  22139915.891                    22139927.094
 124567398.746 6  97065618.51043  23704374.516                    23704384.953
 110347986.836 8  85985575.45846  20998506.867                    20998513.355
 11  8 19  1 30  0.0000000  0  8G30G12G29G10G05G25G04G02
 114817636.964 8  89468372.52045  21849072.648                    21849081.609
 109131587.522 8  85037647.347 7  20767043.734                    20767051.801
 126966566.220 6  98935033.664 6  24160938.703                    24160949.121
 114919522.158 8  89547789.95845  21868442.430                    21868451.102
 107278244.711 8  83593517.762 8  20414355.633                    20414363.715
 116290518.741 8  90616049.088 7  22129352.266                    22129363.461
 124648716.979 7  97128983.30343  23719848.625                    23719859.520
 110375619.227 8  86007107.19746  21003765.219                    21003771.973
 11  8 19  1 30 30.0000000  0  8G30G12G29G10G05G25G04G02
 114777225.156 8  89436882.81845  21841382.484                    21841392.223
 109141334.726 8  85045242.553 7  20768898.445                    20768906.586
 126884898.156 6  98871396.249 6  24145397.438                    24145408.059
 114994075.388 7  89605883.36245  21882629.727                    21882638.059
 107248668.733 8  83570471.572 8  20408727.375                    20408735.875
 116235502.228 8  90573179.111 7  22118882.836                    22118894.309
 124729996.887 6  97192318.24843  23735316.195                    23735326.590
 110403393.836 8  86028749.74746  21009050.883                    21009057.277
 11  8 19  1 31  0.0000000  0  8G30G12G29G10G05G25G04G02
 114737389.120 8  89405841.76345  21833802.180                    21833811.332
 109151664.092 8  85053291.396 7  20770863.875                    20770872.551
 126803173.692 6  98807714.893 6  24129845.484                    24129855.934
 115069068.317 7  89664319.40645  21896900.359                    21896909.180
 107219660.933 8  83547868.126 8  20403207.055                    20403216.113
 116180982.600 8  90530696.309 7  22108508.148                    22108519.387
 124811237.178 7  97255622.32744  23750775.773                    23750785.934
 110431309.197 8  86050501.99346  21014362.750                    21014369.063
 11  8 19  1 31 30.0000000  0  8G30G12G29G10G05G25G04G02
 114698129.899 8  89375250.15845  21826331.391                    21826340.543
 109162575.086 8  85061793.460 7  20772940.453                    20772948.777
 126721393.518 6  98743990.151 6  24114282.758                    24114293.824
 115144497.989 7  89723095.76345  21911253.836                    21911263.051
 107191221.499 8  83525707.560 8  20397795.367                    20397803.859
 116126961.548 8  90488601.997 7  22098228.484                    22098239.609
 124892437.168 7  97318895.01543  23766227.813                    23766238.125
 110459364.054 8  86072362.92546  21019701.547                    21019708.023
 11  8 19  1 32  0.0000000  0  8G30G12G29G10G05G25G04G02
 114659448.815 8  89345109.05245  21818970.133                    21818979.871
 109174067.220 8  85070748.361 7  20775127.102                    20775135.297
 126639558.105 6  98680222.370 6  24098710.758                    24098720.828
 115220361.712 7  89782210.34445  21925690.078                    21925699.695
 107163351.196 8  83503990.473 8  20392491.836                    20392500.418
 116073440.962 8  90446897.673 7  22088044.086                    22088054.898
 124973596.199 6  97382135.76143  23781671.453                    23781681.512
 110487557.480 8  86094331.83546  21025066.555                    21025072.984
 11  8 19  1 32 30.0000000  0  8G30G12G29G10G05G25G04G02
 114621347.494 8  89315419.71445  21811719.867                    21811728.480
 109186140.627 8  85080156.199 8  20777424.813                    20777433.043
 126557669.065 6  98616412.794 6  24083127.633                    24083137.551
 115296657.130 7  89841661.30645  21940208.969                    21940218.152
 107136050.967 8  83482717.592 8  20387296.867                    20387305.266
 116020422.988 8  90405584.994 7  22077954.781                    22077965.840
 125054713.757 6  97445344.20143  23797107.648                    23797118.836
 110515889.130 8  86116408.45946  21030457.781                    21030464.328
 11  8 19  1 33  0.0000000  0  8G30G12G29G10G05G25G04G02
 114583826.364 8  89286182.48045  21804579.547                    21804589.750
 109198793.952 8  85090015.935 7  20779832.680                    20779841.047
 126475726.590 6  98552561.594 6  24067534.383                    24067545.262
 115373380.781 7  89901445.95045  21954808.898                    21954818.324
 107109320.845 8  83461888.958 8  20382210.094                    20382218.895
 115967908.824 8  90364664.885 7  22067961.570                    22067973.383
 125135788.645 6  97508519.40943  23812536.680                    23812545.980
 110544357.105 8  86138591.32046  21035874.844                    21035881.695
 11  8 19  1 33 30.0000000  0  8G30G12G29G10G05G25G04G02
 114546887.119 7  89257398.64745  21797550.680                    21797559.980
 109212027.243 8  85100327.578 7  20782350.992                    20782359.289
 126393731.712 6  98488669.523 6  24051931.414                    24051941.383
 115450530.440 7  89961562.55245  21969490.117                    21969499.480
 107083161.831 8  83441505.338 8  20377232.328                    20377240.430
 115915900.658 8  90324139.045 7  22058064.992                    22058076.000
 125216820.687 7  97571661.23543  23827955.930                    23827965.816
 110572961.211 8  86160880.24146  21041318.008                    21041324.980
 11  8 19  1 34  0.0000000  0  8G30G12G29G10G05G25G04G02
 114510531.903 8  89229069.91145  21790632.523                    21790641.508
 109225840.923 8  85111091.482 7  20784979.727                    20784987.820
 126311686.247 6  98424738.075 6  24036318.531                    24036328.973
 115528104.387 7  90022009.75345  21984252.039                    21984260.656
 107057575.390 8  83421567.878 8  20372363.219                    20372371.785
 115864401.323 8  90284009.704 7  22048264.555                    22048276.031
 125297810.189 6  97634769.91643  23843367.500                    23843378.332
 110601701.983 8  86183275.66346  21046787.602                    21046793.809
 11  8 19  1 34 30.0000000  0  8G30G12G29G10G05G25G04G02
 114474760.263 8  89201195.89145  21783825.367                    21783834.930
 109240232.928 8  85122306.021 7  20787718.273                    20787727.000
 126229589.830 6  98360766.927 6  24020696.445                    24020706.063
 115606098.292 7  90082784.21645  21999093.797                    21999103.020
 107032560.682 8  83402075.921 8  20367603.281                    20367611.688
 115813411.004 8  90244277.006 7  22038561.398                    22038572.496
 125378755.230 7  97697843.92843  23858770.391                    23858781.648
 110630576.426 8  86205775.24646  21052281.805                    21052288.516
 11  8 19  1 35  0.0000000  0  8G30G12G29G10G05G25G04G02
 114439573.710 8  89173777.80845  21777129.555                    21777138.836
 109255202.975 8  85133970.980 7  20790567.266                    20790575.426
 126147443.660 6  98296756.959 6  24005063.789                    24005073.531
 115684510.082 7  90143884.29845  22014015.164                    22014023.977
 107008118.473 8  83383030.070 8  20362951.945                    20362960.238
 115762931.782 8  90204942.559 7  22028955.672                    22028966.473
 125459655.412 6  97760883.00543  23874165.719                    23874176.406
 110659584.111 8  86228378.64246  21057801.961                    21057808.641
 11  8 19  1 35 30.0000000  0  8G30G12G29G10G05G25G04G02
 114404973.537 8  89146816.64645  21770544.930                    21770554.758
 109270751.126 8  85146086.424 7  20793525.875                    20793533.773
 126065248.959 6  98232709.235 6  23989423.359                    23989433.410
 115763336.760 7  90205307.66245  22029015.641                    22029024.574
 106984249.226 8  83364430.673 8  20358409.906                    20358417.922
 115712965.576 8  90166007.866 7  22019447.477                    22019458.867
 125540510.228 6  97823886.71043  23889552.516                    23889562.457
 110688724.458 8  86251085.42146  21063347.000                    21063353.613
 11  8 19  1 36  0.0000000  0  8G30G12G29G10G05G25G04G02
 114370961.648 7  89120313.88945  21764073.195                    21764082.613
 109286877.067 8  85158652.096 7  20796594.305                    20796602.656
 125983007.341 7  98168624.905 6  23973772.492                    23973782.465
 115842576.543 7  90267052.92245  22044094.297                    22044103.184
 106960954.455 8  83346278.927 8  20353976.922                    20353985.223
 115663515.007 8  90127474.964 7  22010037.148                    22010048.750
 125621319.842 6  97886855.21343  23904929.266                    23904939.875
 110717997.826 8  86273895.85146  21068917.922                    21068924.602
 11  8 19  1 36 30.0000000  0  8G30G12G29G10G05G25G04G02
 114337538.100 7  89094269.58645  21757712.352                    21757721.848
 109303579.681 8  85171667.110 7  20799772.922                    20799781.086
 125900718.869 7  98104504.098 6  23958114.289                    23958123.816
 115922225.743 7  90329117.21345  22059250.695                    22059259.836
 106938233.772 8  83328574.526 8  20349652.984                    20349661.805
 115614580.750 8  90089344.388 7  22000725.570                    22000736.898
 125702082.928 6  97949787.45643  23920298.195                    23920308.184
 110747402.094 8  86296808.27146  21074513.242                    21074519.727
 11  8 19  1 37  0.0000000  0  8G30G12G29G10G05G25G04G02
 114304703.637 7  89068684.30445  21751464.336                    21751474.098
 109320857.582 8  85185130.416 7  20803060.406                    20803068.555
 125818384.305 7  98040347.349 6  23942445.742                    23942455.449
 116002281.499 7  90391498.29945  22074484.719                    22074494.227
 106916087.162 8  83311317.450 8  20345439.109                    20345447.668
 115566164.269 8  90051617.269 7  21991512.258                    21991523.586
 125782798.578 6  98012682.75743  23935657.766                    23935668.090
 110776935.835 8  86319821.58446  21080133.188                    21080140.059
 11  8 19  1 37 30.0000000  0  8G30G12G29G10G05G25G04G02
 114272459.924 7  89043559.35945  21745328.828                    21745338.207
 109338711.300 8  85199042.397 7  20806458.086                    20806466.227
 125736004.911 7  97976155.672 6  23926769.742                    23926780.266
 116082741.352 7  90454194.28245  22089795.781                    22089805.211
 106894515.589 8  83294508.454 8  20341334.172                    20341342.711
 115518267.851 8  90014295.399 7  21982397.617                    21982409.121
 125863466.976 6  98075541.21343  23951008.555                    23951019.883
 110806599.388 8  86342936.04146  21085778.023                    21085784.836
 11  8 19  1 38  0.0000000  0  8G30G12G29G10G05G25G04G02
 114240807.304 7  89018895.00745  21739305.742                    21739315.098
 109357139.339 8  85213401.917 7  20809964.672                    20809972.980
 125653581.535 7  97911929.740 6  23911085.102                    23911095.008
 116163601.877 7  90517202.47845  22105183.117                    22105191.918
 106873519.125 8  83278147.599 8  20337338.672                    20337347.355
 115470892.516 8  89977379.578 7  21973382.297                    21973393.750
 125944086.853 6  98138361.87143  23966349.406                    23966361.203
 110836390.979 8  86366150.26546  21091447.063                    21091453.758
 11  8 19  1 38 30.0000000  0  8G30G12G29G10G05G25G04G02
 114209747.358 7  88994692.47545  21733394.875                    21733404.563
 109376141.353 8  85228208.680 7  20813580.945                    20813589.320
 125571115.415 7  97847670.458 6  23895392.203                    23895401.945
 116244861.020 7  90580521.29245  22120646.281                    22120654.879
 106853098.478 8  83262235.433 8  20333452.828                    20333460.813
 115424040.541 8  89940871.553 7  21964466.539                    21964478.348
 126024658.456 6  98201144.90343  23981682.398                    23981693.086
 110866310.703 8  86389464.32846  21097140.711                    21097147.199
 11  8 19  1 39  0.0000000  0  8G30G12G29G10G05G25G04G02
 114179280.770 8  88970952.31445  21727597.148                    21727606.844
 109395716.516 8  85243462.060 7  20817305.813                    20817314.059
 125488607.413 6  97783378.561 6  23879691.234                    23879701.559
 116326515.898 7  90644148.44845  22136184.945                    22136193.660
 106833253.647 8  83246771.956 8  20329676.180                    20329684.793
 115377713.327 8  89904772.449 7  21955650.602                    21955662.227
 126105180.838 6  98263889.59043  23997004.930                    23997016.035
 110896357.361 8  86412877.29646  21102858.078                    21102865.023
 11  8 19  1 39 30.0000000  0  8G30G12G29G10G05G25G04G02
 114149408.772 7  88947675.46645  21721912.977                    21721922.266
 109415864.233 8  85259161.574 7  20821140.023                    20821147.973
 125406058.948 6  97719055.112 6  23863982.508                    23863992.500
 116408564.018 7  90708082.04045  22151797.891                    22151807.164
 106813985.232 8  83231757.639 8  20326009.398                    20326017.895
 115331912.791 8  89869083.742 7  21946935.039                    21946946.457
 126185653.929 7  98326595.86443  24012318.969                    24012329.477
 110926530.701 8  86436388.97846  21108600.500                    21108606.711
 11  8 19  1 40  0.0000000  0  8G30G12G29G10G05G25G04G02
 114120131.590 8  88924862.12045  21716341.281                    21716350.918
 109436583.421 8  85275306.401 7  20825082.617                    20825090.359
 125323470.325 7  97654700.374 6  23848266.523                    23848276.758
 116491002.032 7  90772319.45245  22167485.398                    22167494.324
 106795292.971 8  83217192.261 8  20322452.406                    20322460.578
 115286639.897 8  89833806.190 7  21938320.336                    21938331.668
 126266076.706 6  98389262.94643  24027622.813                    24027632.992
 110956829.140 8  86459998.14346  21114365.727                    21114372.758
 11  8 19  1 40 30.0000000  0  8G30G12G29G10G05G25G04G02
 114091450.125 7  88902512.94845  21710883.445                    21710893.031
 109457873.210 8  85291895.844 7  20829133.828                    20829142.453
 125240842.344 6  97590314.936 6  23832543.313                    23832553.629
 116573827.189 7  90836858.53345  22183245.977                    22183255.684
 106777177.379 8  83203076.249 8  20319005.055                    20319013.738
 115241896.223 8  89798941.025 7  21929805.688                    21929817.363
 126346448.636 6  98451890.41643  24042916.977                    24042927.547
 110987251.922 8  86483704.20046  21120154.859                    21120162.035
 11  8 19  1 41  0.0000000  0  8G30G12G29G10G05G25G04G02
 114063365.488 7  88880628.85145  21705539.508                    21705548.750
 109479733.019 8  85308929.464 7  20833293.852                    20833301.641
 125158176.918 7  97525900.339 6  23816811.906                    23816822.969
 116657036.903 7  90901697.28145  22199080.945                    22199090.203
 106759638.811 8  83189409.858 8  20315667.586                    20315676.176
 115197683.528 8  89764489.598 7  21921392.320                    21921403.996
 126426769.540 6  98514478.11743  24058202.094                    24058212.453
 111017798.830 8  86507506.98246  21125968.070                    21125974.563
 11  8 19  1 41 30.0000000  0  8G30G12G29G10G05G25G04G02
 114035878.364 7  88859210.33745  21700308.422                    21700317.805
 109502161.849 8  85326406.475 7  20837561.781                    20837570.230
 125075475.001 7  97461457.278 6  23801074.734                    23801085.152
 116740628.224 7  90966833.38045  22214987.719                    22214996.848
 106742677.608 8  83176193.365 8  20312439.719                    20312448.520
 115154003.362 8  89730453.140 7  21913080.359                    21913091.547
 126507038.801 6  98577025.58043  24073476.023                    24073486.895
 111048468.938 8  86531405.74446  21131804.359                    21131810.891
 11  8 19  1 42  0.0000000  0  8G30G12G29G10G05G25G04G02
 114008989.913 7  88838258.32845  21695191.914                    21695201.324
 109525159.118 8  85344326.422 7  20841937.789                    20841946.063
 124992737.598 6  97396986.567 6  23785329.789                    23785340.480
 116824598.799 7  91032264.99145  22230966.609                    22230976.203
 106726293.993 8  83163426.937 8  20309322.148                    20309330.453
 115110857.520 8  89696833.037 7  21904869.805                    21904881.570
 126587256.295 6  98639532.71443  24088740.469                    24088751.980
 111079261.933 8  86555400.28246  21137664.031                    21137670.754
 11  8 19  1 42 30.0000000  0  8G30G12G29G10G05G25G04G02
 113982700.010 7  88817772.70445  21690188.805                    21690198.512
 109548723.038 8  85362687.918 7  20846422.148                    20846430.469
 124909965.239 7  97332488.645 6  23769579.547                    23769589.496
 116908944.814 7  91097989.15445  22247017.805                    22247026.613
 106710487.328 8  83151110.083 8  20306314.109                    20306322.793
 115068246.599 8  89663629.755 7  21896761.281                    21896772.516
 126667420.872 6  98701998.61543  24103996.344                    24104006.621
 111110175.879 8  86579489.06046  21143546.766                    21143553.223
 11  8 19  1 43  0.0000000  0  8G30G12G29G10G05G25G04G02
 113957009.348 8  88797754.02245  21685300.547                    21685310.059
 109572852.946 8  85381490.449 7  20851013.578                    20851021.930
 124827158.966 7  97267964.286 6  23753821.398                    23753831.816
 116993663.492 7  91164003.72745  22263138.438                    22263147.574
 106695257.669 8  83139242.840 8  20303416.250                    20303424.980
 115026172.103 8  89630844.477 7  21888754.672                    21888766.086
 126747532.080 6  98764422.93343  24119240.469                    24119251.313
 111141210.127 8  86603671.58046  21149452.523                    21149459.090
 11  8 19  1 43 30.0000000  0  8G30G12G29G10G05G25G04G02
 113931919.523 8  88778203.51345  21680526.195                    21680535.355
 109597548.465 8  85400733.714 7  20855713.328                    20855721.523
 124744320.696 7  97203414.990 6  23738058.477                    23738069.004
 117078752.835 7  91230307.10745  22279330.461                    22279340.219
 106680605.963 8  83127825.937 8  20300628.102                    20300636.598
 114984636.259 8  89598478.914 7  21880850.211                    21880861.902
 126827590.330 6  98826806.00143  24134475.375                    24134485.777
 111172365.316 8  86627948.33846  21155381.211                    21155387.887
 11  8 19  1 44  0.0000000  0  8G30G12G29G10G05G25G04G02
 113907430.550 8  88759121.20645  21675865.531                    21675875.094
 109622808.215 8  85420416.637 7  20860519.914                    20860528.320
 124661450.806 7  97138841.050 6  23722288.594                    23722298.383
 117164209.406 7  91296896.65345  22295592.148                    22295601.855
 106666531.726 8  83116859.023 8  20297949.859                    20297958.188
 114943639.900 8  89566533.737 7  21873049.078                    21873060.402
 126907594.435 6  98889146.84043  24149699.273                    24149710.406
 111203639.605 8  86652317.91446  21161332.047                    21161338.789
 11  8 19  1 44 30.0000000  0  8G30G12G29G10G05G25G04G02
 113883543.153 8  88740507.65145  21671320.188                    21671329.207
 109648630.963 8  85440538.254 7  20865433.281                    20865441.965
 124578550.670 7  97074243.546 6  23706513.336                    23706522.813
 117250030.426 7  91363770.14944  22311923.250                    22311932.918
 106653034.941 8  83106342.071 8  20295381.336                    20295389.953
 114903184.496 8  89535010.059 7  21865350.922                    21865362.234
 126987544.213 6  98951445.37443  24164912.844                    24164924.250
 111235032.460 8  86676779.88346  21167306.086                    21167312.785
 11  8 19  1 45  0.0000000  0  8G30G12G29G10G05G25G04G02
 113860257.747 8  88722363.18545  21666888.883                    21666898.418
 109675015.607 8  85461097.728 7  20870454.375                    20870462.672
 124495621.381 7  97009623.366 6  23690732.242                    23690741.992
 117336212.895 7  91430925.28944  22328323.617                    22328332.996
 106640115.729 8  83096275.164 8  20292922.930                    20292931.406
 114863271.167 8  89503908.778 7  21857755.203                    21857766.820
 127067439.064 6  99013701.13143  24180116.625                    24180127.402
 111266542.979 8  86701333.53946  21173302.422                    21173309.488
 11  8 19  1 45 30.0000000  0  8G30G12G29G10G05G25G04G02
 113837575.473 8  88704688.67945  21662572.625                    21662582.328
 109701961.901 8  85482094.837 7  20875582.234                    20875590.328
 124412664.461 7  96944981.644 6  23674946.094                    23674955.902
 117422754.704 7  91498360.46644  22344791.773                    22344800.695
 106627774.723 8  83086658.813 8  20290574.633                    20290582.887
 114823901.961 8  89473231.488 7  21850263.773                    21850275.012
 127147278.832 6  99075913.94443  24195309.789                    24195320.797
 111298171.272 8  86725978.96846  21179321.203                    21179327.523
 11  8 19  1 46  0.0000000  0  8G30G12G29G10G05G25G04G02
 113815496.368 8  88687484.17945  21658371.430                    21658380.445
 109729467.896 8  85503528.086 7  20880816.609                    20880824.922
 124329680.694 7  96880319.042 6  23659154.438                    23659164.375
 117509652.520 7  91566073.03544  22361328.281                    22361337.027
 106616011.247 8  83077492.481 8  20288336.148                    20288344.598
 114785077.572 8  89442978.732 7  21842875.711                    21842887.164
 127227063.028 6  99138083.44043  24210492.570                    24210503.465
 111329915.897 8  86750715.03946  21185362.133                    21185368.707
 11  8 19  1 46 30.0000000  0  8G30G12G29G10G05G25G04G02
 113794020.696 8  88670749.88845  21654284.523                    21654293.691
 109757532.381 8  85525396.524 7  20886157.063                    20886165.508
 124246670.686 7  96815635.950 6  23643358.797                    23643368.156
 117596902.985 7  91634060.40044  22377931.289                    22377940.109
 106604824.991 8  83068775.951 8  20286207.367                    20286215.676
 114746799.119 8  89413151.377 7  21835591.758                    21835602.906
 127306790.900 6  99200209.02543  24225663.758                    24225674.605
 111361775.733 8  86775540.89046  21191424.500                    21191431.359
 11  8 19  1 47  0.0000000  0  8G30G12G29G10G05G25G04G02
 113773149.871 8  88654486.90445  21650313.156                    21650322.449
 109786155.101 7  85547699.947 7  20891603.531                    20891611.758
 124163636.637 7  96750934.162 6  23627557.289                    23627567.516
 117684504.239 7  91702321.10444  22394601.648                    22394610.059
 106594216.307 8  83060509.464 8  20284188.469                    20284196.844
 114709068.718 8  89383751.079 7  21828412.070                    21828423.207
 127386462.629 6  99262290.83843  24240825.703                    24240835.898
 111393751.478 7  86800457.05746  21197509.492                    21197516.328
 11  8 19  1 47 30.0000000  0  9G30G12G29G10G05G26G25G04G02
 113752883.581 8  88638694.99245  21646456.492                    21646465.809
 109815334.002 8  85570436.760 7  20897156.406                    20897164.926
 124080578.928 7  96686213.934 6  23611752.000                    23611762.410
 117772452.579 7  91770852.27744  22411337.633                    22411346.359
 106584184.741 8  83052692.682 8  20282279.820                    20282287.965
 130572041.71116                  24847041.648
 114671886.846 8  89354778.204 7  21821336.055                    21821347.305
 127466077.756 6  99324328.59943  24255975.242                    24255985.926
 111425841.430 8  86825462.22446  21203615.719                    21203622.594
 11  8 19  1 48  0.0000000  0  9G30G12G29G10G05G26G25G04G02
 113733222.947 8  88623375.02645  21642715.242                    21642724.313
 109845068.945 8  85593606.839 7  20902814.609                    20902822.832
 123997499.583 7  96621476.856 6  23595941.781                    23595952.367
 117860745.852 7  91839652.21644  22428139.430                    22428147.816
 106574730.925 8  83045326.095 8  20280480.688                    20280489.129
 130480162.292 6 101672929.47253  24829557.172                    24829568.250
 114635255.413 8  89326234.236 7  21814365.805                    21814376.730
 127545635.907 6  99386321.94843  24271115.039                    24271125.023
 111458045.633 8  86850556.42746  21209743.750                    21209750.289
 11  8 19  1 48 30.0000000  0  9G30G12G29G10G05G26G25G04G02
 113714168.394 8  88608527.33745  21639089.188                    21639098.336
 109875358.261 8  85617208.906 7  20908578.398                    20908586.988
 123914399.794 7  96556723.863 6  23580129.133                    23580139.047
 117949381.162 7  91908718.68344  22445005.961                    22445015.063
 106565854.806 8  83038409.661 8  20278791.469                    20278800.039
 130388145.495 6 101601228.16843  24812046.578                    24812058.012
 114599175.687 8  89298120.170 7  21807499.961                    21807511.359
 127625137.059 6  99448270.85943  24286243.828                    24286253.766
 111490363.296 7  86875739.03046  21215894.117                    21215900.395
 11  8 19  1 49  0.0000000  0  9G30G12G29G10G05G26G25G04G02
 113695719.674 8  88594151.72745  21635578.219                    21635587.531
 109906200.391 7  85641241.737 7  20914447.289                    20914455.508
 123831279.890 7  96491955.173 6  23564310.922                    23564321.609
 118038355.148 7  91978049.03644  22461937.000                    22461945.824
 106557555.155 8  83031942.422 8  20277212.078                    20277220.414
 130295993.719 6 101529421.72343  24794511.188                    24794521.934
 114563648.239 8  89270436.458 7  21800739.180                    21800750.395
 127704580.365 6  99510174.69143  24301361.516                    24301371.492
 111522793.417 7  86901009.26946  21222065.211                    21222071.574
 11  8 19  1 49 30.0000000  0  9G30G12G29G10G05G26G25G04G02
 113677877.219 8  88580248.53245  21632183.039                    21632192.535
 109937593.831 8  85665704.162 7  20920421.492                    20920429.496
 123748141.457 7  96427172.058 6  23548490.883                    23548501.199
 118127664.818 7  92047640.95644  22478932.008                    22478941.105
 106549832.095 8  83025924.480 8  20275742.531                    20275750.746
 130203709.632 6 101457512.16343  24776949.406                    24776960.715
 114528674.271 8  89243184.027 7  21794083.672                    21794095.223
 127783965.419 6  99572033.17143  24316468.148                    24316478.168
 111555335.237 8  86926366.55346  21228257.664                    21228263.996
 11  8 19  1 50  0.0000000  0  9G30G12G29G10G05G26G25G04G02
 113660641.166 8  88566817.87545  21628903.477                    21628912.578
 109969537.175 8  85690595.077 7  20926500.313                    20926508.359
 123664985.340 7  96362375.143 6  23532667.180                    23532676.793
 118217306.985 7  92117491.96144  22495990.297                    22495999.684
 106542684.979 8  83020355.323 8  20274382.305                    20274390.668
 130111296.164 6 101385501.78143  24759363.211                    24759375.258
 114494254.781 8  89216363.662 7  21787534.438                    21787545.125
 127863291.853 6  99633845.95843  24331563.063                    24331573.988
 111587988.069 8  86951810.32746  21234471.328                    21234477.879
 11  8 19  1 50 30.0000000  0  9G30G12G29G10G05G26G25G04G02
 113644011.990 8  88553860.08945  21625738.961                    21625748.168
 110002029.517 8  85715913.778 7  20932683.234                    20932691.340
 123581812.715 7  96297565.373 6  23516839.586                    23516850.016
 118307279.042 7  92187600.01644  22513111.305                    22513121.270
 106536113.961 8  83015235.059 8  20273131.789                    20273140.203
 130018756.356 6 101313392.95943  24741754.133                    24741764.973
 114460391.011 8  89189976.336 7  21781089.883                    21781100.719
 127942559.348 6  99695612.83843  24346647.133                    24346657.961
 111620751.360 8  86977340.18446  21240705.883                    21240712.801
 11  8 19  1 51  0.0000000  0  9G30G12G29G10G05G26G25G04G02
 113627989.771 8  88541375.27945  21622689.914                    21622698.805
 110035069.207 8  85741658.990 7  20938970.063                    20938978.480
 123498625.315 7  96232744.079 6  23501009.602                    23501019.418
 118397578.032 7  92257962.84544  22530294.773                    22530304.215
 106530118.436 8  83010563.241 8  20271990.938                    20271999.102
 129926092.742 6 101241187.66143  24724121.055                    24724132.031
 114427083.894 8  89164022.763 7  21774751.789                    21774762.867
 128021767.414 6  99757333.38743  24361719.305                    24361730.887
 111653624.165 8  87002955.36246  21246961.023                    21246967.793
 11  8 19  1 51 30.0000000  0  9G30G12G29G10G05G26G25G04G02
 113612574.793 8  88529363.63845  21619756.313                    21619765.891
 110068655.175 8  85767829.862 7  20945361.695                    20945369.938
 123415424.092 7  96167912.017 6  23485176.852                    23485187.090
 118488201.262 7  92328578.30444  22547539.977                    22547549.293
 106524698.235 8  83006339.725 8  20270959.484                    20270967.961
 129833308.306 6 101168888.23743  24706464.414                    24706475.289
 114394334.575 8  89138503.850 7  21768519.633                    21768530.711
 128100915.989 6  99819007.59043  24376781.563                    24376792.086
 111686606.362 7  87028655.78146  21253237.766                    21253244.406
 11  8 19  1 52  0.0000000  0  9G30G12G29G10G05G26G25G04G02
 113597767.316 8  88517825.37245  21616938.516                    21616947.367
 110102785.732 7  85794425.093 7  20951856.539                    20951864.770
 123332210.441 7  96103070.273 6  23469341.781                    23469351.785
 118579145.942 7  92399444.25544  22564846.156                    22564855.855
 106519853.042 8  83002564.262 8  20270037.805                    20270046.359
 129740406.124 6 101096497.04643  24688785.211                    24688796.551
 114362144.119 8  89113420.413 7  21762394.141                    21762405.230
 128180004.667 6  99880635.11343  24391831.703                    24391842.129
 111719697.012 7  87054440.72346  21259534.484                    21259541.195
 11  8 19  1 52 30.0000000  0  9G30G12G29G10G05G26G25G04G02
 113583567.539 8  88506760.65045  21614236.305                    21614245.758
 110137459.733 7  85821443.791 7  20958454.852                    20958463.402
 123248985.561 7  96038219.748 6  23453504.586                    23453514.770
 118670409.091 7  92470558.35944  22582213.391                    22582222.309
 106515582.468 8  82999236.554 8  20269224.984                    20269233.180
 129647388.824 6 101024016.19143  24671084.367                    24671095.879
 114330513.566 8  89088773.271 7  21756374.750                    21756386.340
 128259033.291 6  99942215.89943  24406870.477                    24406880.512
 111752895.622 7  87080309.78146  21265852.234                    21265858.762
 11  8 19  1 53  0.0000000  0  9G30G12G29G10G05G26G25G04G02
 113569975.586 8  88496169.54545  21611649.773                    21611659.465
 110172675.441 8  85848884.586 7  20965156.258                    20965164.422
 123165750.734 7  95973361.489 6  23437666.219                    23437675.680
 118761987.767 7  92541918.33344  22599640.031                    22599649.266
 106511885.996 8  82996356.202 8  20268521.531                    20268529.910
 129554259.308 6 100951447.85043  24653363.352                    24653373.348
 114299443.797 7  89064563.095 7  21750462.359                    21750473.879
 128338001.448 6 100003749.52043  24421896.984                    24421907.840
 111786201.453 8  87106262.40746  21272189.695                    21272196.168
 11  8 19  1 53 30.0000000  0  9G30G12G29G10G05G26G25G04G02
 113556991.485 8  88486052.09345  21609179.102                    21609188.094
 110208431.520 7  85876746.462 7  20971960.180                    20971968.570
 123082507.092 7  95908496.351 6  23421824.727                    23421834.859
 118853878.800 7  92613521.71544  22617126.516                    22617135.445
 106508763.067 8  82993922.769 8  20267927.172                    20267935.453
 129461020.816 6 100878794.61643  24635619.750                    24635631.309
 114268935.804 8  89040790.673 7  21744657.172                    21744668.145
 128416908.662 6 100065235.68943  24436912.539                    24436923.516
 111819613.979 7  87132298.16346  21278548.211                    21278554.543
 11  8 19  1 54  0.0000000  0  9G30G12G29G10G05G26G25G04G02
 113544615.469 8  88476408.48345  21606823.945                    21606833.102
 110244726.606 7  85905028.329 7  20978866.859                    20978875.121
 122999256.151 7  95843625.510 6  23405982.797                    23405992.715
 118946079.664 7  92685366.55644  22634671.539                    22634680.973
 106506213.594 8  82991936.180 8  20267442.078                    20267450.063
 129367676.288 6 100806058.75042  24617856.164                    24617867.957
 114238990.690 8  89017456.852 7  21738958.734                    21738969.824
 128495754.987 6 100126674.38243  24451915.898                    24451926.875
 111853132.670 7  87158416.63646  21284926.461                    21284932.844
 11  8 19  1 54 30.0000000  0  9G30G12G29G10G05G26G25G04G02
 113532847.746 8  88467238.84046  21604584.906                    21604593.891
 110281559.541 8  85933729.313 7  20985875.938                    20985884.512
 122915999.317 7  95778750.072 6  23390139.438                    23390148.961
 119038587.263 7  92757450.39344  22652275.023                    22652283.875
 106504237.146 8  82990396.105 8  20267065.859                    20267074.504
 129274228.443 6 100733242.38142  24600074.242                    24600084.613
 114209609.362 8  88994562.337 7  21733367.391                    21733378.602
 128574540.175 6 100188065.45842  24466908.242                    24466919.707
 111886757.286 8  87184617.64746  21291325.305                    21291331.320
 11  8 19  1 55  0.0000000  0  9G30G12G29G10G05G26G25G04G02
 113521688.249 8  88458543.15645  21602460.781                    21602470.152
 110318928.272 8  85962847.786 7  20992987.391                    20992995.383
 122832737.811 7  95713870.983 6  23374294.664                    23374305.066
 119131398.956 7  92829771.17144  22669936.703                    22669945.391
 106502833.448 8  82989302.328 8  20266798.789                    20266806.996
 129180680.443 6 100660347.92842  24582272.867                    24582283.328
 114180792.744 8  88972107.853 7  21727884.094                    21727894.770
 128653263.998 6 100249408.71443  24481889.313                    24481899.992
 111920486.868 7  87210900.45446  21297743.609                    21297749.965
 11  8 19  1 55 30.0000000  0  9G30G12G29G10G05G26G25G04G02
 113511136.968 8  88450321.39745  21600453.445                    21600462.852
 110356831.023 8  85992382.387 7  21000199.875                    21000208.266
 122749472.797 6  95648989.179 6  23358450.352                    23358459.895
 119224511.529 7  92902326.39744  22687655.344                    22687664.453
 106502001.524 8  82988654.096 8  20266640.547                    20266648.625
 129087035.118 6 100587377.63342  24564451.828                    24564463.082
 114152541.566 8  88950093.979 7  21722508.000                    21722518.586
 128731926.020 6 100310703.78643  24496858.023                    24496869.152
 111954320.701 8  87237264.47946  21304181.961                    21304188.734
 11  8 19  1 56  0.0000000  0  9G30G12G29G10G05G26G25G04G02
 113501193.712 8  88442573.42146  21598561.281                    21598570.414
 110395266.674 8  86022332.240 7  21007513.695                    21007522.164
 122666205.853 6  95584105.860 6  23342604.930                    23342614.703
 119317922.276 7  92975113.98244  22705430.430                    22705440.051
 106501740.773 8  82988450.933 8  20266590.914                    20266599.008
 128993295.244 6 100514333.68942  24546613.492                    24546624.508
 114124856.693 8  88928521.363 7  21717239.391                    21717250.398
 128810525.999 6 100371950.53243  24511814.672                    24511826.047
 111988258.607 7  87263709.60546  21310640.141                    21310646.855
 11  8 19  1 56 30.0000000  0  9G30G12G29G10G05G26G25G04G02
 113491858.527 8  88435299.26345  21596784.883                    21596793.980
 110434233.463 8  86052695.962 7  21014928.977                    21014937.395
 122582938.233 6  95519222.007 6  23326760.000                    23326769.430
 119411628.196 6  93048131.53044  22723262.336                    22723271.379
 106502050.894 8  82988692.603 8  20266649.625                    20266658.180
 128899463.993 6 100441218.53543  24528758.406                    24528769.277
 114097738.853 8  88907390.593 7  21712079.320                    21712090.309
 128889063.645 6 100433148.67742  24526760.523                    24526771.137
 112022299.669 8  87290235.12146  21317117.695                    21317124.531
 11  8 19  1 57  0.0000000  0  9G30G12G29G10G05G26G25G04G02
 113483131.425 8  88428498.92746  21595123.945                    21595133.246
 110473730.073 8  86083472.530 7  21022444.602                    21022453.145
 122499671.441 6  95454338.822 6  23310914.547                    23310924.172
 119505626.308 6  93121376.82044  22741149.734                    22741159.199
 106502931.279 8  82989378.630 8  20266817.219                    20266825.207
 128805544.442 6 100368034.54443  24510886.180                    24510896.781
 114071189.048 8  88886702.442 7  21707027.023                    21707037.836
 128967538.817 6 100494298.14343  24541694.164                    24541704.168
 112056443.738 8  87316840.89646  21323615.414                    21323621.664
 11  8 19  1 57 30.0000000  0  9G30G12G29G10G05G26G25G04G02
 113475012.219 8  88422172.26946  21593579.125                    21593588.270
 110513754.646 8  86114660.503 7  21030061.242                    21030069.746
 122416406.592 6  95389457.143 6  23295069.820                    23295079.051
 119599913.911 6  93194847.67844  22759092.500                    22759101.313
 106504381.135 8  82990508.396 8  20267093.258                    20267101.551
 128711539.333 6 100294783.87443  24492997.828                    24493008.211
 114045207.932 8  88866457.420 7  21702082.930                    21702094.008
 129045951.290 6 100555398.77043  24556616.055                    24556625.949
 112090689.949 7  87343526.27346  21330132.516                    21330139.043
 11  8 19  1 58  0.0000000  0  9G30G12G29G10G05G26G25G04G02
 113467500.541 8  88416319.00145  21592149.641                    21592158.711
 110554304.950 8  86146258.135 7  21037777.727                    21037786.152
 122333145.026 7  95324578.033 6  23279225.688                    23279234.906
 119694488.180 7  93268541.88444  22777089.469                    22777097.867
 106506399.704 8  82992081.327 8  20267477.578                    20267485.668
 128617451.839 6 100221468.99843  24475093.586                    24475103.504
 114019796.066 8  88846655.950 7  21697247.078                    21697258.430
 129124300.824 6 100616450.34743  24571524.992                    24571535.734
 112125037.639 8  87370290.71946  21336668.570                    21336675.102
 11  8 19  1 58 30.0000000  0  9G30G12G29G10G05G26G25G04G02
 113460596.468 8  88410939.19645  21590836.086                    21590844.813
 110595379.701 8  86178264.426 7  21045594.422                    21045602.461
 122249888.442 7  95259702.783 6  23263382.445                    23263391.980
 119789345.977 7  93342457.00844  22795139.609                    22795148.703
 106508986.403 8  82994096.952 8  20267969.586                    20267977.598
 128523284.913 6 100148092.25443  24457174.141                    24457184.602
 113994954.322 8  88827298.746 7  21692519.883                    21692531.230
 129202587.174 6 100677452.69542  24586422.508                    24586433.184
 112159486.758 8  87397134.19146  21343223.844                    21343230.277
 11  8 19  1 59  0.0000000  0  9G30G12G29G10G05G26G25G04G02
 113454299.810 8  88406032.70446  21589637.555                    21589646.441
 110636977.564 8  86210678.336 7  21053509.789                    21053518.516
 122166638.218 7  95194832.527 6  23247540.859                    23247550.703
 119884484.380 7  93416590.79744  22813243.961                    22813253.656
 106512140.672 8  82996554.818 8  20268569.883                    20268578.219
 128429041.630 6 100074656.00343  24439239.945                    24439250.352
 113970683.452 8  88808386.376 7  21687901.063                    21687912.469
 129280810.192 7 100738405.69142  24601307.461                    24601318.465
 112194036.590 7  87424056.13546  21349798.492                    21349804.746
 11  8 19  1 59 30.0000000  0  9G30G12G29G10G05G26G25G04G02
 113448610.356 8  88401599.33946  21588555.461                    21588564.281
 110679096.471 8  86243498.257 7  21061524.797                    21061532.918
 122083395.349 7  95129967.987 7  23231699.680                    23231709.852
 119979900.831 6  93490941.25944  22831401.578                    22831410.969
 106515861.664 8  82999454.308 8  20269278.180                    20269286.336
 128334725.132 6 100001162.69643  24421292.461                    24421302.273
 113946984.131 8  88789919.367 7  21683391.477                    21683402.570
 129358969.660 6 100799309.22442  24616181.438                    24616191.410
 112228686.452 7  87451056.02746  21356392.016                    21356398.563
 11  8 19  2  0  0.0000000  0  9G30G12G29G10G05G26G25G04G02
 113443527.882 8  88397638.97145  21587587.938                    21587596.887
 110721734.790 8  86276722.927 7  21069638.875                    21069647.254
 122000161.788 7  95065110.700 6  23215861.148                    23215870.887
 120075592.269 7  93565506.00844  22849610.688                    22849619.863
 106520148.799 8  83002794.938 8  20270093.766                    20270101.953
 128240338.472 6  99927614.73143  24403331.180                    24403341.336
 113923857.000 7  88771898.218 7  21678990.422                    21679002.023
 129437065.416 6 100860163.01942  24631042.547                    24631052.777
 112263436.139 7  87478133.70946  21363004.547                    21363011.027
 11  8 19  2  0 30.0000000  0  9G30G12G29G10G05G26G25G04G02
 113439052.104 8  88394151.33646  21586735.922                    21586745.668
 110764890.796 8  86310350.975 7  21077851.039                    21077859.855
 121916938.921 7  95000261.779 6  23200024.398                    23200034.715
 120171555.575 7  93640282.61044  22867872.258                    22867881.648
 106525001.505 8  83006576.273 8  20271017.266                    20271025.230
 128145884.822 6  99854014.58043  24385357.078                    24385367.211
 113901302.795 8  88754323.503 7  21674698.773                    21674710.367
 129515097.408 6 100920967.17843  24645891.242                    24645901.664
 112298285.221 8  87505288.84346  21369636.078                    21369642.535
 11  8 19  2  1  0.0000000  0  9G30G12G29G10G05G26G25G04G02
 113435182.866 8  88391136.32746  21585999.789                    21586008.855
 110808562.614 8  86344380.964 7  21086161.320                    21086169.813
 121833728.014 7  94935422.168 6  23184189.391                    23184199.184
 120267788.105 7  93715268.96844  22886184.461                    22886193.543
 106530418.915 8  83010797.643 8  20272048.133                    20272056.559
 128051367.128 7  99780364.51643  24367370.813                    24367380.992
 113879322.056 8  88737195.644 7  21670515.805                    21670527.473
 129593065.477 6 100981721.51243  24660728.156                    24660738.961
 112333232.915 8  87532520.81246  21376286.594                    21376293.145
 11  8 19  2  1 30.0000000  0  8G30G12G29G10G05G26G25G02
 113431919.834 7  88388593.69946  21585379.070                    21585388.352
 110852748.667 8  86378811.658 7  21094570.117                    21094578.090
 121750530.925 7  94870593.320 6  23168358.102                    23168367.582
 120364287.048 6  93790462.91344  22904547.367                    22904556.645
 106536400.137 8  83015458.345 8  20273186.250                    20273194.910
 127956788.838 6  99706667.23743  24349372.898                    24349383.828
 113857915.530 8  88720515.234 7  21666442.523                    21666453.852
 112368279.117 8  87559829.55046  21382955.367                    21382961.785
 11  8 19  2  2  0.0000000  0  8G30G12G29G10G05G26G25G02
 113429262.840 8  88386523.30646  21584873.633                    21584882.570
 110897447.276 8  86413641.743 7  21103075.555                    21103084.363
 121667348.973 7  94805776.280 6  23152528.320                    23152539.297
 120461049.665 6  93865862.33644  22922960.461                    22922969.930
 106542944.528 8  83020557.879 8  20274431.617                    20274439.754
 127862153.094 6  99632925.22143  24331364.734                    24331374.828
 113837083.905 8  88704282.793 7  21662478.188                    21662489.793
 112403423.371 8  87587214.68346  21389643.297                    21389649.879
 11  8 19  2  2 30.0000000  0  8G30G12G29G10G05G26G25G02
 113427211.255 8  88384924.67045  21584482.867                    21584492.211
 110942656.075 8  86448869.377 7  21111678.445                    21111686.848
 121584183.303 7  94740971.915 6  23136702.898                    23136712.398
 120558072.754 6  93941464.72744  22941423.633                    22941432.734
 106550050.918 8  83026095.337 8  20275783.789                    20275792.066
 127767462.629 6  99559140.54443  24313345.961                    24313355.375
 113816827.367 8  88688498.483 7  21658623.914                    21658634.711
 112438665.141 8  87614675.81246  21396349.719                    21396356.430
 11  8 19  2  3  0.0000000  0  8G30G12G29G10G05G26G25G02
 113425764.437 8  88383797.26746  21584207.750                    21584216.941
 110988373.499 8  86484493.351 7  21120378.477                    21120386.672
 121501035.521 7  94676181.497 6  23120880.000                    23120889.809
 120655353.397 6  94017267.82243  22959935.656                    22959944.684
 106557718.401 8  83032070.018 8  20277242.945                    20277251.258
 127672720.494 6  99485315.59143  24295317.055                    24295326.523
 113797146.309 8  88673162.603 7  21654878.570                    21654889.676
 112474003.626 8  87642212.30546  21403074.164                    21403080.777
 11  8 19  2  3 30.0000000  0  8G30G12G29G10G05G26G25G02
 113424921.853 8  88383140.70746  21584047.484                    21584056.238
 111034596.763 8  86520511.479 7  21129174.578                    21129182.871
 121417906.966 7  94611406.035 6  23105061.617                    23105071.238
 120752888.764 6  94093269.38344  22978496.000                    22978505.387
 106565945.870 8  83038481.038 8  20278808.586                    20278816.633
 127577929.639 6  99411452.69443  24277278.922                    24277288.641
 113778041.140 8  88658275.459 7  21651242.852                    21651254.004
 112509438.369 8  87669823.80446  21409817.609                    21409823.863
 11  8 19  2  4  0.0000000  0  8G30G12G29G10G05G26G25G02
 113424683.392 8  88382954.90045  21584001.781                    21584010.992
 111081324.761 8  86556922.909 7  21138066.219                    21138074.480
 121334799.502 7  94546647.006 6  23089246.773                    23089255.816
 120850676.220 6  94169467.39444  22997104.398                    22997112.930
 106574733.092 8  83045328.244 8  20280480.453                    20280488.742
 127483093.549 6  99337554.55343  24259231.406                    24259241.840
 113759512.530 8  88643837.607 7  21647716.891                    21647728.055
 112544969.182 8  87697510.14746  21416578.781                    21416584.914
 11  8 19  2  4 30.0000000  0  8G30G12G29G10G05G26G25G02
 113425048.316 8  88383239.26346  21584071.695                    21584080.602
 111128555.795 8  86593726.309 7  21147053.891                    21147062.863
 121251714.232 7  94481905.311 6  23073436.008                    23073445.656
 120948712.716 7  94245859.44044  23015760.750                    23015769.668
 106584078.629 8  83052610.499 8  20282258.883                    20282267.254
 127388215.252 6  99263623.50543  24241176.508                    24241186.965
 113741560.728 8  88629849.201 7  21644300.633                    21644311.969
 112580595.440 8  87725270.86446  21423358.141                    21423364.645
 11  8 19  2  5  0.0000000  0  8G30G12G29G10G05G26G25G02
 113426015.969 8  88383993.28846  21584255.422                    21584264.758
 111176287.058 8  86630919.493 7  21156137.125                    21156145.516
 121168652.566 7  94417181.976 6  23057629.914                    23057639.211
 121046995.138 6  94322443.13944  23034462.906                    23034471.980
 106593981.195 8  83060326.804 8  20284143.313                    20284151.547
 127293297.911 6  99189662.03543  24223114.047                    24223124.965
 113724186.039 8  88616310.497 7  21640994.633                    21641006.098
 112616316.766 8  87753105.67146  21430155.563                    21430162.297
 11  8 19  2  5 30.0000000  0  8G30G12G29G10G05G26G25G02
 113427586.145 8  88385216.81345  21584554.492                    21584563.219
 111224517.448 8  86668501.620 7  21165315.250                    21165323.762
 121085616.644 7  94352478.714 6  23041828.461                    23041838.023
 121145520.842 7  94399216.39544  23053211.500                    23053220.754
 106604440.544 8  83068476.964 8  20286133.742                    20286142.105
 127198344.897 6  99115672.76343  24205045.313                    24205055.797
 113707389.182 8  88603222.053 7  21637798.500                    21637809.426
 112652133.072 8  87781014.48646  21436971.219                    21436977.625
 11  8 19  2  6  0.0000000  0  8G30G12G29G10G05G26G25G02
 113429758.112 8  88386909.25846  21584967.813                    21584976.996
 111273244.218 8  86706470.524 7  21174587.180                    21174595.918
 121002607.813 7  94287796.545 6  23026032.414                    23026041.699
 121244286.745 6  94476176.82444  23072006.406                    23072015.371
 106615455.334 8  83077059.946 8  20288229.633                    20288237.715
 127103359.179 7  99041658.00943  24186969.992                    24186979.723
 113691170.283 8  88590583.971 7  21634712.008                    21634722.992
 112688043.501 8  87808996.65346  21443804.883                    21443811.047
 11  8 19  2  6 30.0000000  0  8G30G12G29G10G05G26G25G02
 113432531.098 7  88389070.03945  21585495.000                    21585503.914
 111322465.631 8  86744824.864 7  21183954.039                    21183962.430
 120919627.281 7  94223136.421 6  23010241.898                    23010251.391
 121343289.895 7  94553322.12744  23090845.664                    23090855.188
 106627024.235 8  83086074.691 8  20290431.633                    20290439.293
 127008344.063 7  98967620.31043  24168889.938                    24168899.320
 113675529.538 8  88578396.406 7  21631735.367                    21631746.789
 112724047.782 8  87837051.95746  21450656.031                    21450662.430
 11  8 19  2  7  0.0000000  0  8G30G12G29G10G05G26G25G02
 113435904.502 7  88391698.66846  21586136.914                    21586146.250
 111372179.527 8  86783562.954 7  21193414.414                    21193422.457
 120836676.923 7  94158499.799 6  22994456.508                    22994466.434
 121442527.661 6  94630650.21944  23109730.000                    23109739.758
 106639146.382 8  83095520.542 8  20292738.008                    20292745.871
 126913302.582 7  98893562.07343  24150803.773                    24150814.203
 113660467.281 8  88566659.594 7  21628869.070                    21628880.516
 112760145.511 8  87865180.06346  21457525.344                    21457531.527
 11  8 19  2  7 30.0000000  0  8G30G12G29G10G05G26G25G02
 113439877.803 7  88394794.75045  21586893.063                    21586902.461
 111422384.193 8  86822683.471 7  21202968.031                    21202976.434
 120753758.175 7  94093887.802 6  22978677.750                    22978687.516
 121541997.236 7  94708158.93044  23128658.750                    23128667.711
 106651820.875 8  83105396.795 8  20295149.961                    20295158.105
 126818238.160 7  98819485.94643  24132713.008                    24132722.785
 113645983.941 8  88555373.913 7  21626112.945                    21626124.316
 112796336.352 8  87893380.72946  21464412.617                    21464418.887
 11  8 19  2  8  0.0000000  0  8G30G12G29G10G05G26G25G02
 113444450.240 7  88398357.69845  21587763.523                    21587772.445
 111473077.408 8  86862184.665 7  21212614.492                    21212622.648
 120670872.654 7  94029301.713 6  22962905.617                    22962915.129
 121641695.684 6  94785845.99943  23147630.094                    23147639.914
 106665046.354 8  83115702.392 8  20297666.477                    20297674.641
 126723153.900 7  98745394.37543  24114618.992                    24114628.914
 113632079.629 8  88544539.390 7  21623467.070                    21623478.285
 112832619.904 8  87921653.63146  21471316.633                    21471322.918
 11  8 19  2  8 30.0000000  0  8G30G12G29G10G05G26G25G02
 113449621.208 8  88402387.02445  21588747.570                    21588756.184
 111524257.095 8  86902064.941 7  21222353.633                    21222362.137
 120588022.153 7  93964742.882 6  22947138.953                    22947148.500
 121741620.473 6  94863709.45943  23166645.063                    23166654.965
 106678822.172 8  83126436.811 8  20300287.695                    20300296.176
 126628053.109 7  98671289.92143  24096522.492                    24096531.824
 113618754.679 8  88534156.340 7  21620931.500                    21620942.441
 112868996.087 8  87949998.72546  21478238.500                    21478245.094
 11  8 19  2  9  0.0000000  0  8G30G12G29G10G05G26G25G02
 113455389.720 7  88406881.98845  21589844.992                    21589854.289
 111575921.271 8  86942322.726 7  21232184.828                    21232193.535
 120505207.980 7  93900212.379 6  22931380.648                    22931390.203
 121841768.494 6  94941746.86944  23185703.219                    23185712.410
 106693146.697 8  83137598.794 8  20303013.977                    20303022.059
 126532939.060 6  98597175.13743  24078422.523                    24078432.117
 113606009.116 8  88524224.739 7  21618506.141                    21618517.734
 112905464.187 8  87978415.44746  21485178.578                    21485185.109
 11  8 19  2  9 30.0000000  0  8G30G12G29G10G05G26G25G02
 113461754.943 8  88411841.89745  21591056.445                    21591065.121
 111628067.343 8  86982956.013 7  21242108.094                    21242116.840
 120422431.776 7  93835711.441 6  22915628.086                    22915637.773
 121942136.657 7  95019955.79043  23204802.711                    23204812.043
 106708018.414 8  83149187.156 8  20305843.711                    20305851.797
 126437814.610 7  98523052.24543  24060321.016                    24060330.781
 113593842.990 8  88514744.658 7  21616190.977                    21616201.805
 112942023.814 8  88006903.47246  21492135.109                    21492141.941
 11  8 19  2 10  0.0000000  0  8G30G12G29G10G05G26G25G02
 113468716.143 8  88417266.22645  21592380.742                    21592389.797
 111680693.059 8  87023963.062 7  21252122.609                    21252130.750
 120339695.122 7  93771241.328 6  22899884.219                    22899894.113
 122042722.170 7  95098334.11143  23223943.297                    23223952.273
 106723436.450 8  83161201.228 8  20308777.484                    20308785.727
 126342683.509 6  98448924.17443  24042218.094                    24042227.871
 113582256.528 8  88505716.266 7  21613985.891                    21613996.824
 112978674.593 8  88035462.52646  21499109.914                    21499116.379
 11  8 19  2 10 30.0000000  0  8G30G12G29G10G05G26G25G02
 113476272.858 8  88423154.58045  21593819.164                    21593827.738
 111733797.250 8  87065342.947 7  21262228.156                    21262236.320
 120257000.114 7  93706803.668 6  22884148.070                    22884157.098
 122143522.757 7  95176880.01944  23243125.000                    23243134.121
 106739400.239 8  83173640.551 8  20311815.508                    20311823.695
 126247549.035 6  98374793.47843  24024113.844                    24024124.277
 113571250.292 8  88497139.992 7  21611891.461                    21611902.777
 113015416.627 8  88064092.68346  21506101.422                    21506108.207
 11  8 19  2 11  0.0000000  0  8G30G12G29G10G05G26G25G02
 113484423.836 8  88429506.01045  21595369.836                    21595378.957
 111787376.999 8  87107093.385 7  21272424.133                    21272432.043
 120174348.076 7  93642399.487 7  22868419.953                    22868429.609
 122244535.024 7  95255590.86344  23262347.125                    23262355.918
 106755908.067 8  83186503.808 8  20314957.078                    20314964.941
 126152414.422 6  98300662.68943  24006010.711                    24006020.754
 113560823.767 8  88489015.450 7  21609907.680                    21609918.703
 113052249.174 8  88092793.35146  21513110.953                    21513117.262
 11  8 19  2 11 30.0000000  0  8G30G12G29G10G05G26G25G02
 113493168.239 7  88436319.83545  21597034.109                    21597043.230
 111841430.421 8  87149212.924 7  21282709.781                    21282718.379
 120091740.840 7  93578030.223 7  22852700.602                    22852709.609
 122345756.228 7  95334464.50244  23281609.211                    23281618.379
 106772958.581 8  83199789.932 8  20318201.641                    20318209.676
 126057282.704 6  98226534.16543  23987907.891                    23987917.973
 113550977.210 8  88481342.824 7  21608033.414                    21608045.152
 113089171.637 7  88121564.10246  21520136.883                    21520143.125
 11  8 19  2 12  0.0000000  0  8G30G12G29G10G05G26G25G02
 113502505.455 8  88443595.60045  21598810.414                    21598819.789
 111895955.144 8  87191699.713 7  21293086.078                    21293093.922
 120009180.029 7  93513697.152 7  22836989.047                    22836999.426
 122447183.701 7  95413498.88244  23300909.969                    23300919.223
 106790550.655 8  83213498.051 8  20321549.172                    20321557.117
 125962157.454 6  98152410.67843  23969806.180                    23969816.598
 113541710.866 8  88474122.312 7  21606270.500                    21606282.020
 113126184.536 8  88150405.32046  21527180.242                    21527186.898
 11  8 19  2 12 30.0000000  0  8G30G12G29G10G05G26G25G02
 113512434.243 8  88451332.33345  21600700.063                    21600709.188
 111950948.913 8  87234551.991 7  21303550.523                    21303558.895
 119926667.102 7  93449401.398 7  22821287.609                    22821297.324
 122548814.684 7  95492691.84244  23320249.805                    23320259.125
 106808683.077 8  83227627.212 8  20324999.570                    20325007.551
 125867042.074 6  98078294.85543  23951706.266                    23951716.434
 113533024.547 8  88467353.761 7  21604617.438                    21604628.676
 113163287.344 8  88179316.59946  21534240.594                    21534246.742
 11  8 19  2 13  0.0000000  0  8G30G12G29G10G05G26G25G02
 113522953.664 8  88459529.30345  21602702.039                    21602710.664
 112006409.481 8  87277768.005 7  21314104.508                    21314113.047
 119844203.922 7  93385144.414 6  22805595.352                    22805605.215
 122650646.498 6  95572041.27344  23339627.727                    23339637.152
 106827354.465 8  83242176.359 8  20328552.508                    20328560.613
 125771939.631 6  98004189.13843  23933608.164                    23933618.953
 113524918.240 8  88461037.181 7  21603074.781                    21603086.305
 113200479.536 8  88208297.54046  21541318.242                    21541324.566
 11  8 19  2 13 30.0000000  0  8G30G12G29G10G05G26G25G02
 113534062.883 8  88468185.85345  21604815.883                    21604824.840
 112062334.854 8  87321346.206 7  21324746.516                    21324755.219
 119761792.219 7  93320927.564 7  22789912.875                    22789922.402
 122752676.209 6  95651544.93544  23359042.797                    23359052.902
 106846563.651 8  83257144.557 8  20332208.008                    20332216.230
 125676853.745 6  97930096.31643  23915514.172                    23915524.359
 113517392.000 8  88455172.591 7  21601642.664                    21601654.242
 113237761.000 8  88237348.03146  21548412.414                    21548418.863
 11  8 19  2 14  0.0000000  0  8G30G12G29G10G05G26G25G02
 113545760.736 8  88477301.06745  21607041.961                    21607051.195
 112118722.184 8  87365284.378 7  21335476.664                    21335484.672
 119679433.962 7  93256752.347 6  22774240.563                    22774249.641
 122854900.689 6  95731200.34744  23378495.922                    23378505.488
 106866309.055 8  83272530.603 8  20335965.703                    20335973.918
 125581787.395 6  97856018.69943  23897423.758                    23897433.902
 113510445.622 8  88449759.860 7  21600320.734                    21600332.094
 113275131.024 8  88266467.54446  21555523.359                    21555530.336
 11  8 19  2 14 30.0000000  0  8G30G12G29G10G05G26G25G02
 113558046.012 8  88486874.02345  21609379.500                    21609388.328
 112175569.369 8  87409580.880 7  21346294.453                    21346302.969
 119597130.542 7  93192619.878 6  22758578.508                    22758588.074
 122957317.189 6  95811005.41343  23397985.102                    23397994.141
 106886589.191 8  83288333.309 8  20339824.563                    20339832.297
 125486744.057 6  97781959.03143  23879337.406                    23879347.387
 113504078.866 8  88444798.772 7  21599109.000                    21599120.414
 113312589.407 8  88295655.89246  21562651.820                    21562658.465
 11  8 19  2 15  0.0000000  0  8G30G12G29G10G05G26G25G02
 113570917.932 8  88496904.10845  21611829.141                    21611838.027
 112232874.290 7  87454234.054 7  21357199.383                    21357207.547
 119514883.523 7  93128531.376 7  22742927.398                    22742937.293
 123059923.249 6  95890958.17143  23417509.938                    23417519.801
 106907402.763 8  83304551.683 8  20343785.242                    20343793.234
 125391726.990 6  97707919.81844  23861256.539                    23861266.453
 113498291.801 8  88440289.397 7  21598007.648                    21598019.246
 113350136.279 8  88324913.20345  21569796.641                    21569803.281
 11  8 19  2 15 30.0000000  0  8G30G12G29G10G05G26G25G02
 113584375.173 8  88507390.28445  21614389.555                    21614398.996
 112290634.405 7  87499241.919 7  21368190.578                    21368198.863
 119432694.770 7  93064488.281 6  22727287.516                    22727296.625
 123162715.859 7  95971056.31543  23437070.836                    23437080.551
 106928748.358 8  83321184.617 8  20347847.078                    20347855.168
 125296739.892 6  97633903.95143  23843180.945                    23843191.063
 113493084.146 8  88436231.501 7  21597017.219                    21597028.051
 113387771.060 8  88354239.02146  21576958.406                    21576964.691
 11  8 19  2 16  0.0000000  0  8G30G12G29G10G05G26G25G02
 113598416.585 8  88518331.66145  21617061.836                    21617070.887
 112348847.383 7  87544602.670 7  21379268.188                    21379276.754
 119350565.890 7  93000491.851 7  22711658.820                    22711668.402
 123265692.416 7  96051297.81544  23456666.969                    23456675.902
 106950624.562 8  83338231.020 8  20352009.984                    20352018.191
 125201785.867 6  97559913.85644  23825112.055                    23825121.844
 113488455.741 8  88432624.974 7  21596136.359                    21596147.027
 113425493.855 8  88383633.42545  21584136.594                    21584143.105
 11  8 19  2 16 30.0000000  0  8G30G12G29G10G05G26G25G02
 113613040.958 8  88529727.28545  21619844.734                    21619853.797
 112407510.947 7  87590314.524 7  21390431.633                    21390439.867
 119268498.554 7  92936543.366 6  22696041.813                    22696051.027
 123368850.151 7  96131680.47043  23476297.297                    23476306.754
 106973029.651 8  83355689.537 8  20356273.828                    20356281.926
 125106868.221 6  97485952.09443  23807049.336                    23807059.066
 113484406.271 8  88429469.559 7  21595365.609                    21595377.215
 113463303.964 8  88413095.87046  21591331.953                    21591337.813
 11  8 19  2 17  0.0000000  0  8G30G12G29G10G05G26G25G02
 113628247.255 8  88541576.34345  21622738.508                    21622747.934
 112466622.599 7  87636375.539 7  21401679.781                    21401688.473
 119186494.902 7  92872644.515 6  22680436.914                    22680446.801
 123472186.170 6  96212202.04043  23495961.438                    23495971.027
 106995962.490 8  83373559.295 8  20360637.875                    20360645.941
 125011990.519 6  97412021.48444  23788994.719                    23789004.605
 113480935.685 8  88426765.215 7  21594705.039                    21594716.195
 113501201.420 8  88442626.38946  21598543.336                    21598549.805
 11  8 19  2 17 30.0000000  0  8G30G12G29G10G05G26G25G02
 113644034.223 8  88553877.87545  21625742.664                    21625751.668
 112526180.047 7  87682783.917 7  21413013.703                    21413021.938
 119104556.486 7  92808796.491 6  22664844.680                    22664853.660
 123575697.855 7  96292860.48243  23515658.906                    23515667.895
 107019421.590 8  83391839.127 8  20365101.609                    20365109.961
 124917156.145 6  97338124.64444  23770948.945                    23770958.441
 113478043.594 8  88424511.650 7  21594154.914                    21594166.164
 113539185.425 8  88472224.34645  21605771.680                    21605777.727
 11  8 19  2 18  0.0000000  0  8G30G12G29G10G05G26G25G02
 113660400.632 8  88566630.93445  21628857.086                    21628866.031
 112586180.752 7  87729537.719 7  21424431.844                    21424439.625
 119022685.317 7  92745000.872 6  22649265.023                    22649274.703
 123679382.384 6  96373653.62143  23535389.688                    23535398.836
 107043405.286 8  83410527.743 8  20369665.539                    20369673.727
 124822368.314 6  97264264.04243  23752911.266                    23752921.020
 113475729.787 8  88422708.693 7  21593714.602                    21593725.750
 113577256.430 8  88501890.09546  21613016.328                    21613022.523
 11  8 19  2 18 30.0000000  0  9G30G12G29G10G05G26G25G15G02
 113677345.458 8  88579834.69245  21632081.805                    21632090.441
 112646622.656 7  87776635.295 7  21435933.125                    21435941.563
 118940883.309 7  92681259.161 6  22633698.227                    22633707.813
 123783237.046 6  96454579.32343  23555152.508                    23555162.031
 107067912.613 8  83429624.371 8  20374329.180                    20374337.371
 124727630.947 7  97190442.76743  23734883.414                    23734892.762
 113473994.191 8  88421356.291 7  21593384.188                    21593395.258
 129494136.03116                  24641916.547
 113615414.325 8  88531623.55246  21620277.313                    21620283.762
 11  8 19  2 19  0.0000000  0  9G30G12G29G10G05G26G25G15G02
 113694867.060 8  88593487.88045  21635415.898                    21635425.074
 112707503.352 7  87824074.801 7  21447518.352                    21447526.191
 118859151.812 7  92617572.387 7  22618145.633                    22618154.199
 123887259.044 6  96535635.39043  23574947.094                    23574956.512
 107092941.427 8  83449127.363 8  20379092.063                    20379100.027
 124632947.000 7  97116663.11643  23716865.141                    23716874.781
 113472836.020 8  88420453.822 7  21593163.883                    21593174.844
 129401239.993 6 100832162.68816  24624238.617                    24624250.023
 113653658.509 8  88561424.22446  21627554.883                    21627561.203
 11  8 19  2 19 30.0000000  0  9G30G12G29G10G05G26G25G15G02
 113712963.938 8  88607589.33845  21638859.664                    21638868.484
 112768819.632 7  87871853.720 7  21459185.836                    21459194.500
 118777492.771 7  92553942.066 7  22602605.922                    22602615.262
 123991445.279 6  96616819.47443  23594773.203                    23594782.379
 107118489.853 8  83469035.243 8  20383953.711                    20383961.703
 124538319.871 7  97042927.73743  23698858.070                    23698867.980
 113472254.860 8  88420000.979 7  21593053.250                    21593064.320
 129308211.206 6 100759672.912 6  24606536.273                    24606546.945
 113691988.586 8  88591291.82545  21634848.906                    21634855.219
 11  8 19  2 20  0.0000000  0  9G30G12G29G10G05G26G25G15G02
 113731635.173 8  88622138.33945  21642412.594                    21642421.297
 112830569.261 7  87919970.318 7  21470936.805                    21470945.301
 118695907.977 7  92490369.596 7  22587080.930                    22587089.938
 124095793.576 6  96698129.84443  23614630.195                    23614639.492
 107144556.874 8  83489347.221 8  20388914.156                    20388922.223
 124443753.253 6  96969239.49944  23680862.555                    23680872.465
 113472250.589 8  88419997.638 7  21593052.461                    21593063.387
 129215051.895 6 100687081.391 6  24588808.508                    24588819.391
 113730404.464 8  88621226.28546  21642159.398                    21642165.551
 11  8 19  2 20 30.0000000  0  9G30G12G29G10G05G26G25G15G02
 113750879.346 8  88637133.79045  21646074.750                    21646083.652
 112892749.982 7  87968422.833 7  21482769.477                    21482777.883
 118614399.270 7  92426856.400 7  22571570.695                    22571579.523
 124200301.058 6  96779564.22343  23634516.672                    23634526.527
 107171140.963 8  83510062.115 8  20393972.656                    20393981.016
 124349250.709 6  96895601.22543  23662879.203                    23662888.613
 113472822.820 8  88420443.520 7  21593161.375                    21593172.086
 129121764.746 6 100614390.282 6  24571056.383                    24571067.738
 113768906.383 8  88651227.79245  21649485.766                    21649492.105
 11  8 19  2 21  0.0000000  0  9G30G12G29G10G05G26G25G15G02
 113770695.062 8  88652574.59346  21649845.484                    21649854.145
 112955359.464 8  88017209.442 7  21494683.672                    21494691.824
 118532968.532 7  92363403.948 7  22556074.164                    22556083.621
 124304965.098 7  96861120.55943  23654433.844                    23654443.484
 107198240.157 8  83531178.381 8  20399129.641                    20399137.629
 124254815.373 6  96822015.28443  23644908.734                    23644918.766
 113473971.090 8  88421338.259 7  21593379.695                    21593390.879
 129028352.026 6 100541601.303 6  24553280.602                    24553291.359
 113807493.914 8  88681296.00146  21656828.570                    21656835.465
 11  8 19  2 21 30.0000000  0  9G30G12G29G10G05G26G25G15G02
 113791080.727 8  88668459.51845  21653724.727                    21653733.645
 113018394.791 8  88066327.884 7  21506678.805                    21506687.219
 118451617.574 7  92300013.653 7  22540593.336                    22540603.047
 124409783.007 7  96942796.86543  23674380.188                    23674389.879
 107225852.928 8  83552694.846 8  20404384.320                    20404392.301
 124160450.920 6  96748484.59243  23626952.180                    23626961.789
 113475694.767 8  88422681.378 7  21593707.781                    21593719.066
 128934816.031 6 100468716.281 6  24535480.547                    24535491.809
 113846166.926 8  88711430.80945  21664188.156                    21664194.848
 11  8 19  2 22  0.0000000  0  9G30G12G29G10G05G26G25G15G02
 113812034.983 8  88684787.49645  21657712.367                    21657721.445
 113081853.791 8  88115776.458 7  21518754.453                    21518762.730
 118370348.370 7  92236687.064 7  22525128.016                    22525137.879
 124514751.913 7  97024590.82443  23694354.945                    23694365.109
 107253977.600 8  83574610.183 8  20409735.914                    20409743.859
 124066160.786 6  96675011.82344  23609008.711                    23609018.484
 113477993.451 8  88424472.543 7  21594145.359                    21594156.219
 128841159.372 6 100395737.201 6  24517658.461                    24517669.105
 113884925.145 8  88741632.03045  21671563.844                    21671570.168
 11  8 19  2 22 30.0000000  0  9G30G12G29G10G05G26G25G15G02
 113833556.623 8  88701557.59145  21661807.695                    21661816.836
 113145733.978 8  88165553.222 7  21530910.766                    21530918.820
 118289162.988 7  92173425.779 7  22509679.664                    22509688.887
 124619869.140 6  97106500.34743  23714357.836                    23714367.332
 107282612.843 8  83596923.365 8  20415185.477                    20415193.434
 123971948.457 6  96601599.64144  23591080.773                    23591090.379
 113480866.752 8  88426711.477 7  21594691.727                    21594703.176
 128747384.773 6 100322666.222 6  24499813.742                    24499824.145
 113923768.559 8  88771899.61845  21678955.508                    21678962.066
 11  8 19  2 23  0.0000000  0  9G30G12G29G10G05G26G25G15G02
 113855644.023 8  88718768.53145  21666011.109                    21666020.098
 113210032.729 8  88215656.145 7  21543146.164                    21543154.676
 118208063.083 7  92110231.083 7  22494246.953                    22494255.719
 124725132.247 7  97188523.53643  23734388.992                    23734398.305
 107311756.915 8  83619633.046 8  20420731.055                    20420739.336
 123877817.565 6  96528250.96744  23573167.805                    23573178.285
 113484314.127 8  88429397.719 7  21595348.383                    21595359.258
 128653494.524 6 100249505.117 6  24481946.344                    24481957.164
 113962696.919 8  88802233.41145  21686362.914                    21686369.262
 11  8 19  2 23 30.0000000  0  9G30G12G29G10G05G26G25G15G02
 113878295.385 8  88736418.93045  21670321.133                    21670330.316
 113274746.977 8  88266082.833 7  21555461.242                    21555469.297
 118127050.295 7  92047104.272 7  22478830.898                    22478840.012
 124830538.148 7  97270657.99543  23754447.328                    23754456.855
 107341407.507 8  83642737.408 8  20426373.477                    20426381.715
 123783771.391 7  96454968.27044  23555272.148                    23555281.863
 113488334.620 8  88432530.568 7  21596113.195                    21596124.258
 128559491.174 6 100176255.922 6  24464057.297                    24464068.848
 114001710.088 8  88832633.28345  21693786.766                    21693792.945
 11  8 19  2 24  0.0000000  0  9G30G12G29G10G05G26G25G15G02
 113901509.383 8  88754507.74145  21674738.758                    21674747.797
 113339874.588 8  88316831.615 7  21567854.492                    21567862.637
 118046126.607 7  91984046.890 7  22463431.359                    22463440.461
 124936084.238 7  97352901.70543  23774531.781                    23774541.734
 107371563.060 8  83666235.255 8  20432112.047                    20432120.047
 123689813.426 7  96381754.31344  23537392.445                    23537402.406
 113492927.877 8  88436109.708 7  21596986.891                    21596998.434
 128465377.387 6 100102920.680 5  24446148.547                    24446159.348
 114040807.924 8  88863099.15045  21701226.953                    21701233.840
 11  8 19  2 24 30.0000000  0  9G30G12G29G10G05G26G25G15G02
 113925284.561 8  88773033.84645  21679262.945                    21679272.316
 113405413.218 8  88367900.672 7  21580326.102                    21580334.313
 117965294.291 7  91921060.703 7  22448049.227                    22448058.438
 125041767.981 6  97435252.66243  23794641.961                    23794652.668
 107402222.420 8  83690125.677 8  20437946.539                    20437954.227
 123595947.473 7  96308612.06344  23519530.086                    23519540.457
 113498093.382 8  88440134.777 7  21597970.305                    21597981.246
 128371155.737 6 100029501.315 5  24428219.359                    24428229.070
 114079990.479 7  88893631.04145  21708683.172                    21708689.891
 11  8 19  2 25  0.0000000  0  9G30G12G29G10G05G26G25G15G02
 113949619.259 8  88791995.93645  21683893.484                    21683902.848
 113471359.891 8  88419287.695 7  21592875.203                    21592883.445
 117884554.965 7  91858146.971 7  22432685.344                    22432694.438
 125147587.010 6  97517709.07243  23814779.547                    23814788.582
 107433383.686 8  83714407.192 8  20443875.805                    20443884.078
 123502176.590 7  96235543.88444  23501686.258                    23501695.602
 113503830.427 8  88444605.200 7  21599061.891                    21599073.293
 128276828.682 6  99955999.860 5  24410269.133                    24410278.781
 114119257.515 7  88924228.74745  21716155.383                    21716161.730
 11  8 19  2 25 30.0000000  0  9G30G12G29G10G05G26G25G15G02
 113974511.568 8  88811392.51445  21688630.859                    21688639.676
 113537711.618 8  88470990.334 7  21605501.297                    21605510.016
 117803910.425 7  91795307.099 7  22417339.094                    22417347.590
 125253538.024 7  97600268.31043  23834942.102                    23834950.531
 107465044.434 8  83739077.913 8  20449900.859                    20449908.813
 123408504.472 7  96162552.67844  23483861.094                    23483870.551
 113510137.930 8  88449520.136 7  21600262.492                    21600273.363
 128182398.438 6  99882417.952 5  24392299.094                    24392309.691
 114158608.560 7  88954891.91045  21723643.414                    21723650.117
 11  8 19  2 26  0.0000000  0  9G30G12G29G10G05G26G25G15G02
 113999959.737 8  88831222.24845  21693473.063                    21693482.551
 113604465.744 8  88523006.530 7  21618204.016                    21618212.719
 117723362.721 7  91732542.686 7  22402011.664                    22402020.246
 125359618.543 6  97682928.44243  23855128.070                    23855137.813
 107497202.994 8  83764136.541 8  20456019.953                    20456028.422
 123314934.385 7  96089640.96444  23466055.102                    23466064.402
 113517015.241 8  88454879.077 7  21601570.969                    21601582.328
 128087867.923 7  99808757.913 5  24374311.547                    24374320.930
 114198043.568 7  88985620.50645  21731147.656                    21731154.473
 11  8 19  2 26 30.0000000  0  9G30G12G29G10G05G26G25G15G02
 114025962.481 8  88851484.11945  21698421.578                    21698430.254
 113671620.033 8  88575334.539 7  21630983.484                    21630991.961
 117642913.696 7  91669855.171 7  22386702.500                    22386711.375
 125465826.116 6  97765687.60743  23875338.828                    23875348.191
 107529857.971 8  83789581.985 8  20462234.211                    20462242.301
 123221470.220 7  96016811.78344  23448270.055                    23448278.754
 113524461.867 8  88460681.650 7  21602987.891                    21602998.953
 127993239.841 7  99735021.832 5  24356303.352                    24356314.145
 114237562.586 7  89016414.55945  21738667.703                    21738674.141
 11  8 19  2 27  0.0000000  0  9G30G12G29G10G05G26G25G15G02
 114052518.188 8  88872176.89145  21703474.742                    21703483.621
 113739171.926 7  88627972.371 7  21643838.422                    21643846.387
 117562565.514 7  91607246.237 7  22371412.352                    22371421.707
 125572158.120 6  97848543.71443  23895572.922                    23895582.516
 107563007.654 8  83815412.919 8  20468542.359                    20468550.234
 123128115.637 7  95944068.01544  23430504.313                    23430514.379
 113532477.189 8  88466927.358 7  21604513.156                    21604524.613
 127898516.659 7  99661211.718 6  24338278.664                    24338288.781
 114277165.771 7  89047274.20145  21746204.023                    21746210.617
 11  8 19  2 27 30.0000000  0  9G30G12G29G10G05G26G25G15G02
 114079624.854 8  88893298.96845  21708633.031                    21708642.117
 113807118.538 7  88680917.785 7  21656767.875                    21656776.512
 117482320.066 7  91544717.367 7  22356142.203                    22356150.879
 125678611.540 7  97931494.45043  23915830.945                    23915839.988
 107596649.533 8  83841627.375 8  20474944.773                    20474952.508
 123034873.937 7  95871412.17344  23412761.266                    23412770.672
 113541060.060 8  88473615.327 7  21606146.234                    21606157.293
 127803700.758 7  99587329.342 6  24320235.398                    24320246.000
 114316852.425 7  89078198.88845  21753756.445                    21753762.879
 11  8 19  2 28  0.0000000  0  9G30G12G29G10G05G26G25G15G02
 114107280.922 8  88914849.16145  21713895.398                    21713904.887
 113875457.688 7  88734169.052 7  21669772.406                    21669781.086
 117402179.348 7  91482270.104 7  22340891.867                    22340901.172
 125785184.439 6  98014538.26243  23936110.492                    23936119.844
 107630782.431 8  83868224.460 8  20481439.695                    20481447.598
 122941748.627 7  95798847.05244  23395040.031                    23395049.930
 113550209.933 8  88480745.100 7  21607887.664                    21607898.988
 127708795.085 7  99513377.016 6  24302175.727                    24302186.039
 114356623.075 7  89109189.00945  21761324.297                    21761331.207
 11  8 19  2 28 30.0000000  0  9G30G12G29G10G05G26G25G15G02
 114135484.605 8  88936826.05645  21719262.359                    21719271.820
 113944186.125 8  88787723.674 7  21682851.125                    21682859.449
 117322145.240 7  91419905.930 7  22325661.734                    22325670.648
 125891873.780 6  98097672.82343  23956412.508                    23956421.410
 107665404.223 8  83895202.496 8  20488027.891                    20488035.840
 122848743.480 6  95726375.53644  23377341.867                    23377351.051
 113559925.888 8  88488315.990 7  21609736.555                    21609747.953
 127613802.016 7  99439356.594 6  24284098.781                    24284109.539
 114396477.490 8  89140244.41745  21768908.445                    21768914.684
 11  8 19  2 29  0.0000000  0  9G30G12G29G10G05G26G25G15G02
 114164234.000 8  88959228.19045  21724733.531                    21724742.844
 114013300.941 7  88841579.353 7  21696003.117                    21696011.340
 117242219.581 7  91357626.280 7  22310452.484                    22310461.535
 125998676.908 6  98180896.05143  23976737.273                    23976745.727
 107700512.842 8  83922559.873 8  20494708.742                    20494716.836
 122755861.842 6  95654000.28044  23359666.859                    23359676.289
 113570206.952 8  88496327.223 7  21611692.430                    21611703.965
 127518724.284 6  99365270.193 6  24266006.000                    24266016.148
 114436415.668 8  89171365.09245  21776508.867                    21776515.070
 11  8 19  2 29 30.0000000  0  9G30G12G29G10G05G26G25G15G02
 114193527.451 8  88982054.26745  21730307.922                    21730316.996
 114082799.955 8  88895734.417 7  21709228.523                    21709236.785
 117162404.555 7  91295432.828 7  22295264.016                    22295273.285
 126105591.431 6  98264206.08743  23997081.039                    23997091.648
 107736106.627 8  83950295.314 8  20501482.297                    20501490.289
 122663107.323 6  95581724.05643  23342016.344                    23342025.723
 113581052.369 8  88504778.212 7  21613756.602                    21613767.996
 127423564.824 6  99291120.120 6  24247897.242                    24247908.145
 114476437.674 8  89202551.08745  21784124.508                    21784130.605
 11  8 19  2 30  0.0000000  0  9G30G12G29G10G05G26G25G15G02
 114223363.028 8  89005302.77845  21735985.617                    21735994.762
 114152679.907 8  88950186.321 7  21722526.148                    21722534.352
 117082702.121 7  91233327.132 7  22280097.328                    22280106.648
 126212614.523 6  98347600.70343  24017447.938                    24017457.121
 107772183.382 8  83978407.077 8  20508347.070                    20508355.508
 122570483.685 6  95509549.83144  23324390.406                    23324399.813
 113592461.058 8  88513668.115 7  21615927.578                    21615938.578
 127328325.927 6  99216908.145 6  24229773.891                    24229784.680
 114516542.895 7  89233801.92945  21791755.977                    21791762.371
 11  8 19  2 30 30.0000000  0  9G30G12G29G10G05G26G25G15G02
 114253739.073 8  89028972.44445  21741765.578                    21741775.129
 114222938.551 8  89004933.305 7  21735895.906                    21735904.363
 117003114.386 7  91171310.811 7  22264952.008                    22264960.859
 126319744.137 6  98431078.35943  24037833.352                    24037843.004
 107808741.734 8  84006894.133 8  20515304.188                    20515312.051
 122477994.404 6  95437480.30944  23306790.484                    23306800.285
 113604432.369 8  88522996.428 7  21618205.641                    21618217.012
 127233010.378 6  99142636.458 6  24211635.586                    24211646.926
 114556731.627 7  89265117.82945  21799403.633                    21799410.051
 11  8 19  2 31  0.0000000  0  9G30G12G29G10G05G26G25G15G02
 114284653.723 8  89053061.78645  21747648.484                    21747657.668
 114293573.168 7  89059973.254 7  21749337.219                    21749345.734
 116923643.320 7  91109385.410 7  22249829.336                    22249837.980
 126426977.331 6  98514636.67843  24058239.453                    24058249.352
 107845779.562 8  84035754.805 8  20522352.070                    20522360.090
 122385643.238 6  95365518.41944  23289216.734                    23289225.785
 113616965.271 8  88532762.340 7  21620590.664                    21620601.668
 127137620.993 6  99068307.192 6  24193484.398                    24193493.785
 114597003.849 7  89296498.77845  21807067.422                    21807073.379
 11  8 19  2 31 30.0000000  0  9G30G12G29G10G05G26G25G15G02
 114316105.124 8  89077569.37345  21753633.602                    21753642.996
 114364581.168 7  89115304.146 7  21762849.867                    21762858.078
 116844291.124 7  91047552.631 7  22234729.063                    22234737.922
 126534311.658 6  98598273.85443  24078664.695                    24078673.613
 107883295.187 8  84064987.782 8  20529491.289                    20529499.063
 122293433.869 7  95293666.98544  23271669.148                    23271678.793
 113630058.877 8  88542965.162 7  21623082.445                    21623093.723
 127042160.491 6  98993922.471 6  24175318.719                    24175328.063
 114637359.934 7  89327945.08845  21814746.992                    21814753.227
 11  8 19  2 32  0.0000000  0  9G30G12G29G10G05G26G25G15G02
 114348090.921 7  89102493.38345  21759720.273                    21759729.680
 114435959.121 7  89170923.318 7  21776432.180                    21776440.855
 116765059.252 7  90985813.616 7  22219651.227                    22219660.754
 126641744.366 6  98681987.66143  24099107.805                    24099117.465
 107921285.771 8  84094590.854 8  20536720.352                    20536728.313
 122201369.454 7  95221928.53244  23254150.516                    23254159.840
 113643711.704 8  88553603.740 7  21625680.219                    21625691.391
 126946630.954 7  98919483.960 5  24157139.711                    24157149.566
 114677799.251 7  89359456.26145  21822441.898                    21822448.891
 11  8 19  2 32 30.0000000  0  9G30G12G29G10G05G26G25G15G02
 114380608.971 8  89127832.13045  21765908.352                    21765917.426
 114507703.984 7  89226828.401 7  21790085.289                    21790093.184
 116685949.980 7  90924170.125 7  22204597.477                    22204606.379
 126749273.037 6  98765776.24443  24119569.984                    24119579.305
 107959749.398 8  84124562.529 8  20544039.805                    20544047.586
 122109453.266 7  95150305.56944  23236659.188                    23236668.758
 113657922.578 8  88564677.167 7  21628384.664                    21628396.320
 126851035.179 7  98844993.776 5  24138948.195                    24138958.320
 114718321.393 8  89391031.97145  21830153.297                    21830159.227
 11  8 19  2 33  0.0000000  0  9G30G12G29G10G05G26G25G15G02
 114413657.883 8  89153584.53045  21772197.094                    21772206.664
 114579813.719 7  89283017.792 7  21803807.203                    21803815.758
 116606965.463 7  90862623.833 7  22189566.922                    22189576.086
 126856895.327 6  98849637.77743  24140049.914                    24140059.176
 107998684.702 7  84154901.737 8  20551449.000                    20551456.859
 122017689.699 7  95078801.52544  23219197.180                    23219206.664
 113672690.905 8  88576184.963 7  21631194.578                    21631205.785
 126755376.081 7  98770454.268 5  24120746.016                    24120754.531
 114758926.875 7  89422672.62445  21837880.609                    21837886.770
 11  8 19  2 33 30.0000000  0  9G30G12G29G10G05G26G25G15G02
 114447235.739 8  89179749.09945  21778587.141                    21778596.168
 114652285.300 7  89339489.133 7  21817598.406                    21817606.387
 116528107.952 7  90801176.502 7  22174560.680                    22174569.844
 126964608.479 6  98933570.11443  24160547.430                    24160556.914
 108038089.797 8  84185607.024 8  20558947.547                    20558955.410
 121926082.285 7  95007419.16444  23201764.758                    23201774.359
 113688015.676 8  88588126.365 7  21634111.000                    21634122.316
 126659656.529 7  98695867.671 6  24102529.359                    24102540.016
 114799615.864 7  89454378.32145  21845623.313                    21845629.289
 11  8 19  2 34  0.0000000  0  9G30G12G29G10G05G26G25G15G02
 114481340.301 8  89206324.08545  21785076.969                    21785085.848
 114725116.184 7  89396240.462 7  21831457.227                    21831465.367
 116449379.218 7  90739829.503 7  22159579.242                    22159587.973
 127072410.065 6  99017571.34143  24181061.711                    24181070.895
 108077962.183 8  84216676.426 8  20566534.844                    20566543.012
 121834634.404 7  94936161.11444  23184362.633                    23184372.246
 113703895.557 8  88600500.307 7  21637132.672                    21637143.902
 126563879.195 6  98621236.059 6  24084303.938                    24084314.734
 114840388.336 7  89486149.08345  21853382.039                    21853387.996
 11  8 19  2 34 30.0000000  0  9G30G12G29G10G05G26G25G15G02
 114515969.718 8  89233308.03445  21791666.734                    21791675.926
 114798303.444 7  89453269.490 7  21845384.406                    21845392.215
 116370781.566 7  90678584.654 7  22144622.594                    22144631.648
 127180297.682 6  99101639.61143  24201591.914                    24201600.586
 108118300.205 8  84248108.669 8  20574211.109                    20574218.809
 121743349.788 7  94865030.28244  23166992.625                    23167001.234
 113720329.572 8  88613306.040 7  21640260.320                    21640271.430
 126468046.765 6  98546561.557 6  24066067.688                    24066077.367
 114881244.484 7  89517985.04645  21861156.242                    21861163.148
 11  8 19  2 35  0.0000000  0  9G30G12G29G10G05G26G25G15G02
 114551121.539 8  89260699.05945  21798355.164                    21798364.695
 114871843.724 7  89510573.613 7  21859378.609                    21859386.711
 116292316.520 7  90617443.125 7  22129691.227                    22129699.730
 127288268.678 6  99185772.85743  24222136.984                    24222147.148
 108159101.151 8  84279901.631 8  20581975.602                    20581983.457
 121652231.686 7  94794029.20244  23149652.836                    23149661.980
 113737316.210 8  88626542.391 7  21643492.203                    21643503.727
 126372161.843 6  98471846.151 6  24047821.602                    24047831.367
 114922183.667 7  89549885.71645  21868946.508                    21868952.898
 11  8 19  2 35 30.0000000  0  9G30G12G29G10G05G26G25G15G02
 114586793.779 8  89288495.60945  21805144.164                    21805153.156
 114945734.387 7  89568150.739 7  21873439.398                    21873448.086
 116213986.503 7  90556406.799 7  22114785.680                    22114793.922
 127396320.539 6  99269969.06643  24242699.484                    24242708.555
 108200363.167 8  84312053.858 8  20589827.211                    20589835.172
 121561283.925 7  94723160.87144  23132345.602                    23132355.621
 113754854.227 8  88640208.395 7  21646829.813                    21646841.137
 126276227.112 7  98397091.926 6  24029565.250                    24029575.852
 114963206.295 7  89581851.42845  21876753.172                    21876759.641
 11  8 19  2 36  0.0000000  0  9G30G12G29G10G05G26G25G15G02
 114622984.508 8  89316696.17345  21812030.609                    21812040.113
 115019972.853 7  89625998.897 7  21887566.617                    21887575.047
 116135793.495 7  90495477.223 7  22099905.922                    22099914.555
 127504450.704 6  99354226.32143  24263276.063                    24263285.113
 108242084.194 8  84344563.761 8  20597766.305                    20597774.328
 121470510.172 7  94652428.11044  23115071.875                    23115081.473
 113772942.634 8  88654303.252 7  21650272.234                    21650283.109
 126180245.481 7  98322301.154 6  24011301.086                    24011310.391
 115004312.206 7  89613882.01345  21884575.711                    21884581.809
 11  8 19  2 36 30.0000000  0  9G30G12G29G10G05G26G25G15G02
 114659691.741 8  89345299.19645  21819016.461                    21819025.109
 115094556.459 8  89684115.982 7  21901759.406                    21901767.902
 116057739.805 7  90434656.201 7  22085052.750                    22085061.289
 127612657.095 6  99438542.95743  24283867.281                    24283876.496
 108284262.729 8  84377430.155 8  20605792.727                    20605800.602
 121379914.240 7  94581833.92144  23097832.469                    23097841.988
 113791580.334 8  88668826.152 7  21653818.727                    21653829.652
 126084219.847 7  98247476.058 6  23993028.094                    23993037.199
 115045501.595 8  89645977.64245  21892413.508                    21892420.117
 11  8 19  2 37  0.0000000  0  9G30G12G29G10G05G26G25G15G02
 114696913.216 8  89374302.93345  21826099.070                    21826108.293
 115169481.871 7  89742499.405 7  21916017.188                    21916025.656
 115979827.782 7  90373945.558 7  22070226.516                    22070235.434
 127720937.117 6  99522916.99643  24304471.320                    24304481.789
 108326896.697 8  84410651.438 8  20613905.602                    20613913.316
 121289499.622 7  94511381.01444  23080626.805                    23080636.195
 113810765.954 8  88683775.992 7  21657469.477                    21657480.582
 125988153.010 7  98172618.867 6  23974747.188                    23974755.844
 115086774.541 7  89678138.38145  21900267.602                    21900273.801
 11  8 19  2 37 30.0000000  0  9G30G12G29G10G05G26G25G15G02
 114734646.525 8  89403705.51745  21833279.273                    21833288.273
 115244746.042 8  89801146.803 7  21930339.758                    21930347.742
 115902058.785 7  90313346.376 7  22055427.555                    22055435.887
 127829287.842 6  99607346.15643  24325090.195                    24325099.871
 108369982.926 8  84444225.141 8  20622104.867                    20622112.570
 121199269.837 7  94441072.14744  23063457.172                    23063466.164
 113830497.933 8  88699151.568 7  21661224.586                    21661235.777
 125892047.347 7  98097731.417 6  23956458.656                    23956467.723
 115128130.846 8  89710364.07245  21908137.148                    21908143.672
 11  8 19  2 38  0.0000000  0  9G30G12G29G10G05G26G25G15G02
 114772889.726 8  89433505.40645  21840557.359                    21840566.039
 115320346.518 7  89860056.265 7  21944725.891                    21944733.980
 115824435.332 7  90252860.577 7  22040656.266                    22040664.859
 127937707.195 6  99691828.75143  24345722.430                    24345731.219
 108413519.872 8  84478150.047 8  20630389.422                    20630397.199
 121109228.631 7  94370910.21744  23046322.555                    23046331.953
 113850775.174 8  88714952.022 7  21665082.695                    21665093.922
 125795905.948 6  98022816.092 6  23938163.227                    23938172.039
 115169570.548 8  89742654.75145  21916022.734                    21916029.211
 11  8 19  2 38 30.0000000  0  9G30G12G29G10G05G26G25G15G02
 114811640.629 8  89463700.90545  21847930.883                    21847939.953
 115396280.221 7  89919225.377 7  21959175.531                    21959183.828
 115746959.576 7  90192489.882 7  22025913.203                    22025921.617
 128046192.811 6  99776362.95543  24366366.508                    24366375.328
 108457505.528 8  84512424.597 8  20638759.484                    20638767.809
 121019379.760 7  94300898.14544  23029224.922                    23029234.176
 113871596.335 8  88731176.316 7  21669045.516                    21669056.305
 125699731.463 6  97947875.026 6  23919861.711                    23919871.285
 115211094.062 7  89775010.74945  21923924.758                    21923931.059
 11  8 19  2 39  0.0000000  0  9G30G12G29G10G05G26G25G15G02
 114850897.237 8  89494290.46445  21855401.164                    21855410.172
 115472544.736 8  89978652.265 7  21973688.523                    21973696.551
 115669633.837 7  90132236.087 7  22011198.469                    22011207.027
 128154742.393 6  99860947.02643  24387022.547                    24387032.148
 108501937.940 8  84547047.271 8  20647214.898                    20647222.730
 120929726.902 7  94231038.82044  23012163.906                    23012173.422
 113892960.266 8  88747823.535 7  21673110.758                    21673121.715
 125603526.789 6  97872910.497 6  23901553.922                    23901564.363
 115252701.582 8  89807432.20045  21931842.328                    21931848.762
 11  8 19  2 39 30.0000000  0  9G30G12G29G10G05G26G25G15G02
 114890656.992 8  89525272.09345  21862967.344                    21862976.258
 115549136.584 8  90038334.219 7  21988262.930                    21988271.305
 115592460.195 7  90072100.812 7  21996512.805                    21996521.324
 128263353.126 6  99945578.72942  24407690.086                    24407699.184
 108546814.521 8  84582016.046 7  20655754.367                    20655762.602
 120840273.505 7  94161334.92044  22995142.016                    22995150.902
 113914865.319 8  88764892.411 7  21677278.867                    21677289.926
 125507294.594 6  97797924.519 6  23883241.500                    23883252.000
 115294392.752 8  89839918.82745  21939776.070                    21939782.219
 11  8 19  2 40  0.0000000  0  9G30G12G29G10G05G26G25G15G02
 114930917.790 7  89556644.15745  21870628.531                    21870637.453
 115626053.016 8  90098269.099 7  22002899.836                    22002907.945
 115515440.615 7  90012085.593 7  21981856.484                    21981865.199
 128372023.058 6 100030256.59443  24428369.781                    24428378.492
 108592133.462 7  84617329.518 8  20664378.641                    20664386.570
 120751023.376 7  94091789.39744  22978157.867                    22978167.414
 113937310.120 8  88782381.868 7  21681550.078                    21681561.387
 125411037.749 6  97722919.313 6  23864924.727                    23864934.695
 115336167.844 7  89872470.83745  21947725.313                    21947731.758
 11  8 19  2 40 30.0000000  0  9G30G12G29G10G05G26G25G15G02
 114971677.006 7  89588404.57645  21878384.500                    21878394.301
 115703291.315 8  90158454.784 7  22017597.867                    22017606.254
 115438576.999 7  89952191.919 7  21967229.563                    21967238.465
 128480749.505 6 100114978.50643  24449059.484                    24449068.625
 108637891.932 8  84652985.484 8  20673085.750                    20673093.965
 120661980.049 7  94022405.01944  22961213.594                    22961222.441
 113960292.956 8  88800290.575 7  21685923.578                    21685934.820
 125314758.649 7  97647896.762 6  23846603.594                    23846613.258
 115378026.496 8  89905087.95545  21955690.820                    21955697.152
 11  8 19  2 41  0.0000000  0  9G30G12G29G10G05G26G25G15G02
 115012932.728 7  89620551.88845  21886235.742                    21886244.457
 115780848.115 7  90218888.653 7  22032356.563                    22032364.664
 115361871.963 7  89892421.801 7  21952633.125                    21952641.867
 128589529.839 6 100199742.40143  24469760.094                    24469768.676
 108684088.226 8  84688982.613 7  20681876.648                    20681884.750
 120573147.193 7  93953184.66144  22944309.516                    22944318.000
 113983812.662 8  88818617.627 7  21690399.250                    21690410.160
 125218460.765 7  97572859.555 6  23828278.789                    23828288.398
 115419969.117 8  89937770.51545  21963672.258                    21963678.809
 11  8 19  2 41 30.0000000  0 10G30G12G29G10G05G26G25G15G21G02
 115054682.431 8  89653084.12445  21894180.344                    21894189.543
 115858720.358 7  90279568.307 7  22047175.023                    22047183.340
 115285327.407 7  89832776.754 7  21938067.234                    21938076.352
 128698361.790 6 100284546.53242  24490470.180                    24490479.250
 108730720.001 8  84725319.068 7  20690750.719                    20690758.594
 120484528.592 7  93884131.22244  22927445.727                    22927454.891
 114007867.599 8  88837361.745 7  21694976.641                    21694987.770
 125122146.593 7  97497809.642 6  23809951.000                    23809960.453
 132363963.88916                  25187984.445
 115461995.868 7  89970518.64645  21971669.438                    21971675.875
 11  8 19  2 42  0.0000000  0 10G30G12G29G10G05G26G25G15G21G02
 115096923.783 8  89685999.48045  21902218.305                    21902227.652
 115936905.501 8  90340491.782 7  22062052.977                    22062061.711
 115208945.438 7  89773258.400 7  21923531.938                    21923540.289
 128807243.134 6 100369389.13642  24511189.219                    24511199.160
 108777784.929 8  84761993.044 7  20699706.773                    20699714.613
 120396127.717 7  93815247.46844  22910623.617                    22910632.910
 114032456.333 8  88856521.801 7  21699655.875                    21699666.633
 125025819.009 7  97422749.297 6  23791619.969                    23791629.461
 132307725.932 6 103096803.55553  25177283.234                    25177293.660
 115504106.680 7  90003332.27545  21979683.297                    21979689.121
 11  8 19  2 42 30.0000000  0 10G30G12G29G10G05G26G25G15G21G02
 115139654.833 8  89719296.40945  21910349.945                    21910358.855
 116015401.218 8  90401657.255 7  22076990.383                    22076998.770
 115132728.770 7  89713868.838 7  21909028.758                    21909037.348
 128916171.736 6 100454268.54042  24531918.141                    24531927.074
 108825281.574 8  84799003.421 8  20708745.211                    20708753.020
 120307948.580 7  93746536.47344  22893843.719                    22893852.984
 114057577.634 8  88876096.840 7  21704436.031                    21704447.348
 124929481.168 7  97347680.940 6  23773287.195                    23773296.828
 132251498.392 6 103052989.99043  25166583.203                    25166594.152
 115546302.088 7  90036211.79945  21987712.859                    21987719.113
 11  8 19  2 43  0.0000000  0 10G30G12G29G10G05G26G25G15G21G02
 115182872.880 8  89752972.82245  21918573.836                    21918582.805
 116094203.504 8  90463061.614 7  22091986.492                    22091994.641
 115056679.019 7  89654609.349 7  21894556.625                    21894565.344
 129025145.158 6 100539182.86942  24552654.695                    24552663.672
 108873207.153 8  84836348.041 8  20717865.102                    20717873.016
 120219994.665 7  93678000.98544  22877106.563                    22877116.051
 114083229.646 8  88896085.426 7  21709317.891                    21709328.875
 124833135.680 6  97272606.587 6  23754953.422                    23754961.883
 132195280.483 6 103009183.89343  25155885.039                    25155896.055
 115588581.959 8  90069157.16645  21995758.195                    21995764.445
 11  8 19  2 43 30.0000000  0 10G30G12G29G10G05G26G25G15G21G02
 115226575.693 8  89787026.96745  21926890.398                    21926900.070
 116173309.860 8  90524702.908 7  22107039.539                    22107047.938
 114980798.505 8  89595481.731 7  21880116.945                    21880125.543
 129134161.071 6 100624130.32043  24573400.055                    24573409.543
 108921559.459 8  84874025.169 8  20727066.063                    20727073.918
 120132269.609 7  93609643.83244  22860413.734                    22860422.371
 114109410.946 8  88916486.448 7  21714299.906                    21714310.914
 124736785.460 6  97197528.571 6  23736618.383                    23736627.520
 132139071.600 6 102965384.88343  25145188.992                    25145199.164
 115630946.394 7  90102168.41745  22003820.266                    22003826.348
 11  8 19  2 44  0.0000000  0  9G30G12G29G05G26G25G15G21G02
 115270761.204 8  89821457.24445  21935298.773                    21935307.648
 116252717.746 8  90586579.174 7  22122150.758                    22122158.387
 114905090.132 7  89536488.253 7  21865710.375                    21865718.906
 108970336.846 8  84912033.523 7  20736348.070                    20736356.023
 120044777.668 7  93541468.32444  22843763.813                    22843772.754
 114136120.289 8  88937298.920 7  21719382.500                    21719393.184
 124640433.707 7  97122449.380 6  23718283.180                    23718292.578
 132082871.611 6 102921592.78143  25134493.984                    25134504.832
 115673396.143 7  90135246.15745  22011898.617                    22011904.449
 11  8 19  2 44 30.0000000  0  9G30G12G29G05G26G25G15G21G02
 115315426.858 8  89856261.65945  21943798.297                    21943807.160
 116332423.982 8  90648687.914 7  22137317.875                    22137326.645
 114829555.958 7  89477630.512 7  21851336.078                    21851345.125
 109019536.792 8  84950371.149 8  20745710.758                    20745718.387
 119957522.204 7  93473477.09344  22827159.602                    22827168.941
 114163355.896 8  88958521.478 7  21724565.055                    21724576.012
 124544083.338 7  97047371.237 6  23699948.305                    23699957.453
 132026679.772 6 102877806.99143  25123801.156                    25123811.723
 115715930.742 8  90168390.00745  22019992.102                    22019998.516
 11  8 19  2 45  0.0000000  0  9G30G12G29G05G26G25G15G21G02
 115360570.079 8  89891438.19545  21952388.852                    21952397.797
 116412425.774 7  90711026.955 7  22152541.742                    22152550.313
 114754197.836 8  89418909.943 7  21836996.500                    21837004.789
 109069156.949 8  84989036.216 8  20755152.852                    20755160.625
 119870506.927 7  93405673.01644  22810601.016                    22810610.172
 114191116.036 8  88980152.754 7  21729847.766                    21729859.285
 124447736.980 7  96972296.195 6  23681614.367                    23681623.152
 131970495.009 6 102834026.75343  25113109.602                    25113120.109
 115758550.595 7  90201600.29045  22028102.594                    22028108.273
 11  8 19  2 45 30.0000000  0  9G30G12G29G05G26G25G15G21G02
 115406187.933 8  89926984.58745  21961069.500                    21961078.539
 116492719.026 8  90773593.107 7  22167820.859                    22167829.582
 114679017.568 8  89360327.966 7  21822689.742                    21822698.832
 109119194.257 8  85028026.332 7  20764674.734                    20764682.574
 119783734.773 7  93338058.40244  22794088.688                    22794098.168
 114219398.502 8  89002191.033 7  21735229.828                    21735240.852
 124351397.112 6  96897226.289 6  23663281.117                    23663290.652
 131914316.613 6 102790251.46743  25102419.852                    25102429.742
 115801255.269 7  90234876.67345  22036228.578                    22036235.098
 11  8 19  2 46  0.0000000  0  9G30G12G29G05G26G25G15G21G02
 115452277.963 8  89962898.89345  21969839.961                    21969849.121
 116573301.135 8  90836384.343 7  22183155.133                    22183164.324
 114604017.446 8  89301886.369 7  21808417.633                    21808426.586
 109169646.715 8  85067339.940 7  20774275.586                    20774283.355
 119697209.574 7  93270636.19744  22777623.633                    22777633.117
 114248201.742 8  89024635.122 7  21740710.492                    21740722.121
 124255066.708 6  96822163.690 6  23644950.125                    23644959.250
 131858144.120 6 102746480.77643  25091730.211                    25091740.281
 115844045.160 8  90268219.46545  22044371.523                    22044377.570
 11  8 19  2 46 30.0000000  0  9G30G12G29G05G26G25G15G21G02
 115498838.109 8  89999179.53245  21978699.992                    21978709.258
 116654169.628 8  90899398.737 7  22198544.383                    22198552.496
 114529200.152 7  89243587.222 7  21794180.352                    21794188.965
 109220512.688 8  85106975.767 8  20783955.078                    20783963.059
 119610935.581 7  93203409.74844  22761205.914                    22761215.734
 114277524.403 8  89047483.939 7  21746290.805                    21746301.770
 124158748.880 6  96747110.908 6  23626620.953                    23626630.145
 131801977.208 6 102702714.43143  25081041.664                    25081051.625
 115886920.582 7  90301628.90445  22052530.391                    22052536.613
 11  8 19  2 47  0.0000000  0  9G30G12G29G05G26G25G15G21G02
 115545865.716 7  90035824.42145  21987649.156                    21987658.465
 116735321.155 7  90962633.677 7  22213986.656                    22213995.074
 114454567.493 7  89185431.949 7  21779978.328                    21779986.816
 109271789.099 8  85146931.426 7  20793712.680                    20793720.250
 119524916.025 7  93136381.55844  22744837.102                    22744846.508
 114307364.485 8  89070735.938 7  21751968.641                    21751980.359
 124062446.250 6  96672069.974 6  23608294.875                    23608304.352
 131745815.211 6 102658951.94143  25070354.156                    25070364.180
 115929881.405 7  90335104.87445  22060705.406                    22060711.578
 11  8 19  2 47 30.0000000  0  9G30G12G29G05G26G25G15G21G02
 115593358.121 7  90072831.48845  21996686.477                    21996696.012
 116816752.924 7  91026086.994 7  22229482.836                    22229491.000
 114380121.965 8  89127422.504 7  21765811.820                    21765820.637
 109323474.154 8  85187205.498 8  20803548.102                    20803555.848
 119439154.865 7  93069554.71544  22728517.469                    22728526.484
 114337720.288 8  89094389.826 7  21757745.703                    21757756.684
 123966162.167 6  96597043.504 6  23589973.000                    23589982.590
 131689657.344 6 102615192.62643  25059667.953                    25059677.969
 115972928.232 7  90368647.85345  22068896.875                    22068903.688
 11  8 19  2 48  0.0000000  0  9G30G12G29G05G26G25G15G21G02
 115641313.162 7  90110199.04845  22005812.195                    22005821.379
 116898461.761 7  91089756.203 7  22245031.219                    22245040.117
 114305866.040 7  89069560.780 7  21751681.398                    21751690.203
 109375565.676 8  85227796.315 7  20813460.461                    20813468.594
 119353655.659 7  93002932.00744  22712247.539                    22712256.949
 114368590.280 8  89118444.353 7  21763619.938                    21763631.371
 123869899.828 7  96522033.960 6  23571656.078                    23571664.996
 131633503.302 6 102571436.31443  25048981.688                    25048991.551
 116016060.764 7  90402257.62945  22077104.945                    22077110.879
 11  8 19  2 48 30.0000000  0  9G30G12G29G05G26G25G15G21G02
 115689728.127 7  90147924.99945  22015025.797                    22015034.609
 116980444.610 7  91153638.926 7  22260632.250                    22260640.973
 114231801.617 8  89011848.287 7  21737587.180                    21737596.086
 109428061.152 8  85268701.883 7  20823450.008                    20823457.711
 119268422.240 7  92936516.37744  22696028.453                    22696037.031
 114399972.588 8  89142898.097 7  21769592.000                    21769602.672
 123773661.622 6  96447043.213 6  23553341.094                    23553350.930
 131577352.473 6 102527682.54442  25038297.203                    25038306.969
 116059279.304 7  90435934.41245  22085328.750                    22085334.898
 11  8 19  2 49  0.0000000  0  9G30G12G29G05G26G25G15G21G02
 115738600.096 7  90186007.04945  22024325.203                    22024334.398
 117062698.479 7  91217732.843 7  22276284.250                    22276293.246
 114157930.700 8  88954286.577 7  21723530.031                    21723539.016
 109480957.825 8  85309920.085 7  20833515.930                    20833523.840
 119183458.077 7  92870310.55644  22679860.008                    22679868.797
 114431865.057 8  89167749.377 7  21775660.922                    21775671.664
 123677450.424 7  96372073.526 6  23535032.867                    23535042.402
 131521203.894 6 102483930.46442  25027612.320                    25027621.621
 116102584.114 7  90469678.42945  22093569.477                    22093575.617
 11  8 19  2 49 30.0000000  0  9G30G12G29G05G26G25G15G21G02
 115787926.873 7  90224443.51545  22033711.938                    22033720.496
 117145220.963 7  91282036.066 7  22291987.961                    22291996.531
 114084256.185 8  88896877.903 7  21709510.555                    21709519.207
 109534253.773 8  85351449.401 7  20843657.773                    20843665.727
 119098766.858 7  92804317.43944  22663743.773                    22663752.863
 114464266.177 8  89192996.996 7  21781826.695                    21781837.711
 123581269.308 7  96297127.295 6  23516730.227                    23516739.496
 131465057.259 6 102440179.84942  25016927.266                    25016937.449
 116145975.596 7  90503489.97345  22101826.695                    22101832.969
 11  8 19  2 50  0.0000000  0  9G30G12G29G05G26G25G15G21G02
 115837705.693 7  90263232.19445  22043184.344                    22043194.023
 117228008.220 7  91346545.606 7  22307742.188                    22307750.395
 114010779.919 8  88839623.715 7  21695528.523                    21695536.926
 109587946.625 8  85393288.004 7  20853875.164                    20853883.023
 119014352.324 7  92738539.89144  22647680.102                    22647689.063
 114497173.985 8  89218639.451 7  21788088.656                    21788099.711
 123485121.178 7  96222206.743 6  23498434.070                    23498442.672
 131408912.137 6 102396430.51342  25006243.852                    25006253.770
 116189453.613 7  90537368.96345  22110100.352                    22110106.477
 11  8 19  2 50 30.0000000  0  9G30G12G29G05G26G25G15G21G02
 115887933.944 7  90302371.09045  22052742.867                    22052751.941
 117311057.349 7  91411259.195 7  22323545.938                    22323554.582
 113937504.444 8  88782525.983 7  21681584.094                    21681593.266
 109642034.127 8  85435434.121 7  20864167.898                    20864175.328
 118930218.010 7  92672980.71044  22631669.977                    22631678.855
 114530586.543 8  89244675.207 7  21794446.695                    21794457.898
 123389009.116 7  96147314.303 6  23480144.195                    23480153.656
 131352767.970 6 102352681.93442  24995560.273                    24995569.348
 116233018.442 7  90571315.57945  22118390.117                    22118396.219
 11  8 19  2 51  0.0000000  0  9G30G12G29G05G26G25G15G21G02
 115938609.044 7  90341858.18845  22062386.023                    22062394.566
 117394365.527 7  91476174.645 7  22339398.586                    22339406.867
 113864431.718 8  88725586.252 7  21667679.211                    21667687.566
 109696513.955 8  85477885.940 7  20874535.008                    20874542.730
 118846367.871 7  92607642.95544  22615713.641                    22615722.598
 114564502.065 8  89271102.892 7  21800900.125                    21800911.676
 123292936.171 7  96072452.351 6  23461861.984                    23461871.391
 131296623.843 6 102308933.34842  24984875.633                    24984884.836
 116276670.569 7  90605330.21845  22126697.328                    22126703.281
 11  8 19  2 51 30.0000000  0  9G30G12G29G05G26G25G15G21G02
 115989728.560 7  90381691.58545  22072113.680                    22072122.512
 117477929.817 7  91541289.664 7  22355300.438                    22355308.852
 113791564.560 8  88668806.683 7  21653812.828                    21653821.461
 109751383.727 8  85520641.620 7  20884976.156                    20884984.016
 118762805.683 7  92542529.58644  22599812.305                    22599820.730
 114598918.828 8  89297921.164 7  21807450.031                    21807461.492
 123196905.381 7  95997623.230 6  23443587.891                    23443597.301
 131240479.502 5 102265184.61542  24974191.219                    24974201.922
 116320409.972 7  90639412.86945  22135020.625                    22135026.598
 11  8 19  2 52  0.0000000  0  9G30G12G29G05G26G25G15G21G02
 116041289.590 7  90421869.00345  22081925.609                    22081934.273
 117561746.845 7  91606601.613 7  22371250.242                    22371258.355
 113718904.726 8  88612188.675 7  21639985.984                    21639995.035
 109806641.053 8  85563699.288 7  20895491.352                    20895499.191
 118679534.686 7  92477643.12345  22583966.258                    22583975.477
 114633834.620 8  89325128.288 7  21814094.406                    21814105.160
 123100919.466 7  95922829.081 6  23425322.055                    23425331.258
 131184334.251 5 102221435.14242  24963506.680                    24963518.016
 116364237.051 7  90673563.84145  22143360.633                    22143366.574
 11  8 19  2 52 30.0000000  0  9G30G12G29G05G26G25G15G21G02
 116093289.371 7  90462388.33445  22091820.578                    22091829.727
 117645813.992 7  91672108.478 7  22387247.945                    22387256.770
 113646454.734 8  88555734.170 7  21626199.250                    21626207.688
 109862283.324 8  85607056.903 7  20906079.867                    20906087.258
 118596558.650 7  92412986.48645  22568176.664                    22568185.582
 114669247.490 8  89352722.738 7  21820833.352                    21820844.348
 123004981.348 7  95848072.162 6  23407066.086                    23407074.430
 131128187.628 6 102177684.64842  24952822.758                    24952833.258
 116408151.873 7  90707783.20245  22151716.969                    22151723.375
 11  8 19  2 53  0.0000000  0  9G30G12G29G05G26G25G15G21G02
 116145724.814 7  90503247.11645  22101798.430                    22101807.883
 117730127.409 7  91737807.230 7  22403292.250                    22403300.906
 113574216.134 8  88499444.387 7  21612452.742                    21612461.078
 109918307.693 8  85650712.267 7  20916741.055                    20916748.891
 118513880.883 7  92348562.27644  22552443.531                    22552452.719
 114705154.880 8  89380702.535 7  21827666.453                    21827677.641
 122909093.796 7  95773354.639 6  23388818.977                    23388827.852
 131072038.616 6 102133932.26542  24942138.406                    24942147.648
 116452154.254 7  90742070.78845  22160090.563                    22160096.465
 11  8 19  2 53 30.0000000  0  9G30G12G29G05G26G25G15G21G02
 116198593.870 7  90544443.78245  22111859.617                    22111868.781
 117814684.735 7  91803696.050 7  22419383.250                    22419391.461
 113502192.392 8  88443322.019 7  21598746.977                    21598755.465
 109974712.786 8  85694664.285 7  20927474.320                    20927482.254
 118431505.641 7  92284373.81344  22536767.961                    22536776.953
 114741555.639 8  89409066.769 7  21834592.992                    21834604.008
 122813260.149 6  95698679.121 6  23370582.328                    23370591.410
 131015887.086 6 102090177.96243  24931452.469                    24931462.754
 116496244.989 7  90776427.22545  22168480.922                    22168487.012
 11  8 19  2 54  0.0000000  0  9G30G12G29G05G26G25G15G21G02
 116251893.574 7  90585976.01145  22122001.695                    22122010.852
 117899482.771 7  91869772.423 7  22435519.328                    22435528.316
 113430385.158 8  88387368.372 7  21585082.469                    21585091.012
 110031495.773 8  85738910.789 7  20938279.922                    20938287.891
 118349436.370 7  92220423.76844  22521150.586                    22521159.742
 114778447.409 8  89437813.614 7  21841612.977                    21841623.930
 122717483.277 7  95624047.854 6  23352356.906                    23352365.945
 130959732.387 6 102046421.14943  24920766.891                    24920776.867
 116540424.086 7  90810852.50145  22176887.930                    22176893.992
 11  8 19  2 54 30.0000000  0  9G30G12G29G05G26G25G15G21G02
 116305621.211 7  90627841.70545  22132225.617                    22132234.633
 117984518.261 7  91936033.821 7  22451701.172                    22451710.066
 113358796.810 8  88331585.275 7  21571459.680                    21571468.125
 110088654.077 8  85783449.726 7  20949156.688                    20949164.445
 118267676.731 7  92156714.99245  22505591.898                    22505601.480
 114815828.078 8  89466941.413 7  21848726.477                    21848737.535
 122621766.318 7  95549463.265 6  23334142.750                    23334151.012
 130903573.596 6 102002661.13243  24910079.961                    24910089.602
 116584691.856 8  90845346.87045  22185311.836                    22185318.133
 11  8 19  2 55  0.0000000  0  9G30G12G29G05G26G25G15G21G02
 116359774.166 7  90670038.81745  22142530.781                    22142539.777
 118069788.515 7  92002478.157 7  22467927.875                    22467935.941
 113287430.061 8  88275974.841 7  21557879.039                    21557887.352
 110146185.681 8  85828279.559 7  20960104.375                    20960112.246
 118186230.491 7  92093250.43645  22490093.500                    22490102.422
 114853695.863 8  89496448.792 7  21855931.914                    21855943.578
 122526112.522 7  95474927.904 6  23315940.039                    23315948.316
 130847410.528 6 101958897.81843  24899393.016                    24899402.430
 116629048.506 7  90879910.49845  22193752.641                    22193758.375
 11  8 19  2 55 30.0000000  0  9G30G12G29G05G26G25G15G21G02
 116414349.703 8  90712565.20645  22152916.227                    22152925.633
 118155290.483 7  92069103.039 7  22484197.977                    22484206.969
 113216286.985 8  88220538.717 7  21544340.914                    21544349.246
 110204088.352 8  85873398.532 7  20971122.852                    20971131.172
 118105101.297 7  92030032.92044  22474654.852                    22474664.367
 114892048.732 8  89526334.137 7  21863230.844                    21863241.898
 122430524.695 7  95400443.935 6  23297750.109                    23297759.305
 130791242.651 6 101915130.70443  24888704.016                    24888713.250
 116673494.562 8  90914543.79645  22202210.859                    22202216.492
 11  8 19  2 56  0.0000000  0  9G30G12G29G05G26G25G15G21G02
 116469344.751 7  90755418.48345  22163381.211                    22163390.504
 118241020.852 7  92135905.903 7  22500512.078                    22500520.531
 113145369.682 8  88165278.504 7  21530846.055                    21530854.211
 110262358.953 7  85918804.197 7  20982211.508                    20982219.332
 118024292.523 7  91967065.08245  22459277.906                    22459286.828
 114930884.217 8  89556595.549 7  21870620.938                    21870632.340
 122335005.617 7  95326013.550 6  23279573.227                    23279582.258
 130735069.273 6 101871359.31443  24878014.305                    24878023.844
 116718029.890 8  90949246.64845  22210685.211                    22210691.234
 11  8 19  2 56 30.0000000  0  9G30G12G29G05G26G25G15G21G02
 116524756.640 7  90798596.57745  22173925.883                    22173934.793
 118326976.486 7  92202884.303 6  22516869.477                    22516877.293
 113074680.580 8  88110196.119 7  21517394.203                    21517402.465
 110320995.434 8  85964494.961 7  20993369.758                    20993377.898
 117943807.987 7  91904349.89245  22443961.750                    22443971.109
 114970200.306 8  89587231.471 7  21878102.414                    21878113.801
 122239558.205 7  95251638.992 6  23261410.477                    23261419.398
 130678889.762 6 101827583.17643  24867323.836                    24867333.105
 116762655.046 8  90984019.50745  22219177.055                    22219183.363
 11  8 19  2 57  0.0000000  0  9G30G12G29G05G26G25G15G21G02
 116580582.584 7  90842097.31445  22184549.391                    22184558.926
 118413154.553 7  92270036.037 7  22533267.852                    22533276.113
 113004222.213 8  88055293.537 7  21503986.156                    21503994.762
 110379995.558 8  86010469.085 7  21004597.344                    21004605.148
 117863651.310 7  91841890.16645  22428708.750                    22428717.770
 115009994.980 8  89618240.307 7  21885675.180                    21885686.523
 122144185.806 7  95177322.891 6  23243261.375                    23243270.766
 130622703.735 6 101783801.86043  24856631.758                    24856640.441
 116807370.330 8  91018862.60545  22227685.875                    22227691.879
 11  8 19  2 57 30.0000000  0  9G30G12G29G05G26G25G15G21G02
 116636819.982 7  90885918.65245  22195251.156                    22195260.129
 118499551.966 7  92337358.692 7  22549709.359                    22549717.406
 112933996.795 8  88000572.477 7  21490622.711                    21490630.953
 110439357.013 8  86056724.776 7  21015893.211                    21015901.066
 117783826.418 7  91779688.98545  22413518.102                    22413527.461
 115050266.137 8  89649620.429 7  21893338.578                    21893349.449
 122048891.563 7  95103067.697 6  23225127.813                    23225136.906
 130566510.716 6 101740015.14843  24845939.188                    24845948.289
 116852175.800 7  91053775.95245  22236212.234                    22236218.551
 11  8 19  2 58  0.0000000  0  9G30G12G29G05G26G25G15G21G02
 116693465.663 7  90930058.14145  22206030.719                    22206039.285
 118586165.347 7  92404849.617 7  22566191.250                    22566199.270
 112864006.631 8  87946034.725 7  21477304.180                    21477312.609
 110499076.954 8  86103259.790 7  21027257.555                    21027265.082
 117704336.468 7  91717748.80645  22398392.148                    22398401.332
 115091011.314 8  89681369.916 7  21901092.219                    21901103.406
 121953678.445 7  95028875.697 6  23207008.922                    23207018.105
 130510310.020 6 101696222.50043  24835244.211                    24835253.938
 116897071.613 7  91088759.70545  22244755.484                    22244761.801
 11  8 19  2 58 30.0000000  0  9G30G12G29G05G26G25G15G21G02
 116750517.090 7  90974513.79545  22216886.797                    22216895.992
 118672992.344 7  92472507.000 6  22582713.078                    22582721.500
 112794254.044 8  87891682.091 7  21464030.508                    21464039.031
 110559153.378 8  86150072.579 7  21038689.859                    21038697.730
 117625185.598 7  91656072.84145  22383330.258                    22383339.168
 115132228.665 8  89713487.330 7  21908935.477                    21908946.555
 121858549.151 7  94954749.035 6  23188906.602                    23188916.039
 130454101.305 6 101652423.55743  24824548.523                    24824557.609
 116942058.433 7  91123814.35845  22253316.555                    22253322.668
 11  8 19  2 59  0.0000000  0  9G30G12G29G05G26G25G15G21G02
 116807971.142 7  91019283.17445  22227819.727                    22227829.023
 118760029.014 7  92540327.744 7  22599275.961                    22599284.520
 112724741.181 8  87837516.274 7  21450802.758                    21450811.199
 110619583.336 8  86197160.854 7  21050188.961                    21050197.156
 117546376.870 7  91594663.46845  22368333.117                    22368342.098
 115173915.696 8  89745970.732 7  21916868.313                    21916879.133
 121763507.004 7  94880690.280 6  23170820.883                    23170829.449
 130397883.691 6 101608617.66743  24813850.133                    24813859.723
 116987136.198 7  91158939.88345  22261894.172                    22261900.598
 11  8 19  2 59 30.0000000  0  9G30G12G29G05G26G25G15G21G02
 116865825.066 7  91064364.13545  22238829.258                    22238838.754
 118847272.611 7  92608309.748 7  22615878.211                    22615886.469
 112655470.757 8  87783539.360 7  21437620.977                    21437629.520
 110680364.548 8  86244522.837 7  21061755.453                    21061763.066
 117467914.094 7  91533523.68145  22353402.055                    22353411.324
 115216070.287 8  89778818.450 7  21924889.688                    21924900.727
 121668554.862 7  94806701.650 6  23152752.047                    23152760.703
 130341656.782 6 101564804.55943  24803150.578                    24803159.426
 117032305.371 7  91194136.62945  22270489.586                    22270495.996
 11  8 19  3  0  0.0000000  0  9G30G12G29G05G26G25G15G21G02
 116924076.191 7  91109754.60745  22249913.875                    22249923.211
 118934720.553 7  92676450.972 7  22632519.039                    22632527.527
 112586444.934 8  87729753.045 7  21424485.688                    21424494.328
 110741494.873 8  86292156.858 7  21073388.023                    21073395.973
 117389801.184 7  91472656.49745  22338537.859                    22338546.559
 115258690.331 8  89812028.864 7  21933000.500                    21933011.398
 121573695.998 7  94732785.725 6  23134700.953                    23134709.977
 130285420.023 6 101520983.79343  24792449.219                    24792458.551
 117077566.450 7  91229404.99945  22279102.523                    22279108.875
 11  8 19  3  0 30.0000000  0  9G30G12G29G05G26G25G15G21G02
 116982721.124 7  91155451.93845  22261073.477                    22261082.934
 119022368.849 7  92744748.314 7  22649198.320                    22649206.570
 112517665.961 8  87676159.092 7  21411397.203                    21411406.090
 110802971.267 7  86340060.540 7  21085086.438                    21085094.469
 117312041.290 7  91412064.41245  22323740.375                    22323749.664
 115301773.142 8  89845599.888 7  21941199.000                    21941209.418
 121478933.252 7  94658944.684 6  23116667.805                    23116677.148
 130229172.686 6 101477154.73943  24781745.664                    24781754.988
 117122919.282 7  91264744.85045  22287732.500                    22287739.148
 11  8 19  3  1  0.0000000  0  9G30G12G29G05G26G25G15G21G02
 117041757.144 7  91201454.00145  22272307.648                    22272317.480
 119110214.731 7  92813199.636 7  22665914.047                    22665922.766
 112449136.613 8  87622759.637 7  21398356.703                    21398364.863
 110864791.711 8  86388232.316 7  21096850.625                    21096858.402
 117234638.047 7  91351750.21545  22309010.656                    22309020.605
 115345316.657 8  89879529.902 7  21949485.008                    21949495.965
 121384269.931 7  94585181.087 6  23098653.984                    23098663.012
 130172914.523 6 101433317.31943  24771039.859                    24771049.512
 117168364.410 7  91300156.62545  22296380.531                    22296386.848
 11  8 19  3  1 30.0000000  0  9G30G12G29G05G26G25G15G21G02
 117101181.539 7  91247758.72145  22283616.078                    22283625.184
 119198255.427 7  92881802.746 7  22682668.180                    22682676.457
 112380858.609 8  87569556.049 7  21385364.055                    21385372.172
 110926953.706 8  86436670.230 7  21108679.797                    21108687.641
 117157595.303 7  91291716.92345  22294350.586                    22294359.809
 115389318.617 8  89913817.132 7  21957858.094                    21957869.109
 121289708.960 7  94511497.263 6  23080659.445                    23080668.941
 130116644.933 6 101389470.96143  24760331.711                    24760341.598
 117213902.043 7  91335640.48245  22305046.258                    22305052.891
 11  8 19  3  2  0.0000000  0  9G30G12G29G05G26G25G15G21G02
 117160991.783 7  91294364.08445  22294997.398                    22295007.203
 119286488.000 7  92950555.379 7  22699458.414                    22699466.887
 112312835.020 8  87516550.703 7  21372419.273                    21372427.492
 110989455.325 8  86485372.794 7  21120572.984                    21120581.246
 117080916.839 7  91231967.50245  22279758.938                    22279767.980
 115433777.112 8  89948460.110 7  21966318.258                    21966329.426
 121195253.893 7  94437895.942 6  23062684.977                    23062694.305
 130060363.511 6 101345615.40543  24749622.000                    24749631.668
 117259532.941 7  91371197.00245  22313729.539                    22313735.918
 11  8 19  3  2 30.0000000  0  9G30G12G29G05G26G25G15G21G02
 117221184.534 7  91341267.51945  22306451.906                    22306460.590
 119374909.274 7  93019455.043 7  22716283.930                    22716292.445
 112245068.110 8  87463745.358 7  21359523.820                    21359531.641
 111052293.843 7  86534337.883 7  21132531.102                    21132538.797
 117004606.149 7  91172504.64845  22265237.469                    22265245.984
 115478689.541 8  89983456.799 7  21974864.828                    21974875.961
 121100907.247 7  94364379.114 6  23044731.391                    23044740.125
 130004069.820 6 101301750.27343  24738909.336                    24738919.199
 117305257.166 7  91406826.24645  22322430.758                    22322437.078
 11  8 19  3  3  0.0000000  0  9G30G12G29G05G26G25G15G21G02
 117281756.531 7  91388466.47145  22317978.547                    22317987.336
 119463515.651 7  93088498.959 6  22733145.273                    22733153.945
 112177559.542 8  87411141.329 7  21346677.281                    21346685.590
 111115466.312 8  86583563.187 7  21144552.633                    21144560.387
 116928666.484 7  91113330.91645  22250786.742                    22250795.418
 115524053.138 8  90018805.043 7  21983497.398                    21983508.430
 121006671.866 7  94290948.980 6  23026799.523                    23026808.313
 129947762.939 6 101257874.89743  24728194.711                    24728203.883
 117351074.941 7  91442528.40345  22331149.109                    22331155.824
 11  8 19  3  3 30.0000000  0  9G30G12G29G05G26G25G15G21G02
 117342705.482 7  91435959.14845  22329576.195                    22329585.430
 119552305.125 7  93157685.545 7  22750041.250                    22750049.828
 112110312.367 8  87358740.972 7  21333880.742                    21333888.934
 111178970.700 8  86633047.145 7  21156637.172                    21156644.727
 116853101.751 7  91054449.34045  22236407.188                    22236416.152
 115569866.188 8  90054503.527 7  21992215.398                    21992225.965
 120912551.666 7  94217608.630 6  23008889.117                    23008897.781
 129891442.561 6 101213989.00543  24717477.109                    24717486.527
 117396986.784 7  91478303.85445  22339886.609                    22339892.215
 11  8 19  3  4  0.0000000  0  9G30G12G29G05G26G25G15G21G02
 117404027.971 7  91483742.90345  22341245.867                    22341254.422
 119641273.545 7  93227011.563 6  22766971.531                    22766980.066
 112043328.600 8  87306545.873 7  21321133.594                    21321142.293
 111242804.194 8  86682787.534 7  21168784.219                    21168791.750
 116777915.160 7  90995862.41145  22222099.813                    22222108.570
 115616125.832 8  90090550.005 7  22001017.930                    22001029.191
 120818548.947 7  94144359.801 6  22991000.945                    22991009.551
 129835108.207 6 101170092.24143  24706756.617                    24706766.301
 117442992.870 7  91514152.74145  22348641.031                    22348647.281
 11  8 19  3  4 30.0000000  0 10G30G12G29G18G05G26G25G15G21G02
 117465720.984 7  91531815.39445  22352985.430                    22352994.602
 119730418.110 7  93296474.846 7  22783935.422                    22783943.867
 111976610.722 8  87254557.944 7  21308437.906                    21308445.809
 129742596.91415                  24689201.625
 111306964.502 8  86732782.596 7  21180993.188                    21181001.777
 116703110.358 7  90937572.98545  22207864.430                    22207873.488
 115662829.745 8  90126942.650 7  22009905.570                    22009916.555
 120724667.191 7  94071205.220 6  22973135.789                    22973144.297
 129778759.363 6 101126184.17043  24696033.258                    24696043.066
 117489093.351 7  91550075.15745  22357413.500                    22357419.707
 11  8 19  3  5  0.0000000  0 10G30G12G29G18G05G26G25G15G21G02
 117527781.397 7  91580174.15245  22364795.641                    22364804.406
 119819735.406 7  93366072.702 7  22800931.898                    22800940.270
 111910160.695 8  87202778.731 7  21295792.977                    21295800.926
 129652910.15915                  24672135.148
 111371448.902 8  86783030.183 7  21193264.391                    21193271.949
 116628690.747 7  90879583.70445  22193703.391                    22193712.082
 115709975.313 8  90163679.453 7  22018877.281                    22018888.250
 120630909.033 7  93998146.950 6  22955294.242                    22955302.742
 129722395.070 6 101082264.06143  24685308.367                    24685317.516
 117535288.577 7  91586071.41945  22366204.203                    22366210.484
 11  8 19  3  5 30.0000000  0 10G30G12G29G18G05G26G25G15G21G02
 117590206.491 7  91628817.06845  22376674.430                    22376683.426
 119909222.785 7  93435803.115 7  22817960.938                    22817969.109
 111843981.181 8  87151210.310 7  21283199.273                    21283207.723
 129563387.104 5                  24655097.977
 111436255.122 8  86833528.547 7  21205596.492                    21205604.406
 116554659.862 7  90821897.34245  22179615.250                    22179624.418
 115757560.232 8  90200758.610 7  22027932.320                    22027943.176
 120537277.863 7  93925187.651 6  22937476.977                    22937485.902
 129666015.037 6 101038331.72443  24674579.023                    24674588.949
 117581578.940 7  91622141.83445  22375012.836                    22375019.000
 11  8 19  3  6  0.0000000  0 10G30G12G29G18G05G26G25G15G21G02
 117652992.992 7  91677741.60845  22388622.352                    22388631.367
 119998876.856 7  93505663.428 6  22835021.266                    22835029.629
 111778074.465 8  87099854.453 7  21270657.609                    21270665.914
 129474028.308 5                  24638094.359
 111501380.466 8  86884275.583 7  21217989.547                    21217997.281
 116481021.300 7  90764516.67445  22165602.023                    22165611.254
 115805581.930 8  90238178.109 7  22037070.406                    22037081.305
 120443776.563 7  93852329.541 6  22919684.000                    22919693.043
 129609618.648 6 100994386.62643  24663846.703                    24663856.367
 117627964.835 7  91658286.70345  22383840.195                    22383845.934
 11  8 19  3  6 30.0000000  0 10G30G12G29G18G05G26G25G15G21G02
 117716138.232 7  91726945.69145  22400638.445                    22400647.738
 120088694.941 7  93575651.515 7  22852112.813                    22852121.672
 111712443.127 8  87048713.174 7  21258168.602                    21258176.738
 129384835.308 5 100819414.16052  24621121.016                    24621131.902
 111566822.872 8  86935269.665 7  21230442.609                    21230450.543
 116407778.858 7  90707444.67645  22151664.820                    22151673.621
 115854038.235 8  90275936.265 7  22046291.219                    22046302.168
 120350408.301 7  93779575.082 6  22901916.352                    22901925.633
 129553205.891 6 100950428.78143  24653111.648                    24653121.367
 117674446.578 7  91694506.25045  22392685.297                    22392691.402
 11  8 19  3  7  0.0000000  0 10G30G12G29G18G05G26G25G15G21G02
 117779639.276 7  91776427.01645  22412722.063                    22412731.762
 120178673.965 7  93645765.019 6  22869235.875                    22869244.238
 111647089.753 8  86997788.493 7  21245731.945                    21245740.148
 129295809.513 5 100750043.69542  24604180.125                    24604191.055
 111632579.968 8  86986508.970 7  21242955.438                    21242963.879
 116334935.965 7  90650684.02945  22137803.109                    22137812.184
 115902926.840 8  90314031.276 7  22055594.531                    22055605.434
 120257176.853 7  93706927.250 6  22884174.953                    22884183.809
 129496776.249 6 100906457.76543  24642374.055                    24642382.891
 117721024.807 7  91730800.96245  22401548.727                    22401555.223
 11  8 19  3  7 30.0000000  0 10G30G12G29G18G05G26G25G15G21G02
 117843492.785 7  91826182.98245  22424873.297                    22424883.004
 120268810.714 7  93716001.436 6  22886388.078                    22886395.980
 111582016.272 8  86947081.909 7  21233348.836                    21233357.492
 129206952.244 5 100680804.44942  24587270.820                    24587281.645
 111698648.648 8  87037991.062 7  21255528.266                    21255535.977
 116262495.847 7  90594237.20545  22124018.539                    22124027.441
 115952244.785 8  90352460.848 7  22064979.508                    22064990.328
 120164084.580 7  93634387.847 7  22866459.867                    22866469.148
 129440328.731 6 100862472.81443  24631632.664                    24631641.020
 117767699.589 7  91767170.90945  22410431.047                    22410437.074
 11  8 19  3  8  0.0000000  0 10G30G12G29G18G05G26G25G15G21G02
 117907696.484 7  91876211.82645  22437090.656                    22437099.918
 120359102.542 7  93786358.691 6  22903570.141                    22903578.441
 111517225.814 8  86896595.857 7  21221019.539                    21221027.652
 129118265.071 5                  24570393.539
 111765027.712 8  87089715.010 7  21268159.656                    21268167.742
 116190462.945 7  90538107.69545  22110310.977                    22110319.961
 116001990.435 8  90391223.685 7  22074445.492                    22074456.426
 120071135.189 7  93561959.797 6  22848772.563                    22848781.480
 129383863.508 6 100818474.07743  24620887.141                    24620895.273
 117814471.779 7  91803616.76245  22419331.055                    22419337.023
 11  8 19  3  8 30.0000000  0 10G30G12G29G18G05G26G25G15G21G02
 117972246.753 7  91926510.73845  22449374.633                    22449383.578
 120449545.959 7  93856834.087 6  22920780.711                    22920789.773
 111452720.324 8  86846331.861 7  21208744.531                    21208752.672
 129029749.32715                  24553550.508
 111831713.758 8  87141678.170 7  21280849.758                    21280857.520
 116118839.910 7  90482297.57445  22096681.570                    22096690.109
 116052160.659 8  90430317.366 7  22083992.742                    22084003.430
 119978331.452 7  93489645.236 6  22831112.406                    22831121.086
 129327379.901 6 100774460.92143  24610139.070                    24610146.910
 117861341.537 7  91840138.65745  22428250.148                    22428256.172
 11  8 19  3  9  0.0000000  0 10G30G12G29G18G05G26G25G15G21G02
 118037140.417 7  91977077.23045  22461723.352                    22461732.672
 120540137.868 7  93927425.176 7  22938020.469                    22938029.094
 111388501.736 8  86796291.427 7  21196524.195                    21196532.469
 128941404.54815                  24536737.391
 111898704.476 8  87193878.724 7  21293597.797                    21293605.828
 116047630.314 7  90426809.59645  22083131.086                    22083139.746
 116102752.727 8  90469739.751 7  22093619.930                    22093631.008
 119885676.359 7  93417446.495 7  22813481.430                    22813489.551
 129270877.031 6 100730432.81042  24599386.563                    24599394.449
 117908308.908 7  91876736.61845  22437187.734                    22437193.574
 11  8 19  3  9 30.0000000  0 10G30G12G29G18G05G26G25G15G21G02
 118102374.359 7  92027908.85245  22474137.148                    22474146.164
 120630875.176 7  93998129.557 7  22955286.633                    22955295.445
 111324572.477 8  86746476.437 7  21184358.891                    21184367.379
 128853233.472 5                  24519959.359
 111965997.026 8  87246314.486 7  21306403.211                    21306411.031
 115976837.352 7  90371646.28045  22069659.281                    22069668.441
 116153764.136 8  90509488.898 7  22103327.094                    22103338.406
 119793172.992 7  93345365.988 7  22795878.094                    22795886.688
 129214354.413 6 100686389.30143  24588630.828                    24588639.113
 117955374.394 7  91913411.02445  22446144.313                    22446150.309
 11  8 19  3 10  0.0000000  0 10G30G12G29G18G05G26G25G15G21G02
 118167945.642 7  92079003.34845  22486614.680                    22486624.352
 120721754.819 7  94068944.850 7  22972581.016                    22972589.664
 111260935.321 8  86696889.067 7  21172249.031                    21172257.035
 128765237.114 5 100336598.86652  24503214.078                    24503222.844
 112033589.261 8  87298983.770 7  21319265.375                    21319273.227
 115906464.842 7  90316810.57345  22056267.836                    22056276.746
 116205192.400 8  90549562.867 7  22113113.906                    22113124.363
 119700824.648 7  93273406.280 6  22778304.438                    22778313.594
 129157811.804 7 100642330.20843  24577870.609                    24577878.711
 118002538.318 7  91950162.13845  22455118.594                    22455125.227
 11  8 19  3 10 30.0000000  0 10G30G12G29G18G05G26G25G15G21G02
 118233850.925 7  92130358.11445  22499155.922                    22499164.848
 120812773.484 7  94139868.465 7  22989900.984                    22989909.500
 111197592.272 8  86647530.879 7  21160195.492                    21160203.023
 128677416.588 5 100268167.46242  24486501.938                    24486512.039
 112101478.062 8  87351884.134 7  21332184.148                    21332191.988
 115836515.681 7  90262304.78045  22042956.938                    22042965.957
 116257034.679 8  90589959.441 7  22122979.055                    22122990.523
 119608634.100 7  93201569.520 7  22760761.602                    22760769.789
 129101248.482 6 100598255.02943  24567106.141                    24567115.602
 118049801.104 7  91986990.28045  22464113.023                    22464119.418
 11  8 19  3 11  0.0000000  0 10G30G12G29G18G05G26G25G15G21G02
 118300087.662 7  92181971.16045  22511760.930                    22511769.602
 120903928.788 7  94210898.549 7  23007247.336                    23007256.000
 111134546.088 8  86598404.012 7  21148197.797                    21148205.898
 128589773.467 5 100199874.26242  24469823.867                    24469834.453
 112169662.089 8  87405014.547 7  21345159.305                    21345167.070
 115766994.155 7  90208132.19045  22029727.211                    22029736.059
 116309288.944 8  90630677.040 7  22132922.688                    22132933.684
 119516604.864 7  93129858.483 7  22743248.797                    22743257.246
 129044664.432 6 100554163.69443  24556339.234                    24556348.125
 118097163.188 7  92023895.79745  22473125.367                    22473131.801
 11  8 19  3 11 30.0000000  0 10G30G12G29G18G05G26G25G15G21G02
 118366652.557 7  92233839.89345  22524426.781                    22524436.355
 120995217.217 7  94282032.351 7  23024618.461                    23024627.410
 111071798.952 8  86549510.165 7  21136257.258                    21136265.531
 128502308.812 6 100131720.05642  24453179.469                    24453190.633
 112238138.270 8  87458372.621 7  21358189.805                    21358197.703
 115697903.275 7  90154295.17545  22016579.820                    22016588.762
 116361952.330 8  90671713.438 7  22142944.375                    22142955.301
 119424740.643 7  93058276.022 6  22725767.477                    22725776.234
 128988058.916 6 100510055.63243  24545566.625                    24545576.340
 118144624.993 7  92060879.01445  22482157.563                    22482163.379
 11  8 19  3 12  0.0000000  0 10G30G12G29G18G05G26G25G15G21G02
 118433542.974 7  92285962.27945  22537156.188                    22537165.211
 121086636.293 7  94353267.972 7  23042014.750                    23042024.043
 111009353.912 8  86500851.719 7  21124374.445                    21124382.746
 128415024.362 5 100063706.31252  24436569.953                    24436581.137
 112306904.857 8  87511956.976 7  21371275.703                    21371283.250
 115629247.003 7  90100796.81245  22003515.180                    22003523.887
 116415022.686 8  90713066.944 7  22153043.164                    22153054.512
 119333043.921 7  92986824.055 6  22708318.023                    22708326.746
 128931431.728 6 100465930.69843  24534790.820                    24534799.988
 118192187.181 7  92097940.44245  22491208.195                    22491214.035
 11  8 19  3 12 30.0000000  0 10G30G12G29G18G05G26G25G15G21G02
 118500755.478 7  92338335.62845  22549946.102                    22549955.656
 121178182.400 7  94424602.567 6  23059436.031                    23059444.703
 110947212.987 8  86452430.252 7  21112549.531                    21112557.875
 128327920.819 6  99995833.61042  24419994.984                    24420005.438
 112375958.803 8  87565765.255 7  21384415.898                    21384423.816
 115561028.291 7  90047639.40745  21990533.313                    21990542.488
 116468496.943 8  90754735.178 7  22163218.914                    22163229.891
 119241517.223 7  92915504.603 6  22690901.086                    22690909.469
 128874782.313 6 100421788.48443  24524010.680                    24524020.414
 118239849.979 7  92135080.25445  22500277.766                    22500284.395
 11  8 19  3 13  0.0000000  0 10G30G12G29G18G05G26G25G15G21G02
 118568286.675 7  92390957.31744  22562796.992                    22562806.117
 121269852.541 7  94496033.832 6  23076880.336                    23076888.418
 110885377.966 8  86404247.155 7  21100782.484                    21100790.828
 128240999.385 6  99928102.75742  24403453.813                    24403464.930
 112445297.410 8  87619795.351 7  21397610.758                    21397618.461
 115493250.202 7  89994825.32945  21977635.469                    21977644.488
 116522372.346 8  90796716.000 7  22173470.938                    22173482.184
 119150164.502 7  92844320.699 7  22673517.203                    22673525.816
 128818109.747 6 100377628.17743  24513226.258                    24513235.832
 118287613.720 7  92172298.74645  22509366.961                    22509373.473
 11  8 19  3 13 30.0000000  0 10G30G12G29G18G05G26G25G15G21G02
 118636133.429 7  92443824.91644  22575707.828                    22575716.992
 121361643.433 7  94567559.218 6  23094347.500                    23094355.609
 110823851.008 8  86356304.101 7  21089074.586                    21089082.648
 128154260.936 6  99860514.46642  24386948.727                    24386958.492
 112514918.168 8  87674045.297 7  21410859.180                    21410867.363
 115425916.297 7  89942357.39045  21964822.391                    21964831.199
 116576646.168 7  90839007.261 7  22183799.141                    22183810.309
 119058988.285 7  92773274.324 7  22656166.773                    22656175.551
 128761413.911 6 100333449.76143  24502436.813                    24502446.980
 118335478.567 7  92209596.01345  22518474.961                    22518481.684
 11  8 19  3 14  0.0000000  0 10G30G12G29G18G05G26G25G15G21G02
 118704293.047 7  92496936.29845  22588678.031                    22588687.594
 121453552.223 7  94639176.463 6  23111836.680                    23111845.469
 110762635.457 8  86308603.705 7  21077425.711                    21077433.801
 128067707.329 6  99793070.20842  24370477.672                    24370487.906
 112584818.911 8  87728513.412 7  21424161.016                    21424168.902
 115359030.280 7  89890238.43845  21952094.594                    21952103.402
 116631315.986 8  90881607.110 7  22194202.438                    22194213.520
 118967992.232 7  92702368.358 7  22638851.047                    22638859.695
 128704694.452 6 100289252.92643  24491644.320                    24491653.434
 118383445.110 7  92246972.52445  22527602.914                    22527609.773
 11  8 19  3 14 30.0000000  0 10G30G12G29G18G05G26G25G15G21G02
 118772762.000 7  92550288.71345  22601707.117                    22601716.891
 121545575.781 7  94710883.140 6  23129348.438                    23129357.059
 110701733.202 8  86261147.434 7  21065836.070                    21065844.336
 127981339.364 6  99725770.64942  24354042.188                    24354052.480
 112654997.016 8  87783197.636 7  21437515.570                    21437523.250
 115292595.071 7  89838470.77545  21939452.063                    21939460.766
 116686378.947 8  90924513.291 7  22204680.836                    22204691.219
 118877179.149 7  92631604.971 7  22621570.023                    22621578.477
 128647950.822 6 100245037.24244  24480846.242                    24480855.305
 118431513.709 7  92284428.57445  22536750.211                    22536756.609
 11  8 19  3 15  0.0000000  0 10G30G12G29G18G05G26G25G15G21G02
 118841537.368 7  92603879.90445  22614794.719                    22614804.348
 121637711.485 7  94782677.184 6  23146882.102                    23146889.988
 110641146.889 8  86213937.356 7  21054307.008                    21054315.207
 127895158.494 6  99658616.88642  24337641.984                    24337652.250
 112725450.071 8  87838096.134 7  21450921.984                    21450929.695
 115226614.172 7  89787057.11245  21926896.469                    21926905.184
 116741832.413 7  90967723.782 7  22215233.031                    22215244.250
 118786552.318 7  92560986.702 7  22604323.938                    22604332.797
 128591182.892 7 100200802.61543  24470043.617                    24470052.855
 118479684.614 7  92321964.31445  22545916.539                    22545923.070
 11  8 19  3 15 30.0000000  0 10G30G12G29G18G05G26G25G15G21G02
 118910615.863 7  92657707.29045  22627940.422                    22627949.484
 121729956.036 7  94854556.038 6  23164434.680                    23164443.633
 110580878.378 8  86166974.900 7  21042838.367                    21042846.105
 127809165.594 6  99591609.56743  24321278.164                    24321288.375
 112796175.507 8  87893206.858 7  21464380.852                    21464388.566
 115161090.905 7  89736000.05545  21914427.688                    21914436.305
 116797673.580 8  91011236.374 7  22225859.352                    22225870.336
 118696114.813 7  92490515.954 7  22587113.953                    22587122.770
 128534389.421 6 100156548.07843  24459236.391                    24459244.621
 118527958.470 7  92359580.28945  22555102.945                    22555109.570
 11  8 19  3 16  0.0000000  0 10G30G12G29G18G05G26G25G15G21G02
 118979994.457 7  92711768.51645  22641142.867                    22641151.883
 121822306.040 7  94926517.044 6  23182008.844                    23182017.293
 110520930.376 8  86120262.189 7  21031430.500                    21031438.520
 127723361.899 6  99524749.65943  24304950.133                    24304960.402
 112867171.073 8  87948528.082 7  21477890.547                    21477898.684
 115096028.622 7  89685302.20145  21902046.672                    21902055.535
 116853899.862 8  91055049.063 7  22236558.797                    22236570.297
 118605869.820 7  92420195.228 7  22569941.031                    22569949.820
 128477570.565 6 100112273.73143  24448423.961                    24448432.488
 118576335.717 7  92397276.84545  22564309.156                    22564315.637
 11  8 19  3 16 30.0000000  0 10G30G12G29G18G05G26G25G15G21G02
 119049669.979 7  92766061.12945  22654401.125                    22654410.793
 121914758.727 6  94998558.061 6  23199601.367                    23199610.566
 110461305.140 8  86073800.992 7  21020084.313                    21020092.047
 127637748.783 6  99458038.25243  24288659.273                    24288668.383
 112938434.141 8  88004057.748 7  21491451.477                    21491459.207
 115031430.547 7  89634966.06245  21889754.195                    21889763.152
 116910508.448 7  91099159.636 7  22247331.375                    22247342.234
 118515820.469 7  92350026.944 7  22552805.328                    22552813.934
 128420725.558 7 100067979.03143  24437606.594                    24437614.426
 118624816.678 7  92435054.19945  22573534.852                    22573541.270
 11  8 19  3 17  0.0000000  0 10G30G12G29G18G05G26G25G15G21G02
 119119639.357 7  92820582.70845  22667715.898                    22667725.473
 122007311.156 6  95070676.790 7  23217213.625                    23217222.555
 110402005.141 8  86027593.229 7  21008799.844                    21008807.586
 127552327.206 6  99391476.10543  24272403.227                    24272413.066
 113009962.410 8  88059794.053 7  21505062.984                    21505071.027
 114967299.997 7  89584994.23045  21877550.297                    21877559.313
 116967496.706 8  91143566.066 7  22258175.703                    22258187.379
 118425969.685 7  92280013.398 7  22535707.445                    22535716.316
 128363854.242 7 100023663.82143  24426784.531                    24426792.887
 118673401.818 7  92472912.73745  22582780.055                    22582786.496
 11  8 19  3 17 30.0000000  0 10G30G12G29G18G05G26G25G15G21G02
 119189899.253 7  92875330.66245  22681086.117                    22681095.457
 122099960.252 7  95142870.868 6  23234844.172                    23234853.180
 110343032.509 8  85981640.554 7  20997577.664                    20997585.695
 127467098.245 6  99325064.03543  24256184.625                    24256194.582
 113081753.314 8  88115735.010 7  21518724.383                    21518732.055
 114903640.113 7  89535389.16145  21865436.430                    21865445.086
 117024861.677 7  91188266.040 7  22269091.500                    22269103.141
 118336320.370 7  92210156.832 7  22518647.555                    22518656.734
 128306956.015 6  99979327.62443  24415956.547                    24415965.156
 118722091.432 7  92510852.67245  22592045.836                    22592051.797
 11  8 19  3 18  0.0000000  0 10G30G12G29G18G05G26G25G15G21G02
 119260446.889 7  92930302.84344  22694510.711                    22694520.141
 122192703.023 7  95215137.927 7  23252493.031                    23252502.102
 110284390.106 8  85935945.186 7  20986418.195                    20986426.145
 127382063.373 6  99258803.18243  24240003.547                    24240012.898
 113153804.770 8  88171878.985 7  21532435.516                    21532443.203
 114840454.685 7  89486153.78345  21853412.422                    21853421.324
 117082600.973 7  91233257.675 7  22280079.320                    22280090.469
 118246876.448 7  92140460.300 7  22501626.680                    22501635.465
 128250030.866 6  99934970.47443  24405124.219                    24405132.023
 118770886.149 7  92548874.53045  22601331.422                    22601337.172
 11  8 19  3 18 30.0000000  0 10G30G12G29G18G05G26G25G15G21G02
 119331278.608 7  92985496.38244  22707989.492                    22707998.883
 122285536.250 7  95287475.485 6  23270158.531                    23270167.324
 110226079.448 8  85890508.325 7  20975322.398                    20975330.305
 127297223.086 6  99192693.95442  24223857.695                    24223868.035
 113226113.733 8  88228223.632 7  21546195.391                    21546203.121
 114777746.207 7  89437290.06445  21841479.609                    21841488.188
 117140711.363 7  91278538.492 7  22291137.242                    22291148.883
 118157640.392 7  92070925.742 7  22484645.797                    22484654.691
 128193077.833 6  99890591.64343  24394285.828                    24394294.691
 118819786.325 7  92586978.56445  22610636.734                    22610642.672
 11  8 19  3 19  0.0000000  0 10G30G12G29G18G05G26G25G15G21G02
 119402391.487 7  93040908.99744  22721522.102                    22721531.242
 122378457.026 7  95359881.270 6  23287840.242                    23287849.551
 110168103.392 7  85845332.186 7  20964290.242                    20964297.855
 127212578.745 6  99126737.44543  24207751.039                    24207760.617
 113298677.806 8  88284767.057 7  21560003.695                    21560011.484
 114715518.481 7  89388800.94945  21829638.039                    21829646.414
 117199190.269 7  91324106.449 7  22302265.117                    22302276.328
 118068615.523 7  92001555.752 7  22467705.078                    22467713.578
 128136096.836 6  99846190.95943  24383442.156                    24383451.348
 118868792.431 8  92625165.13245  22619962.328                    22619968.031
